<?xml version="1.0" encoding="UTF-8" standalone="no" ?>
<gpx xmlns="http://www.topografix.com/GPX/1/1" xmlns:xsi="http://www.w3.org/2001/XMLSchema-instance" xsi:schemaLocation="http://www.topografix.com/GPX/1/1 http://www.topografix.com/GPX/1/1/gpx.xsd" version="1.1" creator="VisuGPX - https://www.visugpx.com">
  <metadata>
    <name>St Vincent /Jabron boucle 29 OCT 2020 10:19</name>
    <desc><![CDATA[A St Vincent sur Jabron, se garer sur le parking de la poste, mairie. A la sortie du parking sur la RD 346 prendre à  droite  pour trouver la route qui mont vers Aubard. Continuer ensuite ouest vers le sentier qui mène à la Bergerie de Mourières. 600m environ après la bergerie, trouver sur la gauche le sentier qui descend vers le village abandonné de Vieux Curel, passer devant le Cimetière et continuer pour arriver sur la RD 346. Prendre à droite sur la route pour trouver le pont qui traverse la Jabron. Après le pont et le hameau de patin prendre à gauche le Gr de pays du tour de la montagne de Lure qui permet de revenir vers St Vincent par le Château des Graves ]]></desc>
  </metadata>
  <trk>
    <name><![CDATA[St Vincent /Jabron boucle 29 OCT 2020 10:19]]></name>
    <trkseg>
      <trkpt lat="44.17443" lon="5.73819">
        <ele>740.35</ele>
        <time>2020-10-29T09:19:58Z</time>
      </trkpt>
      <trkpt lat="44.17443" lon="5.73819">
        <ele>740.35</ele>
        <time>2020-10-29T09:19:59Z</time>
      </trkpt>
      <trkpt lat="44.17443" lon="5.73819">
        <ele>740.35</ele>
        <time>2020-10-29T09:20:00Z</time>
      </trkpt>
      <trkpt lat="44.17442" lon="5.73816">
        <ele>740.83</ele>
        <time>2020-10-29T09:20:19Z</time>
      </trkpt>
      <trkpt lat="44.17448" lon="5.7382">
        <ele>741.79</ele>
        <time>2020-10-29T09:20:37Z</time>
      </trkpt>
      <trkpt lat="44.17458" lon="5.73825">
        <ele>744.2</ele>
        <time>2020-10-29T09:20:51Z</time>
      </trkpt>
      <trkpt lat="44.17466" lon="5.73836">
        <ele>747.08</ele>
        <time>2020-10-29T09:21:05Z</time>
      </trkpt>
      <trkpt lat="44.17473" lon="5.73845">
        <ele>749.49</ele>
        <time>2020-10-29T09:21:19Z</time>
      </trkpt>
      <trkpt lat="44.17483" lon="5.7384">
        <ele>751.89</ele>
        <time>2020-10-29T09:21:33Z</time>
      </trkpt>
      <trkpt lat="44.17486" lon="5.73838">
        <ele>751.89</ele>
        <time>2020-10-29T09:21:37Z</time>
      </trkpt>
      <trkpt lat="44.17497" lon="5.73833">
        <ele>754.29</ele>
        <time>2020-10-29T09:21:50Z</time>
      </trkpt>
      <trkpt lat="44.17513" lon="5.73832">
        <ele>756.69</ele>
        <time>2020-10-29T09:22:08Z</time>
      </trkpt>
      <trkpt lat="44.1752" lon="5.73831">
        <ele>758.14</ele>
        <time>2020-10-29T09:22:21Z</time>
      </trkpt>
      <trkpt lat="44.17524" lon="5.73829">
        <ele>759.1</ele>
        <time>2020-10-29T09:22:33Z</time>
      </trkpt>
      <trkpt lat="44.17535" lon="5.7382">
        <ele>761.02</ele>
        <time>2020-10-29T09:22:48Z</time>
      </trkpt>
      <trkpt lat="44.17545" lon="5.73816">
        <ele>762.46</ele>
        <time>2020-10-29T09:23:01Z</time>
      </trkpt>
      <trkpt lat="44.17557" lon="5.73809">
        <ele>765.35</ele>
        <time>2020-10-29T09:23:17Z</time>
      </trkpt>
      <trkpt lat="44.17569" lon="5.73805">
        <ele>767.27</ele>
        <time>2020-10-29T09:23:33Z</time>
      </trkpt>
      <trkpt lat="44.1758" lon="5.73799">
        <ele>770.15</ele>
        <time>2020-10-29T09:23:47Z</time>
      </trkpt>
      <trkpt lat="44.17589" lon="5.73794">
        <ele>771.6</ele>
        <time>2020-10-29T09:24:00Z</time>
      </trkpt>
      <trkpt lat="44.17595" lon="5.7379">
        <ele>773.04</ele>
        <time>2020-10-29T09:24:08Z</time>
      </trkpt>
      <trkpt lat="44.17604" lon="5.73785">
        <ele>775.44</ele>
        <time>2020-10-29T09:24:21Z</time>
      </trkpt>
      <trkpt lat="44.17614" lon="5.73787">
        <ele>777.36</ele>
        <time>2020-10-29T09:24:34Z</time>
      </trkpt>
      <trkpt lat="44.17624" lon="5.73785">
        <ele>779.77</ele>
        <time>2020-10-29T09:24:49Z</time>
      </trkpt>
      <trkpt lat="44.17631" lon="5.73784">
        <ele>780.73</ele>
        <time>2020-10-29T09:25:00Z</time>
      </trkpt>
      <trkpt lat="44.1764" lon="5.73785">
        <ele>783.13</ele>
        <time>2020-10-29T09:25:14Z</time>
      </trkpt>
      <trkpt lat="44.17642" lon="5.73786">
        <ele>783.61</ele>
        <time>2020-10-29T09:25:17Z</time>
      </trkpt>
      <trkpt lat="44.17649" lon="5.73786">
        <ele>785.53</ele>
        <time>2020-10-29T09:25:30Z</time>
      </trkpt>
      <trkpt lat="44.17648" lon="5.73783">
        <ele>785.53</ele>
        <time>2020-10-29T09:25:53Z</time>
      </trkpt>
      <trkpt lat="44.17644" lon="5.73777">
        <ele>784.57</ele>
        <time>2020-10-29T09:26:07Z</time>
      </trkpt>
      <trkpt lat="44.17645" lon="5.73777">
        <ele>785.05</ele>
        <time>2020-10-29T09:26:20Z</time>
      </trkpt>
      <trkpt lat="44.17646" lon="5.73777">
        <ele>785.05</ele>
        <time>2020-10-29T09:26:24Z</time>
      </trkpt>
      <trkpt lat="44.17646" lon="5.73778">
        <ele>785.05</ele>
        <time>2020-10-29T09:26:40Z</time>
      </trkpt>
      <trkpt lat="44.17645" lon="5.73777">
        <ele>785.05</ele>
        <time>2020-10-29T09:26:56Z</time>
      </trkpt>
      <trkpt lat="44.17643" lon="5.73777">
        <ele>785.53</ele>
        <time>2020-10-29T09:27:20Z</time>
      </trkpt>
      <trkpt lat="44.17646" lon="5.73775">
        <ele>785.53</ele>
        <time>2020-10-29T09:27:36Z</time>
      </trkpt>
      <trkpt lat="44.17647" lon="5.73776">
        <ele>785.53</ele>
        <time>2020-10-29T09:27:51Z</time>
      </trkpt>
      <trkpt lat="44.17646" lon="5.73774">
        <ele>784.57</ele>
        <time>2020-10-29T09:28:09Z</time>
      </trkpt>
      <trkpt lat="44.17646" lon="5.73772">
        <ele>784.57</ele>
        <time>2020-10-29T09:28:30Z</time>
      </trkpt>
      <trkpt lat="44.17647" lon="5.73773">
        <ele>785.05</ele>
        <time>2020-10-29T09:29:00Z</time>
      </trkpt>
      <trkpt lat="44.17647" lon="5.73772">
        <ele>785.05</ele>
        <time>2020-10-29T09:29:37Z</time>
      </trkpt>
      <trkpt lat="44.17646" lon="5.73772">
        <ele>784.57</ele>
        <time>2020-10-29T09:30:17Z</time>
      </trkpt>
      <trkpt lat="44.17646" lon="5.73776">
        <ele>785.05</ele>
        <time>2020-10-29T09:30:52Z</time>
      </trkpt>
      <trkpt lat="44.17647" lon="5.73772">
        <ele>784.57</ele>
        <time>2020-10-29T09:31:33Z</time>
      </trkpt>
      <trkpt lat="44.17646" lon="5.73773">
        <ele>785.05</ele>
        <time>2020-10-29T09:32:09Z</time>
      </trkpt>
      <trkpt lat="44.17646" lon="5.73773">
        <ele>785.05</ele>
        <time>2020-10-29T09:32:47Z</time>
      </trkpt>
      <trkpt lat="44.17644" lon="5.73771">
        <ele>785.05</ele>
        <time>2020-10-29T09:33:23Z</time>
      </trkpt>
      <trkpt lat="44.17647" lon="5.73771">
        <ele>786.02</ele>
        <time>2020-10-29T09:33:54Z</time>
      </trkpt>
      <trkpt lat="44.17646" lon="5.73771">
        <ele>786.02</ele>
        <time>2020-10-29T09:34:26Z</time>
      </trkpt>
      <trkpt lat="44.17645" lon="5.73772">
        <ele>786.02</ele>
        <time>2020-10-29T09:34:58Z</time>
      </trkpt>
      <trkpt lat="44.17645" lon="5.73772">
        <ele>785.53</ele>
        <time>2020-10-29T09:35:30Z</time>
      </trkpt>
      <trkpt lat="44.17644" lon="5.73771">
        <ele>785.53</ele>
        <time>2020-10-29T09:36:05Z</time>
      </trkpt>
      <trkpt lat="44.17646" lon="5.73773">
        <ele>785.53</ele>
        <time>2020-10-29T09:36:49Z</time>
      </trkpt>
      <trkpt lat="44.17648" lon="5.73773">
        <ele>785.53</ele>
        <time>2020-10-29T09:37:35Z</time>
      </trkpt>
      <trkpt lat="44.17647" lon="5.73772">
        <ele>786.02</ele>
        <time>2020-10-29T09:38:13Z</time>
      </trkpt>
      <trkpt lat="44.17645" lon="5.73771">
        <ele>786.02</ele>
        <time>2020-10-29T09:38:49Z</time>
      </trkpt>
      <trkpt lat="44.17645" lon="5.73771">
        <ele>785.53</ele>
        <time>2020-10-29T09:39:25Z</time>
      </trkpt>
      <trkpt lat="44.17645" lon="5.73772">
        <ele>785.53</ele>
        <time>2020-10-29T09:39:54Z</time>
      </trkpt>
      <trkpt lat="44.17645" lon="5.7377">
        <ele>786.02</ele>
        <time>2020-10-29T09:40:25Z</time>
      </trkpt>
      <trkpt lat="44.17647" lon="5.73771">
        <ele>786.5</ele>
        <time>2020-10-29T09:40:51Z</time>
      </trkpt>
      <trkpt lat="44.17646" lon="5.73772">
        <ele>786.5</ele>
        <time>2020-10-29T09:41:31Z</time>
      </trkpt>
      <trkpt lat="44.17645" lon="5.73774">
        <ele>786.5</ele>
        <time>2020-10-29T09:42:00Z</time>
      </trkpt>
      <trkpt lat="44.17647" lon="5.73775">
        <ele>787.46</ele>
        <time>2020-10-29T09:42:13Z</time>
      </trkpt>
      <trkpt lat="44.17646" lon="5.73775">
        <ele>787.94</ele>
        <time>2020-10-29T09:42:29Z</time>
      </trkpt>
      <trkpt lat="44.17644" lon="5.73777">
        <ele>787.46</ele>
        <time>2020-10-29T09:42:57Z</time>
      </trkpt>
      <trkpt lat="44.17644" lon="5.73776">
        <ele>786.98</ele>
        <time>2020-10-29T09:43:24Z</time>
      </trkpt>
      <trkpt lat="44.17646" lon="5.73777">
        <ele>786.5</ele>
        <time>2020-10-29T09:43:54Z</time>
      </trkpt>
      <trkpt lat="44.17646" lon="5.73775">
        <ele>786.5</ele>
        <time>2020-10-29T09:44:10Z</time>
      </trkpt>
      <trkpt lat="44.17649" lon="5.73766">
        <ele>788.42</ele>
        <time>2020-10-29T09:44:28Z</time>
      </trkpt>
      <trkpt lat="44.17654" lon="5.73754">
        <ele>789.86</ele>
        <time>2020-10-29T09:44:42Z</time>
      </trkpt>
      <trkpt lat="44.17654" lon="5.73753">
        <ele>789.38</ele>
        <time>2020-10-29T09:44:43Z</time>
      </trkpt>
      <trkpt lat="44.17656" lon="5.73746">
        <ele>789.86</ele>
        <time>2020-10-29T09:44:49Z</time>
      </trkpt>
      <trkpt lat="44.17658" lon="5.73737">
        <ele>790.34</ele>
        <time>2020-10-29T09:44:58Z</time>
      </trkpt>
      <trkpt lat="44.17658" lon="5.7372">
        <ele>791.3</ele>
        <time>2020-10-29T09:45:13Z</time>
      </trkpt>
      <trkpt lat="44.17657" lon="5.73718">
        <ele>791.3</ele>
        <time>2020-10-29T09:45:15Z</time>
      </trkpt>
      <trkpt lat="44.17654" lon="5.73704">
        <ele>792.74</ele>
        <time>2020-10-29T09:45:28Z</time>
      </trkpt>
      <trkpt lat="44.17652" lon="5.73694">
        <ele>793.22</ele>
        <time>2020-10-29T09:45:44Z</time>
      </trkpt>
      <trkpt lat="44.17652" lon="5.73676">
        <ele>795.15</ele>
        <time>2020-10-29T09:45:59Z</time>
      </trkpt>
      <trkpt lat="44.17652" lon="5.73674">
        <ele>795.63</ele>
        <time>2020-10-29T09:46:01Z</time>
      </trkpt>
      <trkpt lat="44.17654" lon="5.73661">
        <ele>796.11</ele>
        <time>2020-10-29T09:46:11Z</time>
      </trkpt>
      <trkpt lat="44.17653" lon="5.73654">
        <ele>797.07</ele>
        <time>2020-10-29T09:46:16Z</time>
      </trkpt>
      <trkpt lat="44.17654" lon="5.73648">
        <ele>797.07</ele>
        <time>2020-10-29T09:46:20Z</time>
      </trkpt>
      <trkpt lat="44.17657" lon="5.73633">
        <ele>799.47</ele>
        <time>2020-10-29T09:46:32Z</time>
      </trkpt>
      <trkpt lat="44.17662" lon="5.73628">
        <ele>800.44</ele>
        <time>2020-10-29T09:46:46Z</time>
      </trkpt>
      <trkpt lat="44.17665" lon="5.73626">
        <ele>801.88</ele>
        <time>2020-10-29T09:47:01Z</time>
      </trkpt>
      <trkpt lat="44.1767" lon="5.7362">
        <ele>802.84</ele>
        <time>2020-10-29T09:47:17Z</time>
      </trkpt>
      <trkpt lat="44.17681" lon="5.73621">
        <ele>805.24</ele>
        <time>2020-10-29T09:47:33Z</time>
      </trkpt>
      <trkpt lat="44.17686" lon="5.73618">
        <ele>807.64</ele>
        <time>2020-10-29T09:47:49Z</time>
      </trkpt>
      <trkpt lat="44.17694" lon="5.73621">
        <ele>810.53</ele>
        <time>2020-10-29T09:48:02Z</time>
      </trkpt>
      <trkpt lat="44.17703" lon="5.73616">
        <ele>811.49</ele>
        <time>2020-10-29T09:48:17Z</time>
      </trkpt>
      <trkpt lat="44.17707" lon="5.73613">
        <ele>812.45</ele>
        <time>2020-10-29T09:48:24Z</time>
      </trkpt>
      <trkpt lat="44.17715" lon="5.73602">
        <ele>814.85</ele>
        <time>2020-10-29T09:48:37Z</time>
      </trkpt>
      <trkpt lat="44.17716" lon="5.736">
        <ele>814.85</ele>
        <time>2020-10-29T09:48:39Z</time>
      </trkpt>
      <trkpt lat="44.17726" lon="5.73589">
        <ele>817.74</ele>
        <time>2020-10-29T09:48:55Z</time>
      </trkpt>
      <trkpt lat="44.17737" lon="5.73587">
        <ele>820.14</ele>
        <time>2020-10-29T09:49:09Z</time>
      </trkpt>
      <trkpt lat="44.17748" lon="5.73583">
        <ele>822.55</ele>
        <time>2020-10-29T09:49:25Z</time>
      </trkpt>
      <trkpt lat="44.17759" lon="5.73579">
        <ele>825.43</ele>
        <time>2020-10-29T09:49:39Z</time>
      </trkpt>
      <trkpt lat="44.17768" lon="5.73583">
        <ele>828.31</ele>
        <time>2020-10-29T09:49:52Z</time>
      </trkpt>
      <trkpt lat="44.17777" lon="5.73587">
        <ele>829.76</ele>
        <time>2020-10-29T09:50:06Z</time>
      </trkpt>
      <trkpt lat="44.17785" lon="5.73588">
        <ele>832.16</ele>
        <time>2020-10-29T09:50:20Z</time>
      </trkpt>
      <trkpt lat="44.17794" lon="5.73587">
        <ele>834.08</ele>
        <time>2020-10-29T09:50:35Z</time>
      </trkpt>
      <trkpt lat="44.17804" lon="5.7359">
        <ele>836.48</ele>
        <time>2020-10-29T09:50:50Z</time>
      </trkpt>
      <trkpt lat="44.17814" lon="5.73589">
        <ele>839.37</ele>
        <time>2020-10-29T09:51:06Z</time>
      </trkpt>
      <trkpt lat="44.17819" lon="5.73584">
        <ele>842.25</ele>
        <time>2020-10-29T09:51:22Z</time>
      </trkpt>
      <trkpt lat="44.17828" lon="5.73575">
        <ele>842.73</ele>
        <time>2020-10-29T09:51:36Z</time>
      </trkpt>
      <trkpt lat="44.17838" lon="5.73574">
        <ele>845.14</ele>
        <time>2020-10-29T09:51:51Z</time>
      </trkpt>
      <trkpt lat="44.17847" lon="5.73581">
        <ele>847.54</ele>
        <time>2020-10-29T09:52:06Z</time>
      </trkpt>
      <trkpt lat="44.17855" lon="5.73581">
        <ele>850.42</ele>
        <time>2020-10-29T09:52:20Z</time>
      </trkpt>
      <trkpt lat="44.17863" lon="5.73574">
        <ele>852.35</ele>
        <time>2020-10-29T09:52:35Z</time>
      </trkpt>
      <trkpt lat="44.17873" lon="5.73564">
        <ele>853.31</ele>
        <time>2020-10-29T09:52:50Z</time>
      </trkpt>
      <trkpt lat="44.17883" lon="5.73556">
        <ele>854.75</ele>
        <time>2020-10-29T09:53:05Z</time>
      </trkpt>
      <trkpt lat="44.1789" lon="5.73552">
        <ele>856.19</ele>
        <time>2020-10-29T09:53:19Z</time>
      </trkpt>
      <trkpt lat="44.17891" lon="5.73549">
        <ele>855.71</ele>
        <time>2020-10-29T09:53:32Z</time>
      </trkpt>
      <trkpt lat="44.17889" lon="5.73548">
        <ele>856.19</ele>
        <time>2020-10-29T09:54:06Z</time>
      </trkpt>
      <trkpt lat="44.17891" lon="5.73549">
        <ele>856.19</ele>
        <time>2020-10-29T09:54:40Z</time>
      </trkpt>
      <trkpt lat="44.1789" lon="5.73549">
        <ele>856.67</ele>
        <time>2020-10-29T09:55:18Z</time>
      </trkpt>
      <trkpt lat="44.17889" lon="5.7355">
        <ele>856.67</ele>
        <time>2020-10-29T09:55:57Z</time>
      </trkpt>
      <trkpt lat="44.17889" lon="5.7355">
        <ele>856.67</ele>
        <time>2020-10-29T09:56:05Z</time>
      </trkpt>
      <trkpt lat="44.17889" lon="5.7355">
        <ele>856.19</ele>
        <time>2020-10-29T09:56:52Z</time>
      </trkpt>
      <trkpt lat="44.1789" lon="5.73549">
        <ele>855.71</ele>
        <time>2020-10-29T09:57:09Z</time>
      </trkpt>
      <trkpt lat="44.17889" lon="5.73549">
        <ele>856.67</ele>
        <time>2020-10-29T09:57:20Z</time>
      </trkpt>
      <trkpt lat="44.17888" lon="5.73551">
        <ele>857.63</ele>
        <time>2020-10-29T09:57:41Z</time>
      </trkpt>
      <trkpt lat="44.17889" lon="5.73552">
        <ele>857.15</ele>
        <time>2020-10-29T09:58:00Z</time>
      </trkpt>
      <trkpt lat="44.17889" lon="5.7355">
        <ele>856.67</ele>
        <time>2020-10-29T09:58:27Z</time>
      </trkpt>
      <trkpt lat="44.17888" lon="5.73549">
        <ele>856.19</ele>
        <time>2020-10-29T09:58:59Z</time>
      </trkpt>
      <trkpt lat="44.17887" lon="5.73551">
        <ele>856.67</ele>
        <time>2020-10-29T09:59:13Z</time>
      </trkpt>
      <trkpt lat="44.17886" lon="5.73552">
        <ele>857.63</ele>
        <time>2020-10-29T09:59:50Z</time>
      </trkpt>
      <trkpt lat="44.17885" lon="5.73551">
        <ele>858.11</ele>
        <time>2020-10-29T10:00:27Z</time>
      </trkpt>
      <trkpt lat="44.17886" lon="5.73552">
        <ele>858.11</ele>
        <time>2020-10-29T10:00:52Z</time>
      </trkpt>
      <trkpt lat="44.17886" lon="5.73553">
        <ele>859.08</ele>
        <time>2020-10-29T10:01:25Z</time>
      </trkpt>
      <trkpt lat="44.17887" lon="5.73551">
        <ele>858.59</ele>
        <time>2020-10-29T10:02:10Z</time>
      </trkpt>
      <trkpt lat="44.17887" lon="5.7355">
        <ele>858.59</ele>
        <time>2020-10-29T10:02:47Z</time>
      </trkpt>
      <trkpt lat="44.17886" lon="5.73551">
        <ele>859.08</ele>
        <time>2020-10-29T10:03:18Z</time>
      </trkpt>
      <trkpt lat="44.17887" lon="5.73542">
        <ele>859.08</ele>
        <time>2020-10-29T10:03:28Z</time>
      </trkpt>
      <trkpt lat="44.17891" lon="5.73525">
        <ele>861</ele>
        <time>2020-10-29T10:03:44Z</time>
      </trkpt>
      <trkpt lat="44.17894" lon="5.73519">
        <ele>861.96</ele>
        <time>2020-10-29T10:03:54Z</time>
      </trkpt>
      <trkpt lat="44.179" lon="5.73514">
        <ele>863.4</ele>
        <time>2020-10-29T10:04:07Z</time>
      </trkpt>
      <trkpt lat="44.17904" lon="5.7351">
        <ele>864.84</ele>
        <time>2020-10-29T10:04:19Z</time>
      </trkpt>
      <trkpt lat="44.1791" lon="5.73505">
        <ele>866.29</ele>
        <time>2020-10-29T10:04:32Z</time>
      </trkpt>
      <trkpt lat="44.17917" lon="5.73496">
        <ele>867.73</ele>
        <time>2020-10-29T10:04:45Z</time>
      </trkpt>
      <trkpt lat="44.1792" lon="5.73486">
        <ele>869.65</ele>
        <time>2020-10-29T10:05:00Z</time>
      </trkpt>
      <trkpt lat="44.17922" lon="5.73474">
        <ele>871.09</ele>
        <time>2020-10-29T10:05:13Z</time>
      </trkpt>
      <trkpt lat="44.17926" lon="5.73466">
        <ele>873.01</ele>
        <time>2020-10-29T10:05:28Z</time>
      </trkpt>
      <trkpt lat="44.1793" lon="5.73458">
        <ele>873.98</ele>
        <time>2020-10-29T10:05:51Z</time>
      </trkpt>
      <trkpt lat="44.17933" lon="5.73451">
        <ele>874.94</ele>
        <time>2020-10-29T10:06:05Z</time>
      </trkpt>
      <trkpt lat="44.17942" lon="5.73435">
        <ele>875.9</ele>
        <time>2020-10-29T10:06:21Z</time>
      </trkpt>
      <trkpt lat="44.17945" lon="5.7343">
        <ele>876.86</ele>
        <time>2020-10-29T10:06:35Z</time>
      </trkpt>
      <trkpt lat="44.17951" lon="5.73425">
        <ele>877.82</ele>
        <time>2020-10-29T10:06:41Z</time>
      </trkpt>
      <trkpt lat="44.17954" lon="5.73418">
        <ele>879.74</ele>
        <time>2020-10-29T10:06:48Z</time>
      </trkpt>
      <trkpt lat="44.17969" lon="5.73407">
        <ele>881.19</ele>
        <time>2020-10-29T10:07:06Z</time>
      </trkpt>
      <trkpt lat="44.17971" lon="5.73405">
        <ele>881.67</ele>
        <time>2020-10-29T10:07:09Z</time>
      </trkpt>
      <trkpt lat="44.17987" lon="5.73396">
        <ele>883.11</ele>
        <time>2020-10-29T10:07:25Z</time>
      </trkpt>
      <trkpt lat="44.18" lon="5.7339">
        <ele>885.03</ele>
        <time>2020-10-29T10:07:41Z</time>
      </trkpt>
      <trkpt lat="44.18009" lon="5.73381">
        <ele>885.99</ele>
        <time>2020-10-29T10:07:52Z</time>
      </trkpt>
      <trkpt lat="44.18016" lon="5.73371">
        <ele>885.99</ele>
        <time>2020-10-29T10:08:03Z</time>
      </trkpt>
      <trkpt lat="44.18019" lon="5.73367">
        <ele>885.51</ele>
        <time>2020-10-29T10:08:09Z</time>
      </trkpt>
      <trkpt lat="44.18024" lon="5.73358">
        <ele>884.55</ele>
        <time>2020-10-29T10:08:19Z</time>
      </trkpt>
      <trkpt lat="44.18026" lon="5.73353">
        <ele>884.55</ele>
        <time>2020-10-29T10:08:23Z</time>
      </trkpt>
      <trkpt lat="44.18026" lon="5.73347">
        <ele>884.55</ele>
        <time>2020-10-29T10:08:29Z</time>
      </trkpt>
      <trkpt lat="44.18033" lon="5.73337">
        <ele>883.59</ele>
        <time>2020-10-29T10:08:38Z</time>
      </trkpt>
      <trkpt lat="44.1804" lon="5.73325">
        <ele>883.11</ele>
        <time>2020-10-29T10:08:50Z</time>
      </trkpt>
      <trkpt lat="44.18042" lon="5.7332">
        <ele>882.63</ele>
        <time>2020-10-29T10:08:55Z</time>
      </trkpt>
      <trkpt lat="44.18051" lon="5.7331">
        <ele>882.15</ele>
        <time>2020-10-29T10:09:08Z</time>
      </trkpt>
      <trkpt lat="44.1806" lon="5.73306">
        <ele>882.15</ele>
        <time>2020-10-29T10:09:17Z</time>
      </trkpt>
      <trkpt lat="44.18072" lon="5.73304">
        <ele>882.15</ele>
        <time>2020-10-29T10:09:30Z</time>
      </trkpt>
      <trkpt lat="44.18084" lon="5.733">
        <ele>881.67</ele>
        <time>2020-10-29T10:09:43Z</time>
      </trkpt>
      <trkpt lat="44.18092" lon="5.73297">
        <ele>883.11</ele>
        <time>2020-10-29T10:09:56Z</time>
      </trkpt>
      <trkpt lat="44.18095" lon="5.73296">
        <ele>883.59</ele>
        <time>2020-10-29T10:10:00Z</time>
      </trkpt>
      <trkpt lat="44.18098" lon="5.73309">
        <ele>884.55</ele>
        <time>2020-10-29T10:10:13Z</time>
      </trkpt>
      <trkpt lat="44.181" lon="5.73311">
        <ele>884.07</ele>
        <time>2020-10-29T10:10:32Z</time>
      </trkpt>
      <trkpt lat="44.18101" lon="5.73308">
        <ele>885.03</ele>
        <time>2020-10-29T10:10:49Z</time>
      </trkpt>
      <trkpt lat="44.18101" lon="5.73309">
        <ele>885.03</ele>
        <time>2020-10-29T10:11:07Z</time>
      </trkpt>
      <trkpt lat="44.181" lon="5.73308">
        <ele>885.03</ele>
        <time>2020-10-29T10:11:33Z</time>
      </trkpt>
      <trkpt lat="44.18099" lon="5.73308">
        <ele>885.03</ele>
        <time>2020-10-29T10:11:59Z</time>
      </trkpt>
      <trkpt lat="44.18099" lon="5.7331">
        <ele>884.55</ele>
        <time>2020-10-29T10:12:29Z</time>
      </trkpt>
      <trkpt lat="44.18098" lon="5.7331">
        <ele>884.55</ele>
        <time>2020-10-29T10:12:58Z</time>
      </trkpt>
      <trkpt lat="44.18099" lon="5.73311">
        <ele>885.03</ele>
        <time>2020-10-29T10:13:24Z</time>
      </trkpt>
      <trkpt lat="44.181" lon="5.73311">
        <ele>884.55</ele>
        <time>2020-10-29T10:13:58Z</time>
      </trkpt>
      <trkpt lat="44.18101" lon="5.7331">
        <ele>885.03</ele>
        <time>2020-10-29T10:14:27Z</time>
      </trkpt>
      <trkpt lat="44.18099" lon="5.7331">
        <ele>885.51</ele>
        <time>2020-10-29T10:14:57Z</time>
      </trkpt>
      <trkpt lat="44.18096" lon="5.73306">
        <ele>885.03</ele>
        <time>2020-10-29T10:15:11Z</time>
      </trkpt>
      <trkpt lat="44.18096" lon="5.733">
        <ele>885.03</ele>
        <time>2020-10-29T10:15:18Z</time>
      </trkpt>
      <trkpt lat="44.18103" lon="5.73277">
        <ele>882.63</ele>
        <time>2020-10-29T10:15:35Z</time>
      </trkpt>
      <trkpt lat="44.18103" lon="5.73276">
        <ele>882.63</ele>
        <time>2020-10-29T10:15:36Z</time>
      </trkpt>
      <trkpt lat="44.18107" lon="5.73253">
        <ele>883.59</ele>
        <time>2020-10-29T10:15:52Z</time>
      </trkpt>
      <trkpt lat="44.18108" lon="5.73248">
        <ele>883.11</ele>
        <time>2020-10-29T10:15:56Z</time>
      </trkpt>
      <trkpt lat="44.1811" lon="5.73233">
        <ele>883.59</ele>
        <time>2020-10-29T10:16:11Z</time>
      </trkpt>
      <trkpt lat="44.18113" lon="5.7321">
        <ele>884.55</ele>
        <time>2020-10-29T10:16:28Z</time>
      </trkpt>
      <trkpt lat="44.18118" lon="5.73189">
        <ele>884.55</ele>
        <time>2020-10-29T10:16:44Z</time>
      </trkpt>
      <trkpt lat="44.18121" lon="5.73166">
        <ele>884.55</ele>
        <time>2020-10-29T10:17:01Z</time>
      </trkpt>
      <trkpt lat="44.1813" lon="5.73151">
        <ele>883.59</ele>
        <time>2020-10-29T10:17:15Z</time>
      </trkpt>
      <trkpt lat="44.18139" lon="5.73127">
        <ele>883.59</ele>
        <time>2020-10-29T10:17:34Z</time>
      </trkpt>
      <trkpt lat="44.18142" lon="5.7311">
        <ele>884.07</ele>
        <time>2020-10-29T10:17:49Z</time>
      </trkpt>
      <trkpt lat="44.18148" lon="5.73085">
        <ele>885.03</ele>
        <time>2020-10-29T10:18:08Z</time>
      </trkpt>
      <trkpt lat="44.18149" lon="5.73073">
        <ele>885.99</ele>
        <time>2020-10-29T10:18:17Z</time>
      </trkpt>
      <trkpt lat="44.18152" lon="5.73054">
        <ele>886.95</ele>
        <time>2020-10-29T10:18:32Z</time>
      </trkpt>
      <trkpt lat="44.18158" lon="5.73036">
        <ele>889.36</ele>
        <time>2020-10-29T10:18:47Z</time>
      </trkpt>
      <trkpt lat="44.1816" lon="5.73034">
        <ele>889.36</ele>
        <time>2020-10-29T10:18:52Z</time>
      </trkpt>
      <trkpt lat="44.18169" lon="5.7302">
        <ele>890.32</ele>
        <time>2020-10-29T10:19:06Z</time>
      </trkpt>
      <trkpt lat="44.18174" lon="5.72999">
        <ele>891.76</ele>
        <time>2020-10-29T10:19:23Z</time>
      </trkpt>
      <trkpt lat="44.18176" lon="5.72981">
        <ele>892.24</ele>
        <time>2020-10-29T10:19:37Z</time>
      </trkpt>
      <trkpt lat="44.18175" lon="5.72964">
        <ele>892.72</ele>
        <time>2020-10-29T10:19:50Z</time>
      </trkpt>
      <trkpt lat="44.18177" lon="5.72947">
        <ele>893.68</ele>
        <time>2020-10-29T10:20:04Z</time>
      </trkpt>
      <trkpt lat="44.18177" lon="5.72941">
        <ele>895.12</ele>
        <time>2020-10-29T10:20:08Z</time>
      </trkpt>
      <trkpt lat="44.18176" lon="5.72935">
        <ele>894.16</ele>
        <time>2020-10-29T10:20:12Z</time>
      </trkpt>
      <trkpt lat="44.18179" lon="5.72925">
        <ele>894.16</ele>
        <time>2020-10-29T10:20:19Z</time>
      </trkpt>
      <trkpt lat="44.18179" lon="5.72908">
        <ele>895.12</ele>
        <time>2020-10-29T10:20:31Z</time>
      </trkpt>
      <trkpt lat="44.18178" lon="5.72895">
        <ele>895.12</ele>
        <time>2020-10-29T10:20:42Z</time>
      </trkpt>
      <trkpt lat="44.18178" lon="5.72887">
        <ele>895.61</ele>
        <time>2020-10-29T10:20:48Z</time>
      </trkpt>
      <trkpt lat="44.18177" lon="5.72882">
        <ele>895.61</ele>
        <time>2020-10-29T10:20:52Z</time>
      </trkpt>
      <trkpt lat="44.18175" lon="5.72861">
        <ele>896.57</ele>
        <time>2020-10-29T10:21:09Z</time>
      </trkpt>
      <trkpt lat="44.18174" lon="5.72836">
        <ele>898.01</ele>
        <time>2020-10-29T10:21:27Z</time>
      </trkpt>
      <trkpt lat="44.18171" lon="5.72819">
        <ele>898.49</ele>
        <time>2020-10-29T10:21:41Z</time>
      </trkpt>
      <trkpt lat="44.1817" lon="5.72794">
        <ele>899.45</ele>
        <time>2020-10-29T10:21:57Z</time>
      </trkpt>
      <trkpt lat="44.18169" lon="5.72786">
        <ele>899.45</ele>
        <time>2020-10-29T10:22:05Z</time>
      </trkpt>
      <trkpt lat="44.18172" lon="5.7276">
        <ele>899.93</ele>
        <time>2020-10-29T10:22:23Z</time>
      </trkpt>
      <trkpt lat="44.18173" lon="5.72747">
        <ele>901.37</ele>
        <time>2020-10-29T10:22:34Z</time>
      </trkpt>
      <trkpt lat="44.1818" lon="5.7273">
        <ele>901.85</ele>
        <time>2020-10-29T10:22:48Z</time>
      </trkpt>
      <trkpt lat="44.18183" lon="5.72723">
        <ele>902.33</ele>
        <time>2020-10-29T10:22:55Z</time>
      </trkpt>
      <trkpt lat="44.18191" lon="5.72716">
        <ele>902.33</ele>
        <time>2020-10-29T10:23:04Z</time>
      </trkpt>
      <trkpt lat="44.18195" lon="5.72715">
        <ele>902.33</ele>
        <time>2020-10-29T10:23:08Z</time>
      </trkpt>
      <trkpt lat="44.18212" lon="5.72706">
        <ele>902.82</ele>
        <time>2020-10-29T10:23:25Z</time>
      </trkpt>
      <trkpt lat="44.18228" lon="5.72694">
        <ele>902.82</ele>
        <time>2020-10-29T10:23:42Z</time>
      </trkpt>
      <trkpt lat="44.18244" lon="5.72681">
        <ele>902.82</ele>
        <time>2020-10-29T10:23:59Z</time>
      </trkpt>
      <trkpt lat="44.18261" lon="5.72664">
        <ele>903.3</ele>
        <time>2020-10-29T10:24:18Z</time>
      </trkpt>
      <trkpt lat="44.18272" lon="5.72653">
        <ele>903.78</ele>
        <time>2020-10-29T10:24:32Z</time>
      </trkpt>
      <trkpt lat="44.18285" lon="5.72637">
        <ele>904.26</ele>
        <time>2020-10-29T10:24:47Z</time>
      </trkpt>
      <trkpt lat="44.18295" lon="5.72625">
        <ele>904.74</ele>
        <time>2020-10-29T10:25:02Z</time>
      </trkpt>
      <trkpt lat="44.18295" lon="5.72616">
        <ele>904.74</ele>
        <time>2020-10-29T10:25:12Z</time>
      </trkpt>
      <trkpt lat="44.1829" lon="5.72602">
        <ele>905.7</ele>
        <time>2020-10-29T10:25:22Z</time>
      </trkpt>
      <trkpt lat="44.1828" lon="5.72593">
        <ele>907.14</ele>
        <time>2020-10-29T10:25:35Z</time>
      </trkpt>
      <trkpt lat="44.18277" lon="5.7259">
        <ele>907.62</ele>
        <time>2020-10-29T10:25:38Z</time>
      </trkpt>
      <trkpt lat="44.18273" lon="5.72587">
        <ele>908.1</ele>
        <time>2020-10-29T10:25:43Z</time>
      </trkpt>
      <trkpt lat="44.18262" lon="5.72574">
        <ele>909.54</ele>
        <time>2020-10-29T10:25:57Z</time>
      </trkpt>
      <trkpt lat="44.18259" lon="5.72572">
        <ele>910.03</ele>
        <time>2020-10-29T10:26:09Z</time>
      </trkpt>
      <trkpt lat="44.18254" lon="5.72563">
        <ele>910.51</ele>
        <time>2020-10-29T10:26:23Z</time>
      </trkpt>
      <trkpt lat="44.18251" lon="5.72556">
        <ele>911.47</ele>
        <time>2020-10-29T10:26:32Z</time>
      </trkpt>
      <trkpt lat="44.18249" lon="5.72555">
        <ele>911.47</ele>
        <time>2020-10-29T10:26:35Z</time>
      </trkpt>
      <trkpt lat="44.18242" lon="5.72547">
        <ele>911.95</ele>
        <time>2020-10-29T10:26:49Z</time>
      </trkpt>
      <trkpt lat="44.18242" lon="5.72543">
        <ele>911.47</ele>
        <time>2020-10-29T10:27:16Z</time>
      </trkpt>
      <trkpt lat="44.18243" lon="5.72541">
        <ele>910.99</ele>
        <time>2020-10-29T10:27:41Z</time>
      </trkpt>
      <trkpt lat="44.18243" lon="5.72547">
        <ele>910.99</ele>
        <time>2020-10-29T10:27:58Z</time>
      </trkpt>
      <trkpt lat="44.18242" lon="5.72547">
        <ele>910.99</ele>
        <time>2020-10-29T10:28:16Z</time>
      </trkpt>
      <trkpt lat="44.18242" lon="5.72548">
        <ele>910.99</ele>
        <time>2020-10-29T10:28:35Z</time>
      </trkpt>
      <trkpt lat="44.18242" lon="5.72548">
        <ele>911.95</ele>
        <time>2020-10-29T10:28:53Z</time>
      </trkpt>
      <trkpt lat="44.18243" lon="5.72546">
        <ele>911.47</ele>
        <time>2020-10-29T10:29:01Z</time>
      </trkpt>
      <trkpt lat="44.18243" lon="5.72546">
        <ele>910.99</ele>
        <time>2020-10-29T10:29:16Z</time>
      </trkpt>
      <trkpt lat="44.18245" lon="5.72548">
        <ele>911.47</ele>
        <time>2020-10-29T10:29:41Z</time>
      </trkpt>
      <trkpt lat="44.18244" lon="5.72547">
        <ele>911.47</ele>
        <time>2020-10-29T10:30:02Z</time>
      </trkpt>
      <trkpt lat="44.18247" lon="5.72546">
        <ele>911.95</ele>
        <time>2020-10-29T10:30:19Z</time>
      </trkpt>
      <trkpt lat="44.18244" lon="5.72546">
        <ele>911.95</ele>
        <time>2020-10-29T10:30:40Z</time>
      </trkpt>
      <trkpt lat="44.18245" lon="5.7255">
        <ele>911.95</ele>
        <time>2020-10-29T10:30:48Z</time>
      </trkpt>
      <trkpt lat="44.1824" lon="5.72543">
        <ele>911.95</ele>
        <time>2020-10-29T10:30:59Z</time>
      </trkpt>
      <trkpt lat="44.18233" lon="5.72533">
        <ele>911.95</ele>
        <time>2020-10-29T10:31:14Z</time>
      </trkpt>
      <trkpt lat="44.18225" lon="5.72528">
        <ele>911.95</ele>
        <time>2020-10-29T10:31:29Z</time>
      </trkpt>
      <trkpt lat="44.18216" lon="5.7252">
        <ele>910.99</ele>
        <time>2020-10-29T10:31:45Z</time>
      </trkpt>
      <trkpt lat="44.18204" lon="5.7251">
        <ele>911.47</ele>
        <time>2020-10-29T10:32:01Z</time>
      </trkpt>
      <trkpt lat="44.18198" lon="5.72498">
        <ele>910.99</ele>
        <time>2020-10-29T10:32:16Z</time>
      </trkpt>
      <trkpt lat="44.18194" lon="5.72493">
        <ele>910.03</ele>
        <time>2020-10-29T10:32:22Z</time>
      </trkpt>
      <trkpt lat="44.18189" lon="5.72473">
        <ele>910.99</ele>
        <time>2020-10-29T10:32:38Z</time>
      </trkpt>
      <trkpt lat="44.18188" lon="5.72452">
        <ele>911.47</ele>
        <time>2020-10-29T10:32:53Z</time>
      </trkpt>
      <trkpt lat="44.18191" lon="5.72436">
        <ele>911.95</ele>
        <time>2020-10-29T10:33:07Z</time>
      </trkpt>
      <trkpt lat="44.18193" lon="5.72416">
        <ele>913.39</ele>
        <time>2020-10-29T10:33:22Z</time>
      </trkpt>
      <trkpt lat="44.18196" lon="5.72398">
        <ele>913.87</ele>
        <time>2020-10-29T10:33:36Z</time>
      </trkpt>
      <trkpt lat="44.18199" lon="5.72386">
        <ele>915.31</ele>
        <time>2020-10-29T10:33:48Z</time>
      </trkpt>
      <trkpt lat="44.18211" lon="5.72371">
        <ele>915.79</ele>
        <time>2020-10-29T10:34:05Z</time>
      </trkpt>
      <trkpt lat="44.1822" lon="5.72369">
        <ele>914.35</ele>
        <time>2020-10-29T10:34:19Z</time>
      </trkpt>
      <trkpt lat="44.18224" lon="5.72368">
        <ele>914.83</ele>
        <time>2020-10-29T10:34:23Z</time>
      </trkpt>
      <trkpt lat="44.18232" lon="5.72366">
        <ele>915.31</ele>
        <time>2020-10-29T10:34:30Z</time>
      </trkpt>
      <trkpt lat="44.18244" lon="5.72357">
        <ele>915.79</ele>
        <time>2020-10-29T10:34:45Z</time>
      </trkpt>
      <trkpt lat="44.18249" lon="5.72353">
        <ele>916.27</ele>
        <time>2020-10-29T10:34:51Z</time>
      </trkpt>
      <trkpt lat="44.18254" lon="5.72345">
        <ele>917.72</ele>
        <time>2020-10-29T10:34:59Z</time>
      </trkpt>
      <trkpt lat="44.18261" lon="5.72338">
        <ele>918.68</ele>
        <time>2020-10-29T10:35:11Z</time>
      </trkpt>
      <trkpt lat="44.18262" lon="5.72335">
        <ele>919.16</ele>
        <time>2020-10-29T10:35:14Z</time>
      </trkpt>
      <trkpt lat="44.18273" lon="5.72345">
        <ele>921.56</ele>
        <time>2020-10-29T10:35:32Z</time>
      </trkpt>
      <trkpt lat="44.18272" lon="5.7235">
        <ele>921.56</ele>
        <time>2020-10-29T10:35:37Z</time>
      </trkpt>
      <trkpt lat="44.18271" lon="5.72361">
        <ele>922.04</ele>
        <time>2020-10-29T10:35:48Z</time>
      </trkpt>
      <trkpt lat="44.18269" lon="5.72374">
        <ele>923.48</ele>
        <time>2020-10-29T10:35:58Z</time>
      </trkpt>
      <trkpt lat="44.18267" lon="5.72379">
        <ele>923.48</ele>
        <time>2020-10-29T10:36:09Z</time>
      </trkpt>
      <trkpt lat="44.18263" lon="5.72392">
        <ele>923.96</ele>
        <time>2020-10-29T10:36:20Z</time>
      </trkpt>
      <trkpt lat="44.1826" lon="5.72407">
        <ele>925.89</ele>
        <time>2020-10-29T10:36:32Z</time>
      </trkpt>
      <trkpt lat="44.1826" lon="5.72408">
        <ele>925.41</ele>
        <time>2020-10-29T10:36:33Z</time>
      </trkpt>
      <trkpt lat="44.18262" lon="5.72421">
        <ele>925.89</ele>
        <time>2020-10-29T10:36:43Z</time>
      </trkpt>
      <trkpt lat="44.18268" lon="5.72431">
        <ele>927.33</ele>
        <time>2020-10-29T10:36:57Z</time>
      </trkpt>
      <trkpt lat="44.18268" lon="5.72432">
        <ele>927.33</ele>
        <time>2020-10-29T10:36:58Z</time>
      </trkpt>
      <trkpt lat="44.18272" lon="5.72435">
        <ele>928.77</ele>
        <time>2020-10-29T10:37:13Z</time>
      </trkpt>
      <trkpt lat="44.18278" lon="5.72445">
        <ele>929.25</ele>
        <time>2020-10-29T10:37:25Z</time>
      </trkpt>
      <trkpt lat="44.18288" lon="5.72457">
        <ele>930.69</ele>
        <time>2020-10-29T10:37:41Z</time>
      </trkpt>
      <trkpt lat="44.183" lon="5.72457">
        <ele>931.65</ele>
        <time>2020-10-29T10:37:56Z</time>
      </trkpt>
      <trkpt lat="44.18309" lon="5.72449">
        <ele>933.1</ele>
        <time>2020-10-29T10:38:09Z</time>
      </trkpt>
      <trkpt lat="44.18318" lon="5.72439">
        <ele>934.06</ele>
        <time>2020-10-29T10:38:26Z</time>
      </trkpt>
      <trkpt lat="44.18318" lon="5.72441">
        <ele>934.06</ele>
        <time>2020-10-29T10:38:44Z</time>
      </trkpt>
      <trkpt lat="44.18321" lon="5.72432">
        <ele>935.5</ele>
        <time>2020-10-29T10:39:10Z</time>
      </trkpt>
      <trkpt lat="44.18323" lon="5.72424">
        <ele>935.98</ele>
        <time>2020-10-29T10:39:23Z</time>
      </trkpt>
      <trkpt lat="44.18332" lon="5.72413">
        <ele>937.42</ele>
        <time>2020-10-29T10:39:36Z</time>
      </trkpt>
      <trkpt lat="44.18337" lon="5.72403">
        <ele>939.35</ele>
        <time>2020-10-29T10:39:47Z</time>
      </trkpt>
      <trkpt lat="44.1834" lon="5.72398">
        <ele>939.35</ele>
        <time>2020-10-29T10:39:59Z</time>
      </trkpt>
      <trkpt lat="44.18346" lon="5.72394">
        <ele>940.31</ele>
        <time>2020-10-29T10:40:09Z</time>
      </trkpt>
      <trkpt lat="44.18348" lon="5.72389">
        <ele>941.27</ele>
        <time>2020-10-29T10:40:12Z</time>
      </trkpt>
      <trkpt lat="44.18358" lon="5.72379">
        <ele>942.23</ele>
        <time>2020-10-29T10:40:26Z</time>
      </trkpt>
      <trkpt lat="44.18368" lon="5.7237">
        <ele>943.67</ele>
        <time>2020-10-29T10:40:40Z</time>
      </trkpt>
      <trkpt lat="44.18378" lon="5.72364">
        <ele>945.59</ele>
        <time>2020-10-29T10:40:53Z</time>
      </trkpt>
      <trkpt lat="44.1839" lon="5.72356">
        <ele>947.04</ele>
        <time>2020-10-29T10:41:08Z</time>
      </trkpt>
      <trkpt lat="44.18397" lon="5.72346">
        <ele>948</ele>
        <time>2020-10-29T10:41:20Z</time>
      </trkpt>
      <trkpt lat="44.18399" lon="5.72342">
        <ele>948.48</ele>
        <time>2020-10-29T10:41:26Z</time>
      </trkpt>
      <trkpt lat="44.18407" lon="5.72328">
        <ele>949.92</ele>
        <time>2020-10-29T10:41:40Z</time>
      </trkpt>
      <trkpt lat="44.18413" lon="5.72317">
        <ele>951.84</ele>
        <time>2020-10-29T10:41:54Z</time>
      </trkpt>
      <trkpt lat="44.18416" lon="5.72307">
        <ele>952.8</ele>
        <time>2020-10-29T10:42:05Z</time>
      </trkpt>
      <trkpt lat="44.18421" lon="5.7229">
        <ele>953.77</ele>
        <time>2020-10-29T10:42:19Z</time>
      </trkpt>
      <trkpt lat="44.18424" lon="5.72281">
        <ele>954.73</ele>
        <time>2020-10-29T10:42:27Z</time>
      </trkpt>
      <trkpt lat="44.18434" lon="5.72269">
        <ele>956.65</ele>
        <time>2020-10-29T10:42:42Z</time>
      </trkpt>
      <trkpt lat="44.18443" lon="5.72259">
        <ele>958.57</ele>
        <time>2020-10-29T10:42:56Z</time>
      </trkpt>
      <trkpt lat="44.18445" lon="5.72254">
        <ele>958.57</ele>
        <time>2020-10-29T10:43:00Z</time>
      </trkpt>
      <trkpt lat="44.18454" lon="5.72237">
        <ele>960.49</ele>
        <time>2020-10-29T10:43:16Z</time>
      </trkpt>
      <trkpt lat="44.1846" lon="5.72229">
        <ele>961.46</ele>
        <time>2020-10-29T10:43:24Z</time>
      </trkpt>
      <trkpt lat="44.18472" lon="5.72215">
        <ele>961.94</ele>
        <time>2020-10-29T10:43:38Z</time>
      </trkpt>
      <trkpt lat="44.18479" lon="5.72205">
        <ele>963.86</ele>
        <time>2020-10-29T10:43:49Z</time>
      </trkpt>
      <trkpt lat="44.18484" lon="5.72193">
        <ele>965.78</ele>
        <time>2020-10-29T10:44:00Z</time>
      </trkpt>
      <trkpt lat="44.18486" lon="5.72189">
        <ele>965.78</ele>
        <time>2020-10-29T10:44:04Z</time>
      </trkpt>
      <trkpt lat="44.18487" lon="5.72185">
        <ele>966.26</ele>
        <time>2020-10-29T10:44:08Z</time>
      </trkpt>
      <trkpt lat="44.18489" lon="5.72183">
        <ele>966.74</ele>
        <time>2020-10-29T10:44:11Z</time>
      </trkpt>
      <trkpt lat="44.1849" lon="5.72178">
        <ele>966.74</ele>
        <time>2020-10-29T10:44:15Z</time>
      </trkpt>
      <trkpt lat="44.1849" lon="5.72171">
        <ele>967.7</ele>
        <time>2020-10-29T10:44:27Z</time>
      </trkpt>
      <trkpt lat="44.18487" lon="5.72169">
        <ele>968.18</ele>
        <time>2020-10-29T10:44:41Z</time>
      </trkpt>
      <trkpt lat="44.18486" lon="5.72163">
        <ele>969.15</ele>
        <time>2020-10-29T10:44:55Z</time>
      </trkpt>
      <trkpt lat="44.18486" lon="5.72162">
        <ele>969.15</ele>
        <time>2020-10-29T10:45:11Z</time>
      </trkpt>
      <trkpt lat="44.18486" lon="5.72163">
        <ele>968.67</ele>
        <time>2020-10-29T10:45:29Z</time>
      </trkpt>
      <trkpt lat="44.18485" lon="5.7216">
        <ele>969.63</ele>
        <time>2020-10-29T10:45:33Z</time>
      </trkpt>
      <trkpt lat="44.18482" lon="5.72155">
        <ele>970.11</ele>
        <time>2020-10-29T10:45:50Z</time>
      </trkpt>
      <trkpt lat="44.18484" lon="5.7216">
        <ele>970.11</ele>
        <time>2020-10-29T10:46:02Z</time>
      </trkpt>
      <trkpt lat="44.18486" lon="5.72163">
        <ele>970.11</ele>
        <time>2020-10-29T10:46:19Z</time>
      </trkpt>
      <trkpt lat="44.18489" lon="5.7217">
        <ele>969.15</ele>
        <time>2020-10-29T10:46:35Z</time>
      </trkpt>
      <trkpt lat="44.18488" lon="5.72167">
        <ele>969.15</ele>
        <time>2020-10-29T10:46:57Z</time>
      </trkpt>
      <trkpt lat="44.18486" lon="5.72166">
        <ele>969.63</ele>
        <time>2020-10-29T10:47:23Z</time>
      </trkpt>
      <trkpt lat="44.18482" lon="5.72156">
        <ele>970.11</ele>
        <time>2020-10-29T10:47:37Z</time>
      </trkpt>
      <trkpt lat="44.18479" lon="5.72149">
        <ele>970.59</ele>
        <time>2020-10-29T10:47:45Z</time>
      </trkpt>
      <trkpt lat="44.18478" lon="5.72145">
        <ele>971.07</ele>
        <time>2020-10-29T10:47:49Z</time>
      </trkpt>
      <trkpt lat="44.18475" lon="5.72139">
        <ele>972.03</ele>
        <time>2020-10-29T10:47:56Z</time>
      </trkpt>
      <trkpt lat="44.18474" lon="5.72129">
        <ele>973.47</ele>
        <time>2020-10-29T10:48:09Z</time>
      </trkpt>
      <trkpt lat="44.18475" lon="5.72112">
        <ele>975.39</ele>
        <time>2020-10-29T10:48:22Z</time>
      </trkpt>
      <trkpt lat="44.18479" lon="5.72099">
        <ele>977.32</ele>
        <time>2020-10-29T10:48:36Z</time>
      </trkpt>
      <trkpt lat="44.18476" lon="5.72097">
        <ele>976.84</ele>
        <time>2020-10-29T10:48:49Z</time>
      </trkpt>
      <trkpt lat="44.18472" lon="5.72089">
        <ele>975.88</ele>
        <time>2020-10-29T10:49:03Z</time>
      </trkpt>
      <trkpt lat="44.18473" lon="5.72073">
        <ele>977.8</ele>
        <time>2020-10-29T10:49:18Z</time>
      </trkpt>
      <trkpt lat="44.1847" lon="5.72056">
        <ele>979.72</ele>
        <time>2020-10-29T10:49:34Z</time>
      </trkpt>
      <trkpt lat="44.1847" lon="5.72053">
        <ele>979.72</ele>
        <time>2020-10-29T10:49:48Z</time>
      </trkpt>
      <trkpt lat="44.1847" lon="5.72052">
        <ele>979.72</ele>
        <time>2020-10-29T10:50:13Z</time>
      </trkpt>
      <trkpt lat="44.1847" lon="5.72052">
        <ele>979.24</ele>
        <time>2020-10-29T10:50:37Z</time>
      </trkpt>
      <trkpt lat="44.18473" lon="5.72053">
        <ele>979.72</ele>
        <time>2020-10-29T10:50:50Z</time>
      </trkpt>
      <trkpt lat="44.18477" lon="5.72049">
        <ele>980.2</ele>
        <time>2020-10-29T10:50:58Z</time>
      </trkpt>
      <trkpt lat="44.18475" lon="5.72044">
        <ele>981.16</ele>
        <time>2020-10-29T10:51:01Z</time>
      </trkpt>
      <trkpt lat="44.1847" lon="5.72036">
        <ele>981.64</ele>
        <time>2020-10-29T10:51:13Z</time>
      </trkpt>
      <trkpt lat="44.18469" lon="5.72034">
        <ele>981.64</ele>
        <time>2020-10-29T10:51:14Z</time>
      </trkpt>
      <trkpt lat="44.18464" lon="5.72018">
        <ele>983.09</ele>
        <time>2020-10-29T10:51:28Z</time>
      </trkpt>
      <trkpt lat="44.18461" lon="5.72005">
        <ele>983.57</ele>
        <time>2020-10-29T10:51:40Z</time>
      </trkpt>
      <trkpt lat="44.18461" lon="5.71995">
        <ele>984.53</ele>
        <time>2020-10-29T10:51:52Z</time>
      </trkpt>
      <trkpt lat="44.18463" lon="5.71982">
        <ele>985.97</ele>
        <time>2020-10-29T10:52:02Z</time>
      </trkpt>
      <trkpt lat="44.18467" lon="5.71964">
        <ele>986.45</ele>
        <time>2020-10-29T10:52:16Z</time>
      </trkpt>
      <trkpt lat="44.18472" lon="5.71954">
        <ele>986.93</ele>
        <time>2020-10-29T10:52:29Z</time>
      </trkpt>
      <trkpt lat="44.18482" lon="5.71933">
        <ele>988.37</ele>
        <time>2020-10-29T10:52:45Z</time>
      </trkpt>
      <trkpt lat="44.18485" lon="5.71915">
        <ele>988.85</ele>
        <time>2020-10-29T10:52:59Z</time>
      </trkpt>
      <trkpt lat="44.18486" lon="5.71908">
        <ele>989.81</ele>
        <time>2020-10-29T10:53:06Z</time>
      </trkpt>
      <trkpt lat="44.18486" lon="5.71891">
        <ele>991.74</ele>
        <time>2020-10-29T10:53:18Z</time>
      </trkpt>
      <trkpt lat="44.18486" lon="5.7189">
        <ele>991.74</ele>
        <time>2020-10-29T10:53:19Z</time>
      </trkpt>
      <trkpt lat="44.18488" lon="5.71876">
        <ele>993.18</ele>
        <time>2020-10-29T10:53:32Z</time>
      </trkpt>
      <trkpt lat="44.18496" lon="5.7186">
        <ele>994.62</ele>
        <time>2020-10-29T10:53:49Z</time>
      </trkpt>
      <trkpt lat="44.18502" lon="5.71849">
        <ele>995.58</ele>
        <time>2020-10-29T10:54:01Z</time>
      </trkpt>
      <trkpt lat="44.18506" lon="5.71835">
        <ele>997.51</ele>
        <time>2020-10-29T10:54:15Z</time>
      </trkpt>
      <trkpt lat="44.18513" lon="5.71821">
        <ele>999.43</ele>
        <time>2020-10-29T10:54:29Z</time>
      </trkpt>
      <trkpt lat="44.18517" lon="5.71812">
        <ele>999.91</ele>
        <time>2020-10-29T10:54:39Z</time>
      </trkpt>
      <trkpt lat="44.18521" lon="5.71805">
        <ele>1001.35</ele>
        <time>2020-10-29T10:54:52Z</time>
      </trkpt>
      <trkpt lat="44.18525" lon="5.71795">
        <ele>1001.83</ele>
        <time>2020-10-29T10:55:06Z</time>
      </trkpt>
      <trkpt lat="44.18526" lon="5.71781">
        <ele>1003.27</ele>
        <time>2020-10-29T10:55:18Z</time>
      </trkpt>
      <trkpt lat="44.18526" lon="5.71775">
        <ele>1004.23</ele>
        <time>2020-10-29T10:55:24Z</time>
      </trkpt>
      <trkpt lat="44.18527" lon="5.71766">
        <ele>1005.2</ele>
        <time>2020-10-29T10:55:31Z</time>
      </trkpt>
      <trkpt lat="44.18526" lon="5.7176">
        <ele>1005.2</ele>
        <time>2020-10-29T10:55:40Z</time>
      </trkpt>
      <trkpt lat="44.18527" lon="5.71744">
        <ele>1006.64</ele>
        <time>2020-10-29T10:55:53Z</time>
      </trkpt>
      <trkpt lat="44.18531" lon="5.7173">
        <ele>1008.56</ele>
        <time>2020-10-29T10:56:07Z</time>
      </trkpt>
      <trkpt lat="44.18531" lon="5.71725">
        <ele>1009.04</ele>
        <time>2020-10-29T10:56:20Z</time>
      </trkpt>
      <trkpt lat="44.18531" lon="5.7172">
        <ele>1009.52</ele>
        <time>2020-10-29T10:56:24Z</time>
      </trkpt>
      <trkpt lat="44.1853" lon="5.71714">
        <ele>1010</ele>
        <time>2020-10-29T10:56:31Z</time>
      </trkpt>
      <trkpt lat="44.18527" lon="5.717">
        <ele>1010.96</ele>
        <time>2020-10-29T10:56:45Z</time>
      </trkpt>
      <trkpt lat="44.18527" lon="5.71698">
        <ele>1010.96</ele>
        <time>2020-10-29T10:56:46Z</time>
      </trkpt>
      <trkpt lat="44.18526" lon="5.71695">
        <ele>1011.44</ele>
        <time>2020-10-29T10:56:49Z</time>
      </trkpt>
      <trkpt lat="44.18523" lon="5.71693">
        <ele>1011.93</ele>
        <time>2020-10-29T10:57:01Z</time>
      </trkpt>
      <trkpt lat="44.18523" lon="5.7169">
        <ele>1011.44</ele>
        <time>2020-10-29T10:57:10Z</time>
      </trkpt>
      <trkpt lat="44.18524" lon="5.71687">
        <ele>1011.93</ele>
        <time>2020-10-29T10:57:12Z</time>
      </trkpt>
      <trkpt lat="44.18523" lon="5.71684">
        <ele>1011.93</ele>
        <time>2020-10-29T10:57:15Z</time>
      </trkpt>
      <trkpt lat="44.18521" lon="5.7168">
        <ele>1012.41</ele>
        <time>2020-10-29T10:57:19Z</time>
      </trkpt>
      <trkpt lat="44.18519" lon="5.71675">
        <ele>1012.89</ele>
        <time>2020-10-29T10:57:23Z</time>
      </trkpt>
      <trkpt lat="44.18517" lon="5.71669">
        <ele>1013.85</ele>
        <time>2020-10-29T10:57:28Z</time>
      </trkpt>
      <trkpt lat="44.18514" lon="5.71652">
        <ele>1014.33</ele>
        <time>2020-10-29T10:57:40Z</time>
      </trkpt>
      <trkpt lat="44.18513" lon="5.71649">
        <ele>1014.81</ele>
        <time>2020-10-29T10:57:44Z</time>
      </trkpt>
      <trkpt lat="44.18511" lon="5.71641">
        <ele>1015.29</ele>
        <time>2020-10-29T10:57:50Z</time>
      </trkpt>
      <trkpt lat="44.1851" lon="5.71639">
        <ele>1015.77</ele>
        <time>2020-10-29T10:57:52Z</time>
      </trkpt>
      <trkpt lat="44.18504" lon="5.71625">
        <ele>1017.21</ele>
        <time>2020-10-29T10:58:05Z</time>
      </trkpt>
      <trkpt lat="44.18503" lon="5.71624">
        <ele>1017.21</ele>
        <time>2020-10-29T10:58:19Z</time>
      </trkpt>
      <trkpt lat="44.18503" lon="5.71622">
        <ele>1016.25</ele>
        <time>2020-10-29T10:58:31Z</time>
      </trkpt>
      <trkpt lat="44.18503" lon="5.71621">
        <ele>1016.25</ele>
        <time>2020-10-29T10:58:57Z</time>
      </trkpt>
      <trkpt lat="44.18503" lon="5.71625">
        <ele>1017.21</ele>
        <time>2020-10-29T10:59:22Z</time>
      </trkpt>
      <trkpt lat="44.18502" lon="5.71624">
        <ele>1016.73</ele>
        <time>2020-10-29T10:59:45Z</time>
      </trkpt>
      <trkpt lat="44.18501" lon="5.71625">
        <ele>1016.25</ele>
        <time>2020-10-29T11:00:10Z</time>
      </trkpt>
      <trkpt lat="44.18503" lon="5.71623">
        <ele>1016.73</ele>
        <time>2020-10-29T11:00:22Z</time>
      </trkpt>
      <trkpt lat="44.18504" lon="5.71625">
        <ele>1017.21</ele>
        <time>2020-10-29T11:00:36Z</time>
      </trkpt>
      <trkpt lat="44.18503" lon="5.71626">
        <ele>1017.69</ele>
        <time>2020-10-29T11:00:56Z</time>
      </trkpt>
      <trkpt lat="44.18502" lon="5.71626">
        <ele>1017.69</ele>
        <time>2020-10-29T11:01:14Z</time>
      </trkpt>
      <trkpt lat="44.18501" lon="5.71624">
        <ele>1018.17</ele>
        <time>2020-10-29T11:01:50Z</time>
      </trkpt>
      <trkpt lat="44.18501" lon="5.71625">
        <ele>1017.21</ele>
        <time>2020-10-29T11:02:33Z</time>
      </trkpt>
      <trkpt lat="44.18501" lon="5.71626">
        <ele>1017.69</ele>
        <time>2020-10-29T11:03:04Z</time>
      </trkpt>
      <trkpt lat="44.18503" lon="5.71623">
        <ele>1018.17</ele>
        <time>2020-10-29T11:03:23Z</time>
      </trkpt>
      <trkpt lat="44.18498" lon="5.71616">
        <ele>1019.62</ele>
        <time>2020-10-29T11:03:37Z</time>
      </trkpt>
      <trkpt lat="44.18495" lon="5.71607">
        <ele>1020.58</ele>
        <time>2020-10-29T11:03:48Z</time>
      </trkpt>
      <trkpt lat="44.18492" lon="5.71594">
        <ele>1022.02</ele>
        <time>2020-10-29T11:04:02Z</time>
      </trkpt>
      <trkpt lat="44.18489" lon="5.71577">
        <ele>1023.46</ele>
        <time>2020-10-29T11:04:17Z</time>
      </trkpt>
      <trkpt lat="44.18483" lon="5.7156">
        <ele>1025.38</ele>
        <time>2020-10-29T11:04:33Z</time>
      </trkpt>
      <trkpt lat="44.18482" lon="5.71544">
        <ele>1027.31</ele>
        <time>2020-10-29T11:04:48Z</time>
      </trkpt>
      <trkpt lat="44.18479" lon="5.71546">
        <ele>1027.31</ele>
        <time>2020-10-29T11:05:05Z</time>
      </trkpt>
      <trkpt lat="44.18477" lon="5.71542">
        <ele>1027.31</ele>
        <time>2020-10-29T11:05:28Z</time>
      </trkpt>
      <trkpt lat="44.18477" lon="5.71539">
        <ele>1028.27</ele>
        <time>2020-10-29T11:05:59Z</time>
      </trkpt>
      <trkpt lat="44.18477" lon="5.71541">
        <ele>1028.27</ele>
        <time>2020-10-29T11:06:23Z</time>
      </trkpt>
      <trkpt lat="44.18478" lon="5.71544">
        <ele>1027.79</ele>
        <time>2020-10-29T11:06:37Z</time>
      </trkpt>
      <trkpt lat="44.18479" lon="5.7154">
        <ele>1027.79</ele>
        <time>2020-10-29T11:07:09Z</time>
      </trkpt>
      <trkpt lat="44.18474" lon="5.71544">
        <ele>1026.83</ele>
        <time>2020-10-29T11:07:50Z</time>
      </trkpt>
      <trkpt lat="44.18479" lon="5.71545">
        <ele>1026.83</ele>
        <time>2020-10-29T11:08:30Z</time>
      </trkpt>
      <trkpt lat="44.1848" lon="5.71544">
        <ele>1026.83</ele>
        <time>2020-10-29T11:09:08Z</time>
      </trkpt>
      <trkpt lat="44.18482" lon="5.71544">
        <ele>1028.75</ele>
        <time>2020-10-29T11:09:38Z</time>
      </trkpt>
      <trkpt lat="44.18476" lon="5.71547">
        <ele>1028.75</ele>
        <time>2020-10-29T11:09:54Z</time>
      </trkpt>
      <trkpt lat="44.18471" lon="5.71546">
        <ele>1028.75</ele>
        <time>2020-10-29T11:10:07Z</time>
      </trkpt>
      <trkpt lat="44.18469" lon="5.71543">
        <ele>1028.27</ele>
        <time>2020-10-29T11:10:13Z</time>
      </trkpt>
      <trkpt lat="44.18467" lon="5.71541">
        <ele>1028.75</ele>
        <time>2020-10-29T11:10:15Z</time>
      </trkpt>
      <trkpt lat="44.18466" lon="5.71539">
        <ele>1028.75</ele>
        <time>2020-10-29T11:10:17Z</time>
      </trkpt>
      <trkpt lat="44.18461" lon="5.71525">
        <ele>1029.23</ele>
        <time>2020-10-29T11:10:28Z</time>
      </trkpt>
      <trkpt lat="44.18455" lon="5.71512">
        <ele>1029.23</ele>
        <time>2020-10-29T11:10:45Z</time>
      </trkpt>
      <trkpt lat="44.18456" lon="5.71512">
        <ele>1029.23</ele>
        <time>2020-10-29T11:11:00Z</time>
      </trkpt>
      <trkpt lat="44.18459" lon="5.71509">
        <ele>1029.71</ele>
        <time>2020-10-29T11:11:15Z</time>
      </trkpt>
      <trkpt lat="44.18461" lon="5.71508">
        <ele>1029.23</ele>
        <time>2020-10-29T11:11:47Z</time>
      </trkpt>
      <trkpt lat="44.18458" lon="5.71504">
        <ele>1030.19</ele>
        <time>2020-10-29T11:12:16Z</time>
      </trkpt>
      <trkpt lat="44.18459" lon="5.71513">
        <ele>1030.19</ele>
        <time>2020-10-29T11:12:33Z</time>
      </trkpt>
      <trkpt lat="44.18459" lon="5.71517">
        <ele>1030.19</ele>
        <time>2020-10-29T11:12:46Z</time>
      </trkpt>
      <trkpt lat="44.18457" lon="5.7151">
        <ele>1030.19</ele>
        <time>2020-10-29T11:13:00Z</time>
      </trkpt>
      <trkpt lat="44.18455" lon="5.71507">
        <ele>1030.67</ele>
        <time>2020-10-29T11:13:14Z</time>
      </trkpt>
      <trkpt lat="44.1845" lon="5.71503">
        <ele>1031.15</ele>
        <time>2020-10-29T11:13:28Z</time>
      </trkpt>
      <trkpt lat="44.18445" lon="5.71491">
        <ele>1030.19</ele>
        <time>2020-10-29T11:13:41Z</time>
      </trkpt>
      <trkpt lat="44.18433" lon="5.71472">
        <ele>1029.23</ele>
        <time>2020-10-29T11:13:59Z</time>
      </trkpt>
      <trkpt lat="44.18421" lon="5.71453">
        <ele>1030.19</ele>
        <time>2020-10-29T11:14:17Z</time>
      </trkpt>
      <trkpt lat="44.18416" lon="5.71437">
        <ele>1032.11</ele>
        <time>2020-10-29T11:14:31Z</time>
      </trkpt>
      <trkpt lat="44.18415" lon="5.71418">
        <ele>1033.55</ele>
        <time>2020-10-29T11:14:46Z</time>
      </trkpt>
      <trkpt lat="44.1841" lon="5.71403">
        <ele>1034.52</ele>
        <time>2020-10-29T11:15:00Z</time>
      </trkpt>
      <trkpt lat="44.18405" lon="5.71399">
        <ele>1035</ele>
        <time>2020-10-29T11:15:06Z</time>
      </trkpt>
      <trkpt lat="44.18394" lon="5.71385">
        <ele>1036.44</ele>
        <time>2020-10-29T11:15:22Z</time>
      </trkpt>
      <trkpt lat="44.18382" lon="5.71379">
        <ele>1037.88</ele>
        <time>2020-10-29T11:15:35Z</time>
      </trkpt>
      <trkpt lat="44.18372" lon="5.71374">
        <ele>1039.32</ele>
        <time>2020-10-29T11:15:48Z</time>
      </trkpt>
      <trkpt lat="44.18361" lon="5.71367">
        <ele>1039.32</ele>
        <time>2020-10-29T11:16:00Z</time>
      </trkpt>
      <trkpt lat="44.18353" lon="5.7136">
        <ele>1040.76</ele>
        <time>2020-10-29T11:16:15Z</time>
      </trkpt>
      <trkpt lat="44.18349" lon="5.71355">
        <ele>1042.21</ele>
        <time>2020-10-29T11:16:29Z</time>
      </trkpt>
      <trkpt lat="44.18351" lon="5.71352">
        <ele>1043.17</ele>
        <time>2020-10-29T11:16:51Z</time>
      </trkpt>
      <trkpt lat="44.18352" lon="5.71357">
        <ele>1042.69</ele>
        <time>2020-10-29T11:17:05Z</time>
      </trkpt>
      <trkpt lat="44.1835" lon="5.71354">
        <ele>1042.21</ele>
        <time>2020-10-29T11:17:27Z</time>
      </trkpt>
      <trkpt lat="44.1835" lon="5.71351">
        <ele>1042.21</ele>
        <time>2020-10-29T11:17:52Z</time>
      </trkpt>
      <trkpt lat="44.18349" lon="5.71352">
        <ele>1042.69</ele>
        <time>2020-10-29T11:18:21Z</time>
      </trkpt>
      <trkpt lat="44.18351" lon="5.71356">
        <ele>1042.21</ele>
        <time>2020-10-29T11:18:33Z</time>
      </trkpt>
      <trkpt lat="44.18352" lon="5.71357">
        <ele>1041.73</ele>
        <time>2020-10-29T11:18:59Z</time>
      </trkpt>
      <trkpt lat="44.18351" lon="5.71357">
        <ele>1041.73</ele>
        <time>2020-10-29T11:19:31Z</time>
      </trkpt>
      <trkpt lat="44.18347" lon="5.71358">
        <ele>1042.69</ele>
        <time>2020-10-29T11:19:41Z</time>
      </trkpt>
      <trkpt lat="44.18343" lon="5.7136">
        <ele>1043.17</ele>
        <time>2020-10-29T11:19:56Z</time>
      </trkpt>
      <trkpt lat="44.18343" lon="5.71361">
        <ele>1042.69</ele>
        <time>2020-10-29T11:20:11Z</time>
      </trkpt>
      <trkpt lat="44.18343" lon="5.71362">
        <ele>1043.17</ele>
        <time>2020-10-29T11:20:15Z</time>
      </trkpt>
      <trkpt lat="44.18341" lon="5.71363">
        <ele>1042.69</ele>
        <time>2020-10-29T11:20:17Z</time>
      </trkpt>
      <trkpt lat="44.18321" lon="5.71368">
        <ele>1043.17</ele>
        <time>2020-10-29T11:20:35Z</time>
      </trkpt>
      <trkpt lat="44.18308" lon="5.71373">
        <ele>1043.17</ele>
        <time>2020-10-29T11:20:49Z</time>
      </trkpt>
      <trkpt lat="44.18294" lon="5.71376">
        <ele>1041.73</ele>
        <time>2020-10-29T11:21:03Z</time>
      </trkpt>
      <trkpt lat="44.18281" lon="5.71382">
        <ele>1041.25</ele>
        <time>2020-10-29T11:21:18Z</time>
      </trkpt>
      <trkpt lat="44.18271" lon="5.71388">
        <ele>1040.76</ele>
        <time>2020-10-29T11:21:33Z</time>
      </trkpt>
      <trkpt lat="44.18265" lon="5.71393">
        <ele>1040.76</ele>
        <time>2020-10-29T11:21:44Z</time>
      </trkpt>
      <trkpt lat="44.18258" lon="5.71401">
        <ele>1041.25</ele>
        <time>2020-10-29T11:21:53Z</time>
      </trkpt>
      <trkpt lat="44.18245" lon="5.71415">
        <ele>1040.28</ele>
        <time>2020-10-29T11:22:08Z</time>
      </trkpt>
      <trkpt lat="44.18233" lon="5.71424">
        <ele>1040.28</ele>
        <time>2020-10-29T11:22:24Z</time>
      </trkpt>
      <trkpt lat="44.18225" lon="5.71427">
        <ele>1041.25</ele>
        <time>2020-10-29T11:22:36Z</time>
      </trkpt>
      <trkpt lat="44.18219" lon="5.71428">
        <ele>1041.25</ele>
        <time>2020-10-29T11:22:52Z</time>
      </trkpt>
      <trkpt lat="44.1821" lon="5.7143">
        <ele>1040.28</ele>
        <time>2020-10-29T11:23:06Z</time>
      </trkpt>
      <trkpt lat="44.18205" lon="5.71429">
        <ele>1040.28</ele>
        <time>2020-10-29T11:23:11Z</time>
      </trkpt>
      <trkpt lat="44.18199" lon="5.71423">
        <ele>1040.28</ele>
        <time>2020-10-29T11:23:23Z</time>
      </trkpt>
      <trkpt lat="44.1819" lon="5.7142">
        <ele>1040.76</ele>
        <time>2020-10-29T11:23:37Z</time>
      </trkpt>
      <trkpt lat="44.18178" lon="5.71414">
        <ele>1041.25</ele>
        <time>2020-10-29T11:23:53Z</time>
      </trkpt>
      <trkpt lat="44.18166" lon="5.71415">
        <ele>1041.25</ele>
        <time>2020-10-29T11:24:09Z</time>
      </trkpt>
      <trkpt lat="44.18159" lon="5.7142">
        <ele>1041.25</ele>
        <time>2020-10-29T11:24:17Z</time>
      </trkpt>
      <trkpt lat="44.18156" lon="5.71422">
        <ele>1041.25</ele>
        <time>2020-10-29T11:24:21Z</time>
      </trkpt>
      <trkpt lat="44.18148" lon="5.71429">
        <ele>1042.21</ele>
        <time>2020-10-29T11:24:32Z</time>
      </trkpt>
      <trkpt lat="44.18137" lon="5.71443">
        <ele>1042.69</ele>
        <time>2020-10-29T11:24:47Z</time>
      </trkpt>
      <trkpt lat="44.18129" lon="5.71448">
        <ele>1044.13</ele>
        <time>2020-10-29T11:25:01Z</time>
      </trkpt>
      <trkpt lat="44.18126" lon="5.7145">
        <ele>1044.61</ele>
        <time>2020-10-29T11:25:05Z</time>
      </trkpt>
      <trkpt lat="44.1812" lon="5.71454">
        <ele>1046.53</ele>
        <time>2020-10-29T11:25:12Z</time>
      </trkpt>
      <trkpt lat="44.18116" lon="5.71459">
        <ele>1047.49</ele>
        <time>2020-10-29T11:25:26Z</time>
      </trkpt>
      <trkpt lat="44.1811" lon="5.71464">
        <ele>1048.94</ele>
        <time>2020-10-29T11:25:40Z</time>
      </trkpt>
      <trkpt lat="44.181" lon="5.71468">
        <ele>1048.45</ele>
        <time>2020-10-29T11:25:56Z</time>
      </trkpt>
      <trkpt lat="44.18099" lon="5.71477">
        <ele>1046.53</ele>
        <time>2020-10-29T11:26:14Z</time>
      </trkpt>
      <trkpt lat="44.18097" lon="5.71483">
        <ele>1047.49</ele>
        <time>2020-10-29T11:26:28Z</time>
      </trkpt>
      <trkpt lat="44.18097" lon="5.71485">
        <ele>1047.01</ele>
        <time>2020-10-29T11:26:44Z</time>
      </trkpt>
      <trkpt lat="44.18096" lon="5.7149">
        <ele>1047.97</ele>
        <time>2020-10-29T11:26:54Z</time>
      </trkpt>
      <trkpt lat="44.18096" lon="5.71491">
        <ele>1046.53</ele>
        <time>2020-10-29T11:27:02Z</time>
      </trkpt>
      <trkpt lat="44.18096" lon="5.71491">
        <ele>1046.05</ele>
        <time>2020-10-29T11:27:03Z</time>
      </trkpt>
      <trkpt lat="44.18097" lon="5.71491">
        <ele>1041.73</ele>
        <time>2020-10-29T11:27:13Z</time>
      </trkpt>
      <trkpt lat="44.18097" lon="5.71491">
        <ele>1042.21</ele>
        <time>2020-10-29T11:27:14Z</time>
      </trkpt>
      <trkpt lat="44.18103" lon="5.71491">
        <ele>1045.09</ele>
        <time>2020-10-29T11:27:41Z</time>
      </trkpt>
      <trkpt lat="44.18103" lon="5.71491">
        <ele>1044.13</ele>
        <time>2020-10-29T11:28:22Z</time>
      </trkpt>
      <trkpt lat="44.18103" lon="5.71491">
        <ele>1044.13</ele>
        <time>2020-10-29T11:28:42Z</time>
      </trkpt>
      <trkpt lat="44.18099" lon="5.7149">
        <ele>1046.05</ele>
        <time>2020-10-29T11:28:53Z</time>
      </trkpt>
      <trkpt lat="44.181" lon="5.71488">
        <ele>1047.01</ele>
        <time>2020-10-29T11:29:05Z</time>
      </trkpt>
      <trkpt lat="44.18103" lon="5.7148">
        <ele>1047.01</ele>
        <time>2020-10-29T11:29:21Z</time>
      </trkpt>
      <trkpt lat="44.18102" lon="5.71477">
        <ele>1047.01</ele>
        <time>2020-10-29T11:29:23Z</time>
      </trkpt>
      <trkpt lat="44.18101" lon="5.71465">
        <ele>1047.97</ele>
        <time>2020-10-29T11:29:37Z</time>
      </trkpt>
      <trkpt lat="44.181" lon="5.71463">
        <ele>1047.97</ele>
        <time>2020-10-29T11:29:53Z</time>
      </trkpt>
      <trkpt lat="44.18102" lon="5.71465">
        <ele>1047.97</ele>
        <time>2020-10-29T11:30:19Z</time>
      </trkpt>
      <trkpt lat="44.18102" lon="5.71467">
        <ele>1047.97</ele>
        <time>2020-10-29T11:30:28Z</time>
      </trkpt>
      <trkpt lat="44.1811" lon="5.71464">
        <ele>1048.45</ele>
        <time>2020-10-29T11:30:42Z</time>
      </trkpt>
      <trkpt lat="44.18115" lon="5.71462">
        <ele>1047.97</ele>
        <time>2020-10-29T11:30:48Z</time>
      </trkpt>
      <trkpt lat="44.18127" lon="5.71454">
        <ele>1045.57</ele>
        <time>2020-10-29T11:31:00Z</time>
      </trkpt>
      <trkpt lat="44.18134" lon="5.71448">
        <ele>1044.61</ele>
        <time>2020-10-29T11:31:11Z</time>
      </trkpt>
      <trkpt lat="44.18144" lon="5.71441">
        <ele>1042.69</ele>
        <time>2020-10-29T11:31:22Z</time>
      </trkpt>
      <trkpt lat="44.18151" lon="5.71431">
        <ele>1041.73</ele>
        <time>2020-10-29T11:31:34Z</time>
      </trkpt>
      <trkpt lat="44.1816" lon="5.71423">
        <ele>1043.17</ele>
        <time>2020-10-29T11:31:44Z</time>
      </trkpt>
      <trkpt lat="44.1817" lon="5.71414">
        <ele>1041.73</ele>
        <time>2020-10-29T11:31:56Z</time>
      </trkpt>
      <trkpt lat="44.18174" lon="5.7141">
        <ele>1041.73</ele>
        <time>2020-10-29T11:32:01Z</time>
      </trkpt>
      <trkpt lat="44.1818" lon="5.7141">
        <ele>1042.21</ele>
        <time>2020-10-29T11:32:07Z</time>
      </trkpt>
      <trkpt lat="44.18193" lon="5.71415">
        <ele>1040.76</ele>
        <time>2020-10-29T11:32:19Z</time>
      </trkpt>
      <trkpt lat="44.18194" lon="5.71416">
        <ele>1040.76</ele>
        <time>2020-10-29T11:32:20Z</time>
      </trkpt>
      <trkpt lat="44.18202" lon="5.71422">
        <ele>1040.28</ele>
        <time>2020-10-29T11:32:32Z</time>
      </trkpt>
      <trkpt lat="44.18209" lon="5.71429">
        <ele>1039.8</ele>
        <time>2020-10-29T11:32:43Z</time>
      </trkpt>
      <trkpt lat="44.1821" lon="5.71429">
        <ele>1040.28</ele>
        <time>2020-10-29T11:32:45Z</time>
      </trkpt>
      <trkpt lat="44.18214" lon="5.71429">
        <ele>1040.28</ele>
        <time>2020-10-29T11:32:50Z</time>
      </trkpt>
      <trkpt lat="44.18227" lon="5.71426">
        <ele>1040.28</ele>
        <time>2020-10-29T11:33:03Z</time>
      </trkpt>
      <trkpt lat="44.1824" lon="5.71421">
        <ele>1039.8</ele>
        <time>2020-10-29T11:33:16Z</time>
      </trkpt>
      <trkpt lat="44.18248" lon="5.71414">
        <ele>1038.84</ele>
        <time>2020-10-29T11:33:27Z</time>
      </trkpt>
      <trkpt lat="44.18257" lon="5.71398">
        <ele>1040.76</ele>
        <time>2020-10-29T11:33:40Z</time>
      </trkpt>
      <trkpt lat="44.18258" lon="5.71397">
        <ele>1040.76</ele>
        <time>2020-10-29T11:33:41Z</time>
      </trkpt>
      <trkpt lat="44.18274" lon="5.71385">
        <ele>1040.76</ele>
        <time>2020-10-29T11:33:56Z</time>
      </trkpt>
      <trkpt lat="44.18283" lon="5.71381">
        <ele>1040.76</ele>
        <time>2020-10-29T11:34:04Z</time>
      </trkpt>
      <trkpt lat="44.18289" lon="5.71378">
        <ele>1040.76</ele>
        <time>2020-10-29T11:34:09Z</time>
      </trkpt>
      <trkpt lat="44.18303" lon="5.71373">
        <ele>1041.25</ele>
        <time>2020-10-29T11:34:22Z</time>
      </trkpt>
      <trkpt lat="44.18305" lon="5.71374">
        <ele>1041.73</ele>
        <time>2020-10-29T11:34:24Z</time>
      </trkpt>
      <trkpt lat="44.18308" lon="5.71372">
        <ele>1041.25</ele>
        <time>2020-10-29T11:34:28Z</time>
      </trkpt>
      <trkpt lat="44.18312" lon="5.71371">
        <ele>1041.73</ele>
        <time>2020-10-29T11:34:33Z</time>
      </trkpt>
      <trkpt lat="44.18327" lon="5.71366">
        <ele>1042.21</ele>
        <time>2020-10-29T11:34:46Z</time>
      </trkpt>
      <trkpt lat="44.18339" lon="5.71363">
        <ele>1041.73</ele>
        <time>2020-10-29T11:34:58Z</time>
      </trkpt>
      <trkpt lat="44.18345" lon="5.71356">
        <ele>1041.25</ele>
        <time>2020-10-29T11:35:07Z</time>
      </trkpt>
      <trkpt lat="44.18346" lon="5.71355">
        <ele>1041.25</ele>
        <time>2020-10-29T11:35:09Z</time>
      </trkpt>
      <trkpt lat="44.18349" lon="5.7135">
        <ele>1041.25</ele>
        <time>2020-10-29T11:35:13Z</time>
      </trkpt>
      <trkpt lat="44.18355" lon="5.71337">
        <ele>1041.73</ele>
        <time>2020-10-29T11:35:23Z</time>
      </trkpt>
      <trkpt lat="44.18371" lon="5.7133">
        <ele>1043.65</ele>
        <time>2020-10-29T11:35:37Z</time>
      </trkpt>
      <trkpt lat="44.18376" lon="5.71327">
        <ele>1045.09</ele>
        <time>2020-10-29T11:35:52Z</time>
      </trkpt>
      <trkpt lat="44.18374" lon="5.71327">
        <ele>1044.61</ele>
        <time>2020-10-29T11:36:11Z</time>
      </trkpt>
      <trkpt lat="44.18375" lon="5.71326">
        <ele>1044.61</ele>
        <time>2020-10-29T11:36:12Z</time>
      </trkpt>
      <trkpt lat="44.18376" lon="5.71323">
        <ele>1044.13</ele>
        <time>2020-10-29T11:36:15Z</time>
      </trkpt>
      <trkpt lat="44.18388" lon="5.71312">
        <ele>1046.05</ele>
        <time>2020-10-29T11:36:28Z</time>
      </trkpt>
      <trkpt lat="44.18391" lon="5.71311">
        <ele>1046.53</ele>
        <time>2020-10-29T11:36:31Z</time>
      </trkpt>
      <trkpt lat="44.18406" lon="5.71307">
        <ele>1047.49</ele>
        <time>2020-10-29T11:36:44Z</time>
      </trkpt>
      <trkpt lat="44.18417" lon="5.71306">
        <ele>1048.45</ele>
        <time>2020-10-29T11:36:55Z</time>
      </trkpt>
      <trkpt lat="44.18433" lon="5.71311">
        <ele>1050.86</ele>
        <time>2020-10-29T11:37:09Z</time>
      </trkpt>
      <trkpt lat="44.18443" lon="5.71315">
        <ele>1052.3</ele>
        <time>2020-10-29T11:37:21Z</time>
      </trkpt>
      <trkpt lat="44.18453" lon="5.71319">
        <ele>1053.26</ele>
        <time>2020-10-29T11:37:32Z</time>
      </trkpt>
      <trkpt lat="44.18455" lon="5.71321">
        <ele>1054.22</ele>
        <time>2020-10-29T11:37:36Z</time>
      </trkpt>
      <trkpt lat="44.18464" lon="5.71323">
        <ele>1057.11</ele>
        <time>2020-10-29T11:37:45Z</time>
      </trkpt>
      <trkpt lat="44.18476" lon="5.71328">
        <ele>1058.55</ele>
        <time>2020-10-29T11:37:57Z</time>
      </trkpt>
      <trkpt lat="44.18486" lon="5.71334">
        <ele>1060.47</ele>
        <time>2020-10-29T11:38:11Z</time>
      </trkpt>
      <trkpt lat="44.18487" lon="5.71333">
        <ele>1059.99</ele>
        <time>2020-10-29T11:38:24Z</time>
      </trkpt>
      <trkpt lat="44.18492" lon="5.71335">
        <ele>1060.47</ele>
        <time>2020-10-29T11:38:33Z</time>
      </trkpt>
      <trkpt lat="44.18495" lon="5.71337">
        <ele>1060.95</ele>
        <time>2020-10-29T11:38:37Z</time>
      </trkpt>
      <trkpt lat="44.18504" lon="5.71343">
        <ele>1061.43</ele>
        <time>2020-10-29T11:38:51Z</time>
      </trkpt>
      <trkpt lat="44.18503" lon="5.71343">
        <ele>1061.43</ele>
        <time>2020-10-29T11:39:04Z</time>
      </trkpt>
      <trkpt lat="44.18504" lon="5.71342">
        <ele>1060.95</ele>
        <time>2020-10-29T11:39:15Z</time>
      </trkpt>
      <trkpt lat="44.18504" lon="5.71342">
        <ele>1060.95</ele>
        <time>2020-10-29T11:39:31Z</time>
      </trkpt>
      <trkpt lat="44.18502" lon="5.71343">
        <ele>1061.43</ele>
        <time>2020-10-29T11:39:49Z</time>
      </trkpt>
      <trkpt lat="44.18503" lon="5.71341">
        <ele>1061.91</ele>
        <time>2020-10-29T11:40:01Z</time>
      </trkpt>
      <trkpt lat="44.18505" lon="5.71334">
        <ele>1062.87</ele>
        <time>2020-10-29T11:40:11Z</time>
      </trkpt>
      <trkpt lat="44.18505" lon="5.71319">
        <ele>1065.76</ele>
        <time>2020-10-29T11:40:25Z</time>
      </trkpt>
      <trkpt lat="44.185" lon="5.71309">
        <ele>1067.2</ele>
        <time>2020-10-29T11:40:36Z</time>
      </trkpt>
      <trkpt lat="44.18494" lon="5.71298">
        <ele>1069.12</ele>
        <time>2020-10-29T11:40:48Z</time>
      </trkpt>
      <trkpt lat="44.1849" lon="5.71284">
        <ele>1071.05</ele>
        <time>2020-10-29T11:41:01Z</time>
      </trkpt>
      <trkpt lat="44.18491" lon="5.71277">
        <ele>1072.49</ele>
        <time>2020-10-29T11:41:14Z</time>
      </trkpt>
      <trkpt lat="44.18489" lon="5.71275">
        <ele>1073.45</ele>
        <time>2020-10-29T11:41:30Z</time>
      </trkpt>
      <trkpt lat="44.18486" lon="5.71279">
        <ele>1074.41</ele>
        <time>2020-10-29T11:41:51Z</time>
      </trkpt>
      <trkpt lat="44.18485" lon="5.71276">
        <ele>1073.93</ele>
        <time>2020-10-29T11:42:13Z</time>
      </trkpt>
      <trkpt lat="44.18484" lon="5.71274">
        <ele>1074.41</ele>
        <time>2020-10-29T11:42:27Z</time>
      </trkpt>
      <trkpt lat="44.18483" lon="5.71272">
        <ele>1074.89</ele>
        <time>2020-10-29T11:43:00Z</time>
      </trkpt>
      <trkpt lat="44.18483" lon="5.71274">
        <ele>1073.93</ele>
        <time>2020-10-29T11:43:17Z</time>
      </trkpt>
      <trkpt lat="44.1848" lon="5.71272">
        <ele>1073.93</ele>
        <time>2020-10-29T11:43:22Z</time>
      </trkpt>
      <trkpt lat="44.18477" lon="5.71271">
        <ele>1074.41</ele>
        <time>2020-10-29T11:43:25Z</time>
      </trkpt>
      <trkpt lat="44.18462" lon="5.71259">
        <ele>1075.37</ele>
        <time>2020-10-29T11:43:41Z</time>
      </trkpt>
      <trkpt lat="44.18461" lon="5.71257">
        <ele>1075.37</ele>
        <time>2020-10-29T11:43:43Z</time>
      </trkpt>
      <trkpt lat="44.18461" lon="5.71248">
        <ele>1075.85</ele>
        <time>2020-10-29T11:43:49Z</time>
      </trkpt>
      <trkpt lat="44.18462" lon="5.71241">
        <ele>1077.29</ele>
        <time>2020-10-29T11:44:02Z</time>
      </trkpt>
      <trkpt lat="44.18465" lon="5.71241">
        <ele>1077.29</ele>
        <time>2020-10-29T11:44:15Z</time>
      </trkpt>
      <trkpt lat="44.18466" lon="5.71238">
        <ele>1076.33</ele>
        <time>2020-10-29T11:44:29Z</time>
      </trkpt>
      <trkpt lat="44.18472" lon="5.71226">
        <ele>1077.78</ele>
        <time>2020-10-29T11:44:43Z</time>
      </trkpt>
      <trkpt lat="44.1848" lon="5.71205">
        <ele>1080.18</ele>
        <time>2020-10-29T11:44:57Z</time>
      </trkpt>
      <trkpt lat="44.1848" lon="5.71203">
        <ele>1080.66</ele>
        <time>2020-10-29T11:44:59Z</time>
      </trkpt>
      <trkpt lat="44.18479" lon="5.71182">
        <ele>1083.06</ele>
        <time>2020-10-29T11:45:13Z</time>
      </trkpt>
      <trkpt lat="44.1847" lon="5.71164">
        <ele>1084.5</ele>
        <time>2020-10-29T11:45:28Z</time>
      </trkpt>
      <trkpt lat="44.18466" lon="5.71156">
        <ele>1085.47</ele>
        <time>2020-10-29T11:45:35Z</time>
      </trkpt>
      <trkpt lat="44.18458" lon="5.71141">
        <ele>1088.83</ele>
        <time>2020-10-29T11:45:48Z</time>
      </trkpt>
      <trkpt lat="44.18454" lon="5.71135">
        <ele>1089.31</ele>
        <time>2020-10-29T11:45:55Z</time>
      </trkpt>
      <trkpt lat="44.18446" lon="5.71119">
        <ele>1089.79</ele>
        <time>2020-10-29T11:46:08Z</time>
      </trkpt>
      <trkpt lat="44.18444" lon="5.71117">
        <ele>1091.71</ele>
        <time>2020-10-29T11:46:11Z</time>
      </trkpt>
      <trkpt lat="44.18442" lon="5.71112">
        <ele>1092.2</ele>
        <time>2020-10-29T11:46:16Z</time>
      </trkpt>
      <trkpt lat="44.1844" lon="5.71107">
        <ele>1092.68</ele>
        <time>2020-10-29T11:46:20Z</time>
      </trkpt>
      <trkpt lat="44.18438" lon="5.71098">
        <ele>1093.64</ele>
        <time>2020-10-29T11:46:26Z</time>
      </trkpt>
      <trkpt lat="44.18436" lon="5.71087">
        <ele>1095.08</ele>
        <time>2020-10-29T11:46:35Z</time>
      </trkpt>
      <trkpt lat="44.18431" lon="5.71073">
        <ele>1095.08</ele>
        <time>2020-10-29T11:46:47Z</time>
      </trkpt>
      <trkpt lat="44.18428" lon="5.71062">
        <ele>1093.64</ele>
        <time>2020-10-29T11:47:00Z</time>
      </trkpt>
      <trkpt lat="44.18428" lon="5.7106">
        <ele>1094.12</ele>
        <time>2020-10-29T11:47:02Z</time>
      </trkpt>
      <trkpt lat="44.18431" lon="5.71051">
        <ele>1092.68</ele>
        <time>2020-10-29T11:47:09Z</time>
      </trkpt>
      <trkpt lat="44.18444" lon="5.71038">
        <ele>1090.27</ele>
        <time>2020-10-29T11:47:23Z</time>
      </trkpt>
      <trkpt lat="44.18452" lon="5.71016">
        <ele>1087.87</ele>
        <time>2020-10-29T11:47:38Z</time>
      </trkpt>
      <trkpt lat="44.1846" lon="5.70997">
        <ele>1086.91</ele>
        <time>2020-10-29T11:47:52Z</time>
      </trkpt>
      <trkpt lat="44.18469" lon="5.7097">
        <ele>1084.5</ele>
        <time>2020-10-29T11:48:10Z</time>
      </trkpt>
      <trkpt lat="44.1847" lon="5.70967">
        <ele>1084.02</ele>
        <time>2020-10-29T11:48:12Z</time>
      </trkpt>
      <trkpt lat="44.1847" lon="5.70963">
        <ele>1083.54</ele>
        <time>2020-10-29T11:48:17Z</time>
      </trkpt>
      <trkpt lat="44.18478" lon="5.70943">
        <ele>1082.1</ele>
        <time>2020-10-29T11:48:32Z</time>
      </trkpt>
      <trkpt lat="44.18485" lon="5.70916">
        <ele>1080.66</ele>
        <time>2020-10-29T11:48:50Z</time>
      </trkpt>
      <trkpt lat="44.18489" lon="5.70903">
        <ele>1079.7</ele>
        <time>2020-10-29T11:49:01Z</time>
      </trkpt>
      <trkpt lat="44.18489" lon="5.70883">
        <ele>1078.26</ele>
        <time>2020-10-29T11:49:14Z</time>
      </trkpt>
      <trkpt lat="44.18498" lon="5.70855">
        <ele>1077.29</ele>
        <time>2020-10-29T11:49:33Z</time>
      </trkpt>
      <trkpt lat="44.18504" lon="5.7083">
        <ele>1077.78</ele>
        <time>2020-10-29T11:49:49Z</time>
      </trkpt>
      <trkpt lat="44.18512" lon="5.70804">
        <ele>1078.26</ele>
        <time>2020-10-29T11:50:06Z</time>
      </trkpt>
      <trkpt lat="44.18522" lon="5.70785">
        <ele>1078.26</ele>
        <time>2020-10-29T11:50:20Z</time>
      </trkpt>
      <trkpt lat="44.18518" lon="5.70762">
        <ele>1078.26</ele>
        <time>2020-10-29T11:50:35Z</time>
      </trkpt>
      <trkpt lat="44.18512" lon="5.70738">
        <ele>1078.26</ele>
        <time>2020-10-29T11:50:51Z</time>
      </trkpt>
      <trkpt lat="44.18506" lon="5.70714">
        <ele>1077.78</ele>
        <time>2020-10-29T11:51:06Z</time>
      </trkpt>
      <trkpt lat="44.18506" lon="5.70684">
        <ele>1075.85</ele>
        <time>2020-10-29T11:51:24Z</time>
      </trkpt>
      <trkpt lat="44.18505" lon="5.70661">
        <ele>1074.41</ele>
        <time>2020-10-29T11:51:38Z</time>
      </trkpt>
      <trkpt lat="44.18501" lon="5.70632">
        <ele>1071.53</ele>
        <time>2020-10-29T11:51:57Z</time>
      </trkpt>
      <trkpt lat="44.18501" lon="5.70629">
        <ele>1071.05</ele>
        <time>2020-10-29T11:51:59Z</time>
      </trkpt>
      <trkpt lat="44.18497" lon="5.70615">
        <ele>1069.6</ele>
        <time>2020-10-29T11:52:08Z</time>
      </trkpt>
      <trkpt lat="44.18496" lon="5.70607">
        <ele>1068.64</ele>
        <time>2020-10-29T11:52:13Z</time>
      </trkpt>
      <trkpt lat="44.1849" lon="5.70583">
        <ele>1067.2</ele>
        <time>2020-10-29T11:52:29Z</time>
      </trkpt>
      <trkpt lat="44.18484" lon="5.70562">
        <ele>1065.76</ele>
        <time>2020-10-29T11:52:43Z</time>
      </trkpt>
      <trkpt lat="44.18482" lon="5.70537">
        <ele>1067.68</ele>
        <time>2020-10-29T11:52:58Z</time>
      </trkpt>
      <trkpt lat="44.18484" lon="5.70525">
        <ele>1066.72</ele>
        <time>2020-10-29T11:53:05Z</time>
      </trkpt>
      <trkpt lat="44.18485" lon="5.70519">
        <ele>1068.16</ele>
        <time>2020-10-29T11:53:09Z</time>
      </trkpt>
      <trkpt lat="44.18485" lon="5.70517">
        <ele>1068.16</ele>
        <time>2020-10-29T11:53:11Z</time>
      </trkpt>
      <trkpt lat="44.18489" lon="5.70511">
        <ele>1068.64</ele>
        <time>2020-10-29T11:53:15Z</time>
      </trkpt>
      <trkpt lat="44.18494" lon="5.70496">
        <ele>1070.57</ele>
        <time>2020-10-29T11:53:26Z</time>
      </trkpt>
      <trkpt lat="44.18502" lon="5.70477">
        <ele>1071.05</ele>
        <time>2020-10-29T11:53:41Z</time>
      </trkpt>
      <trkpt lat="44.18508" lon="5.70457">
        <ele>1072.01</ele>
        <time>2020-10-29T11:53:54Z</time>
      </trkpt>
      <trkpt lat="44.18511" lon="5.70454">
        <ele>1072.49</ele>
        <time>2020-10-29T11:53:56Z</time>
      </trkpt>
      <trkpt lat="44.18521" lon="5.70439">
        <ele>1072.49</ele>
        <time>2020-10-29T11:54:09Z</time>
      </trkpt>
      <trkpt lat="44.18525" lon="5.70436">
        <ele>1069.12</ele>
        <time>2020-10-29T11:54:13Z</time>
      </trkpt>
      <trkpt lat="44.18527" lon="5.70435">
        <ele>1068.16</ele>
        <time>2020-10-29T11:54:15Z</time>
      </trkpt>
      <trkpt lat="44.18538" lon="5.70429">
        <ele>1069.12</ele>
        <time>2020-10-29T11:54:26Z</time>
      </trkpt>
      <trkpt lat="44.1855" lon="5.7042">
        <ele>1066.24</ele>
        <time>2020-10-29T11:54:39Z</time>
      </trkpt>
      <trkpt lat="44.18563" lon="5.70409">
        <ele>1065.76</ele>
        <time>2020-10-29T11:54:50Z</time>
      </trkpt>
      <trkpt lat="44.18575" lon="5.70396">
        <ele>1064.8</ele>
        <time>2020-10-29T11:55:02Z</time>
      </trkpt>
      <trkpt lat="44.18582" lon="5.70389">
        <ele>1061.43</ele>
        <time>2020-10-29T11:55:10Z</time>
      </trkpt>
      <trkpt lat="44.18592" lon="5.70377">
        <ele>1059.99</ele>
        <time>2020-10-29T11:55:21Z</time>
      </trkpt>
      <trkpt lat="44.18594" lon="5.70373">
        <ele>1059.99</ele>
        <time>2020-10-29T11:55:25Z</time>
      </trkpt>
      <trkpt lat="44.18596" lon="5.70371">
        <ele>1059.51</ele>
        <time>2020-10-29T11:55:27Z</time>
      </trkpt>
      <trkpt lat="44.18596" lon="5.7037">
        <ele>1059.99</ele>
        <time>2020-10-29T11:55:28Z</time>
      </trkpt>
      <trkpt lat="44.18597" lon="5.70368">
        <ele>1059.99</ele>
        <time>2020-10-29T11:55:29Z</time>
      </trkpt>
      <trkpt lat="44.18599" lon="5.70364">
        <ele>1060.47</ele>
        <time>2020-10-29T11:55:32Z</time>
      </trkpt>
      <trkpt lat="44.186" lon="5.70363">
        <ele>1060.47</ele>
        <time>2020-10-29T11:55:33Z</time>
      </trkpt>
      <trkpt lat="44.186" lon="5.70362">
        <ele>1060.95</ele>
        <time>2020-10-29T11:55:34Z</time>
      </trkpt>
      <trkpt lat="44.18604" lon="5.70354">
        <ele>1061.43</ele>
        <time>2020-10-29T11:55:39Z</time>
      </trkpt>
      <trkpt lat="44.18605" lon="5.70352">
        <ele>1061.43</ele>
        <time>2020-10-29T11:55:40Z</time>
      </trkpt>
      <trkpt lat="44.18606" lon="5.70351">
        <ele>1061.43</ele>
        <time>2020-10-29T11:55:41Z</time>
      </trkpt>
      <trkpt lat="44.18607" lon="5.7035">
        <ele>1061.43</ele>
        <time>2020-10-29T11:55:42Z</time>
      </trkpt>
      <trkpt lat="44.1861" lon="5.70345">
        <ele>1060.47</ele>
        <time>2020-10-29T11:55:48Z</time>
      </trkpt>
      <trkpt lat="44.18612" lon="5.70344">
        <ele>1059.99</ele>
        <time>2020-10-29T11:55:49Z</time>
      </trkpt>
      <trkpt lat="44.18613" lon="5.70342">
        <ele>1059.99</ele>
        <time>2020-10-29T11:55:50Z</time>
      </trkpt>
      <trkpt lat="44.18619" lon="5.70334">
        <ele>1060.47</ele>
        <time>2020-10-29T11:56:03Z</time>
      </trkpt>
      <trkpt lat="44.1862" lon="5.7033">
        <ele>1058.55</ele>
        <time>2020-10-29T11:56:10Z</time>
      </trkpt>
      <trkpt lat="44.18627" lon="5.7032">
        <ele>1059.51</ele>
        <time>2020-10-29T11:56:18Z</time>
      </trkpt>
      <trkpt lat="44.18628" lon="5.70319">
        <ele>1058.07</ele>
        <time>2020-10-29T11:56:19Z</time>
      </trkpt>
      <trkpt lat="44.18638" lon="5.70304">
        <ele>1057.11</ele>
        <time>2020-10-29T11:56:32Z</time>
      </trkpt>
      <trkpt lat="44.18644" lon="5.70292">
        <ele>1056.15</ele>
        <time>2020-10-29T11:56:42Z</time>
      </trkpt>
      <trkpt lat="44.18643" lon="5.70274">
        <ele>1056.63</ele>
        <time>2020-10-29T11:56:55Z</time>
      </trkpt>
      <trkpt lat="44.18639" lon="5.70268">
        <ele>1055.67</ele>
        <time>2020-10-29T11:57:02Z</time>
      </trkpt>
      <trkpt lat="44.18638" lon="5.70266">
        <ele>1055.67</ele>
        <time>2020-10-29T11:57:03Z</time>
      </trkpt>
      <trkpt lat="44.18638" lon="5.70264">
        <ele>1055.18</ele>
        <time>2020-10-29T11:57:04Z</time>
      </trkpt>
      <trkpt lat="44.18634" lon="5.70246">
        <ele>1055.18</ele>
        <time>2020-10-29T11:57:16Z</time>
      </trkpt>
      <trkpt lat="44.18634" lon="5.70243">
        <ele>1054.7</ele>
        <time>2020-10-29T11:57:18Z</time>
      </trkpt>
      <trkpt lat="44.18634" lon="5.7024">
        <ele>1054.7</ele>
        <time>2020-10-29T11:57:19Z</time>
      </trkpt>
      <trkpt lat="44.18634" lon="5.70239">
        <ele>1054.7</ele>
        <time>2020-10-29T11:57:20Z</time>
      </trkpt>
      <trkpt lat="44.1863" lon="5.70223">
        <ele>1055.18</ele>
        <time>2020-10-29T11:57:31Z</time>
      </trkpt>
      <trkpt lat="44.18629" lon="5.70213">
        <ele>1053.74</ele>
        <time>2020-10-29T11:57:37Z</time>
      </trkpt>
      <trkpt lat="44.18628" lon="5.70203">
        <ele>1052.3</ele>
        <time>2020-10-29T11:57:44Z</time>
      </trkpt>
      <trkpt lat="44.18628" lon="5.70201">
        <ele>1051.34</ele>
        <time>2020-10-29T11:57:45Z</time>
      </trkpt>
      <trkpt lat="44.18628" lon="5.70199">
        <ele>1050.86</ele>
        <time>2020-10-29T11:57:46Z</time>
      </trkpt>
      <trkpt lat="44.18628" lon="5.70197">
        <ele>1050.38</ele>
        <time>2020-10-29T11:57:47Z</time>
      </trkpt>
      <trkpt lat="44.18628" lon="5.70195">
        <ele>1050.38</ele>
        <time>2020-10-29T11:57:48Z</time>
      </trkpt>
      <trkpt lat="44.18628" lon="5.70194">
        <ele>1050.38</ele>
        <time>2020-10-29T11:57:49Z</time>
      </trkpt>
      <trkpt lat="44.18629" lon="5.70192">
        <ele>1050.38</ele>
        <time>2020-10-29T11:57:50Z</time>
      </trkpt>
      <trkpt lat="44.18632" lon="5.70172">
        <ele>1051.34</ele>
        <time>2020-10-29T11:58:03Z</time>
      </trkpt>
      <trkpt lat="44.18629" lon="5.70144">
        <ele>1050.38</ele>
        <time>2020-10-29T11:58:20Z</time>
      </trkpt>
      <trkpt lat="44.18618" lon="5.70118">
        <ele>1048.94</ele>
        <time>2020-10-29T11:58:37Z</time>
      </trkpt>
      <trkpt lat="44.18612" lon="5.70094">
        <ele>1047.97</ele>
        <time>2020-10-29T11:58:52Z</time>
      </trkpt>
      <trkpt lat="44.18606" lon="5.7007">
        <ele>1047.49</ele>
        <time>2020-10-29T11:59:07Z</time>
      </trkpt>
      <trkpt lat="44.18598" lon="5.70046">
        <ele>1046.53</ele>
        <time>2020-10-29T11:59:23Z</time>
      </trkpt>
      <trkpt lat="44.18592" lon="5.70023">
        <ele>1047.01</ele>
        <time>2020-10-29T11:59:39Z</time>
      </trkpt>
      <trkpt lat="44.18584" lon="5.70006">
        <ele>1046.05</ele>
        <time>2020-10-29T11:59:53Z</time>
      </trkpt>
      <trkpt lat="44.18578" lon="5.69998">
        <ele>1047.49</ele>
        <time>2020-10-29T12:00:00Z</time>
      </trkpt>
      <trkpt lat="44.18577" lon="5.69996">
        <ele>1046.05</ele>
        <time>2020-10-29T12:00:01Z</time>
      </trkpt>
      <trkpt lat="44.18572" lon="5.69987">
        <ele>1045.57</ele>
        <time>2020-10-29T12:00:08Z</time>
      </trkpt>
      <trkpt lat="44.18571" lon="5.69983">
        <ele>1046.05</ele>
        <time>2020-10-29T12:00:11Z</time>
      </trkpt>
      <trkpt lat="44.18569" lon="5.69978">
        <ele>1046.05</ele>
        <time>2020-10-29T12:00:14Z</time>
      </trkpt>
      <trkpt lat="44.18569" lon="5.69969">
        <ele>1044.61</ele>
        <time>2020-10-29T12:00:28Z</time>
      </trkpt>
      <trkpt lat="44.18569" lon="5.69968">
        <ele>1044.13</ele>
        <time>2020-10-29T12:00:44Z</time>
      </trkpt>
      <trkpt lat="44.18569" lon="5.69968">
        <ele>1043.65</ele>
        <time>2020-10-29T12:01:04Z</time>
      </trkpt>
      <trkpt lat="44.1857" lon="5.69967">
        <ele>1043.65</ele>
        <time>2020-10-29T12:01:33Z</time>
      </trkpt>
      <trkpt lat="44.18569" lon="5.69966">
        <ele>1043.65</ele>
        <time>2020-10-29T12:01:58Z</time>
      </trkpt>
      <trkpt lat="44.1857" lon="5.6996">
        <ele>1043.17</ele>
        <time>2020-10-29T12:02:10Z</time>
      </trkpt>
      <trkpt lat="44.18572" lon="5.69957">
        <ele>1042.69</ele>
        <time>2020-10-29T12:02:18Z</time>
      </trkpt>
      <trkpt lat="44.18573" lon="5.69956">
        <ele>1042.69</ele>
        <time>2020-10-29T12:02:19Z</time>
      </trkpt>
      <trkpt lat="44.1858" lon="5.69943">
        <ele>1043.17</ele>
        <time>2020-10-29T12:02:29Z</time>
      </trkpt>
      <trkpt lat="44.18581" lon="5.69942">
        <ele>1043.17</ele>
        <time>2020-10-29T12:02:30Z</time>
      </trkpt>
      <trkpt lat="44.1859" lon="5.69924">
        <ele>1044.61</ele>
        <time>2020-10-29T12:02:45Z</time>
      </trkpt>
      <trkpt lat="44.18595" lon="5.69901">
        <ele>1044.61</ele>
        <time>2020-10-29T12:02:59Z</time>
      </trkpt>
      <trkpt lat="44.18596" lon="5.69899">
        <ele>1044.61</ele>
        <time>2020-10-29T12:03:00Z</time>
      </trkpt>
      <trkpt lat="44.18597" lon="5.69899">
        <ele>1044.61</ele>
        <time>2020-10-29T12:03:01Z</time>
      </trkpt>
      <trkpt lat="44.18605" lon="5.69888">
        <ele>1045.57</ele>
        <time>2020-10-29T12:03:10Z</time>
      </trkpt>
      <trkpt lat="44.18611" lon="5.69869">
        <ele>1047.01</ele>
        <time>2020-10-29T12:03:24Z</time>
      </trkpt>
      <trkpt lat="44.18614" lon="5.69853">
        <ele>1046.53</ele>
        <time>2020-10-29T12:03:39Z</time>
      </trkpt>
      <trkpt lat="44.18616" lon="5.6985">
        <ele>1047.97</ele>
        <time>2020-10-29T12:03:52Z</time>
      </trkpt>
      <trkpt lat="44.18617" lon="5.69846">
        <ele>1048.45</ele>
        <time>2020-10-29T12:04:20Z</time>
      </trkpt>
      <trkpt lat="44.18617" lon="5.69839">
        <ele>1049.42</ele>
        <time>2020-10-29T12:04:35Z</time>
      </trkpt>
      <trkpt lat="44.18616" lon="5.6984">
        <ele>1048.94</ele>
        <time>2020-10-29T12:04:47Z</time>
      </trkpt>
      <trkpt lat="44.18615" lon="5.69846">
        <ele>1048.45</ele>
        <time>2020-10-29T12:04:59Z</time>
      </trkpt>
      <trkpt lat="44.18617" lon="5.69842">
        <ele>1047.01</ele>
        <time>2020-10-29T12:05:18Z</time>
      </trkpt>
      <trkpt lat="44.18618" lon="5.69839">
        <ele>1046.53</ele>
        <time>2020-10-29T12:05:52Z</time>
      </trkpt>
      <trkpt lat="44.18619" lon="5.69841">
        <ele>1045.09</ele>
        <time>2020-10-29T12:06:16Z</time>
      </trkpt>
      <trkpt lat="44.18618" lon="5.69841">
        <ele>1046.53</ele>
        <time>2020-10-29T12:06:49Z</time>
      </trkpt>
      <trkpt lat="44.18615" lon="5.69835">
        <ele>1047.97</ele>
        <time>2020-10-29T12:07:27Z</time>
      </trkpt>
      <trkpt lat="44.18615" lon="5.69836">
        <ele>1049.9</ele>
        <time>2020-10-29T12:08:05Z</time>
      </trkpt>
      <trkpt lat="44.18617" lon="5.69835">
        <ele>1050.86</ele>
        <time>2020-10-29T12:08:44Z</time>
      </trkpt>
      <trkpt lat="44.18618" lon="5.69839">
        <ele>1047.49</ele>
        <time>2020-10-29T12:09:01Z</time>
      </trkpt>
      <trkpt lat="44.18618" lon="5.69841">
        <ele>1045.57</ele>
        <time>2020-10-29T12:09:36Z</time>
      </trkpt>
      <trkpt lat="44.18618" lon="5.69843">
        <ele>1046.53</ele>
        <time>2020-10-29T12:10:06Z</time>
      </trkpt>
      <trkpt lat="44.18617" lon="5.69838">
        <ele>1046.53</ele>
        <time>2020-10-29T12:10:41Z</time>
      </trkpt>
      <trkpt lat="44.18617" lon="5.69838">
        <ele>1047.01</ele>
        <time>2020-10-29T12:11:18Z</time>
      </trkpt>
      <trkpt lat="44.18619" lon="5.69838">
        <ele>1047.01</ele>
        <time>2020-10-29T12:11:49Z</time>
      </trkpt>
      <trkpt lat="44.18618" lon="5.69839">
        <ele>1047.97</ele>
        <time>2020-10-29T12:12:17Z</time>
      </trkpt>
      <trkpt lat="44.18618" lon="5.6984">
        <ele>1047.01</ele>
        <time>2020-10-29T12:12:43Z</time>
      </trkpt>
      <trkpt lat="44.18619" lon="5.69841">
        <ele>1047.01</ele>
        <time>2020-10-29T12:13:17Z</time>
      </trkpt>
      <trkpt lat="44.18618" lon="5.6984">
        <ele>1047.49</ele>
        <time>2020-10-29T12:13:50Z</time>
      </trkpt>
      <trkpt lat="44.18619" lon="5.69842">
        <ele>1047.01</ele>
        <time>2020-10-29T12:14:17Z</time>
      </trkpt>
      <trkpt lat="44.18621" lon="5.69843">
        <ele>1047.01</ele>
        <time>2020-10-29T12:14:59Z</time>
      </trkpt>
      <trkpt lat="44.18618" lon="5.69839">
        <ele>1047.01</ele>
        <time>2020-10-29T12:15:37Z</time>
      </trkpt>
      <trkpt lat="44.1862" lon="5.69841">
        <ele>1047.01</ele>
        <time>2020-10-29T12:16:21Z</time>
      </trkpt>
      <trkpt lat="44.1862" lon="5.69841">
        <ele>1047.49</ele>
        <time>2020-10-29T12:16:55Z</time>
      </trkpt>
      <trkpt lat="44.1862" lon="5.69841">
        <ele>1048.94</ele>
        <time>2020-10-29T12:17:31Z</time>
      </trkpt>
      <trkpt lat="44.1862" lon="5.69842">
        <ele>1047.97</ele>
        <time>2020-10-29T12:18:07Z</time>
      </trkpt>
      <trkpt lat="44.18621" lon="5.69842">
        <ele>1047.97</ele>
        <time>2020-10-29T12:18:43Z</time>
      </trkpt>
      <trkpt lat="44.18619" lon="5.69841">
        <ele>1047.97</ele>
        <time>2020-10-29T12:19:26Z</time>
      </trkpt>
      <trkpt lat="44.18619" lon="5.69841">
        <ele>1048.94</ele>
        <time>2020-10-29T12:20:06Z</time>
      </trkpt>
      <trkpt lat="44.1862" lon="5.69842">
        <ele>1049.42</ele>
        <time>2020-10-29T12:20:45Z</time>
      </trkpt>
      <trkpt lat="44.18619" lon="5.69842">
        <ele>1048.94</ele>
        <time>2020-10-29T12:21:25Z</time>
      </trkpt>
      <trkpt lat="44.18621" lon="5.69841">
        <ele>1047.49</ele>
        <time>2020-10-29T12:21:55Z</time>
      </trkpt>
      <trkpt lat="44.18621" lon="5.69842">
        <ele>1048.45</ele>
        <time>2020-10-29T12:22:30Z</time>
      </trkpt>
      <trkpt lat="44.18622" lon="5.69841">
        <ele>1050.38</ele>
        <time>2020-10-29T12:23:14Z</time>
      </trkpt>
      <trkpt lat="44.18623" lon="5.69842">
        <ele>1050.38</ele>
        <time>2020-10-29T12:23:51Z</time>
      </trkpt>
      <trkpt lat="44.18624" lon="5.69842">
        <ele>1049.42</ele>
        <time>2020-10-29T12:24:21Z</time>
      </trkpt>
      <trkpt lat="44.18622" lon="5.69842">
        <ele>1050.38</ele>
        <time>2020-10-29T12:24:50Z</time>
      </trkpt>
      <trkpt lat="44.18622" lon="5.69842">
        <ele>1049.9</ele>
        <time>2020-10-29T12:25:27Z</time>
      </trkpt>
      <trkpt lat="44.18623" lon="5.69844">
        <ele>1050.38</ele>
        <time>2020-10-29T12:26:01Z</time>
      </trkpt>
      <trkpt lat="44.18621" lon="5.69844">
        <ele>1050.86</ele>
        <time>2020-10-29T12:26:36Z</time>
      </trkpt>
      <trkpt lat="44.18619" lon="5.69842">
        <ele>1049.9</ele>
        <time>2020-10-29T12:27:10Z</time>
      </trkpt>
      <trkpt lat="44.18619" lon="5.69844">
        <ele>1048.45</ele>
        <time>2020-10-29T12:27:42Z</time>
      </trkpt>
      <trkpt lat="44.1862" lon="5.69842">
        <ele>1049.9</ele>
        <time>2020-10-29T12:28:13Z</time>
      </trkpt>
      <trkpt lat="44.18619" lon="5.69846">
        <ele>1050.86</ele>
        <time>2020-10-29T12:28:55Z</time>
      </trkpt>
      <trkpt lat="44.1862" lon="5.69846">
        <ele>1049.9</ele>
        <time>2020-10-29T12:29:29Z</time>
      </trkpt>
      <trkpt lat="44.18621" lon="5.6984">
        <ele>1050.38</ele>
        <time>2020-10-29T12:30:07Z</time>
      </trkpt>
      <trkpt lat="44.18619" lon="5.6984">
        <ele>1050.38</ele>
        <time>2020-10-29T12:30:50Z</time>
      </trkpt>
      <trkpt lat="44.18619" lon="5.69842">
        <ele>1050.38</ele>
        <time>2020-10-29T12:31:21Z</time>
      </trkpt>
      <trkpt lat="44.18616" lon="5.6984">
        <ele>1051.82</ele>
        <time>2020-10-29T12:31:54Z</time>
      </trkpt>
      <trkpt lat="44.1862" lon="5.69845">
        <ele>1049.42</ele>
        <time>2020-10-29T12:32:31Z</time>
      </trkpt>
      <trkpt lat="44.18619" lon="5.69844">
        <ele>1049.9</ele>
        <time>2020-10-29T12:33:19Z</time>
      </trkpt>
      <trkpt lat="44.1862" lon="5.69843">
        <ele>1049.9</ele>
        <time>2020-10-29T12:34:09Z</time>
      </trkpt>
      <trkpt lat="44.18619" lon="5.69842">
        <ele>1047.97</ele>
        <time>2020-10-29T12:34:55Z</time>
      </trkpt>
      <trkpt lat="44.18619" lon="5.69841">
        <ele>1049.42</ele>
        <time>2020-10-29T12:35:33Z</time>
      </trkpt>
      <trkpt lat="44.18619" lon="5.69842">
        <ele>1048.94</ele>
        <time>2020-10-29T12:36:13Z</time>
      </trkpt>
      <trkpt lat="44.18618" lon="5.69842">
        <ele>1047.49</ele>
        <time>2020-10-29T12:36:44Z</time>
      </trkpt>
      <trkpt lat="44.1862" lon="5.69843">
        <ele>1047.97</ele>
        <time>2020-10-29T12:37:16Z</time>
      </trkpt>
      <trkpt lat="44.1862" lon="5.69842">
        <ele>1048.94</ele>
        <time>2020-10-29T12:37:51Z</time>
      </trkpt>
      <trkpt lat="44.18621" lon="5.69842">
        <ele>1047.97</ele>
        <time>2020-10-29T12:38:26Z</time>
      </trkpt>
      <trkpt lat="44.18617" lon="5.69841">
        <ele>1047.97</ele>
        <time>2020-10-29T12:38:59Z</time>
      </trkpt>
      <trkpt lat="44.18618" lon="5.69842">
        <ele>1047.97</ele>
        <time>2020-10-29T12:39:35Z</time>
      </trkpt>
      <trkpt lat="44.1862" lon="5.69842">
        <ele>1047.97</ele>
        <time>2020-10-29T12:40:10Z</time>
      </trkpt>
      <trkpt lat="44.18623" lon="5.6984">
        <ele>1048.45</ele>
        <time>2020-10-29T12:40:41Z</time>
      </trkpt>
      <trkpt lat="44.18623" lon="5.69842">
        <ele>1048.94</ele>
        <time>2020-10-29T12:41:16Z</time>
      </trkpt>
      <trkpt lat="44.18621" lon="5.69847">
        <ele>1048.94</ele>
        <time>2020-10-29T12:41:46Z</time>
      </trkpt>
      <trkpt lat="44.18622" lon="5.69841">
        <ele>1049.42</ele>
        <time>2020-10-29T12:42:22Z</time>
      </trkpt>
      <trkpt lat="44.18619" lon="5.69842">
        <ele>1048.94</ele>
        <time>2020-10-29T12:42:49Z</time>
      </trkpt>
      <trkpt lat="44.18615" lon="5.69835">
        <ele>1047.97</ele>
        <time>2020-10-29T12:43:23Z</time>
      </trkpt>
      <trkpt lat="44.18618" lon="5.69841">
        <ele>1048.45</ele>
        <time>2020-10-29T12:43:49Z</time>
      </trkpt>
      <trkpt lat="44.18619" lon="5.69847">
        <ele>1047.97</ele>
        <time>2020-10-29T12:44:27Z</time>
      </trkpt>
      <trkpt lat="44.18617" lon="5.69846">
        <ele>1047.97</ele>
        <time>2020-10-29T12:44:43Z</time>
      </trkpt>
      <trkpt lat="44.18617" lon="5.69843">
        <ele>1048.94</ele>
        <time>2020-10-29T12:44:47Z</time>
      </trkpt>
      <trkpt lat="44.18617" lon="5.69848">
        <ele>1049.9</ele>
        <time>2020-10-29T12:44:58Z</time>
      </trkpt>
      <trkpt lat="44.18617" lon="5.69842">
        <ele>1048.94</ele>
        <time>2020-10-29T12:45:14Z</time>
      </trkpt>
      <trkpt lat="44.18617" lon="5.69831">
        <ele>1048.94</ele>
        <time>2020-10-29T12:45:27Z</time>
      </trkpt>
      <trkpt lat="44.18618" lon="5.69832">
        <ele>1049.42</ele>
        <time>2020-10-29T12:45:39Z</time>
      </trkpt>
      <trkpt lat="44.18619" lon="5.69829">
        <ele>1048.45</ele>
        <time>2020-10-29T12:45:51Z</time>
      </trkpt>
      <trkpt lat="44.18621" lon="5.69825">
        <ele>1047.49</ele>
        <time>2020-10-29T12:46:17Z</time>
      </trkpt>
      <trkpt lat="44.18619" lon="5.69827">
        <ele>1048.45</ele>
        <time>2020-10-29T12:46:47Z</time>
      </trkpt>
      <trkpt lat="44.18619" lon="5.69833">
        <ele>1049.42</ele>
        <time>2020-10-29T12:47:01Z</time>
      </trkpt>
      <trkpt lat="44.18617" lon="5.69832">
        <ele>1049.42</ele>
        <time>2020-10-29T12:47:33Z</time>
      </trkpt>
      <trkpt lat="44.18616" lon="5.6983">
        <ele>1048.94</ele>
        <time>2020-10-29T12:48:06Z</time>
      </trkpt>
      <trkpt lat="44.18618" lon="5.69827">
        <ele>1049.9</ele>
        <time>2020-10-29T12:48:27Z</time>
      </trkpt>
      <trkpt lat="44.18618" lon="5.69818">
        <ele>1049.42</ele>
        <time>2020-10-29T12:48:39Z</time>
      </trkpt>
      <trkpt lat="44.18618" lon="5.69816">
        <ele>1048.94</ele>
        <time>2020-10-29T12:48:40Z</time>
      </trkpt>
      <trkpt lat="44.18619" lon="5.69794">
        <ele>1047.01</ele>
        <time>2020-10-29T12:48:57Z</time>
      </trkpt>
      <trkpt lat="44.18618" lon="5.69791">
        <ele>1047.01</ele>
        <time>2020-10-29T12:48:59Z</time>
      </trkpt>
      <trkpt lat="44.18617" lon="5.69782">
        <ele>1047.97</ele>
        <time>2020-10-29T12:49:07Z</time>
      </trkpt>
      <trkpt lat="44.18615" lon="5.69774">
        <ele>1049.42</ele>
        <time>2020-10-29T12:49:14Z</time>
      </trkpt>
      <trkpt lat="44.18613" lon="5.69768">
        <ele>1050.86</ele>
        <time>2020-10-29T12:49:19Z</time>
      </trkpt>
      <trkpt lat="44.18612" lon="5.69758">
        <ele>1052.78</ele>
        <time>2020-10-29T12:49:26Z</time>
      </trkpt>
      <trkpt lat="44.18613" lon="5.69737">
        <ele>1053.74</ele>
        <time>2020-10-29T12:49:39Z</time>
      </trkpt>
      <trkpt lat="44.18614" lon="5.69715">
        <ele>1053.26</ele>
        <time>2020-10-29T12:49:52Z</time>
      </trkpt>
      <trkpt lat="44.18614" lon="5.69713">
        <ele>1053.74</ele>
        <time>2020-10-29T12:49:53Z</time>
      </trkpt>
      <trkpt lat="44.18615" lon="5.69706">
        <ele>1055.18</ele>
        <time>2020-10-29T12:49:58Z</time>
      </trkpt>
      <trkpt lat="44.18616" lon="5.6969">
        <ele>1057.11</ele>
        <time>2020-10-29T12:50:11Z</time>
      </trkpt>
      <trkpt lat="44.18616" lon="5.69666">
        <ele>1056.15</ele>
        <time>2020-10-29T12:50:26Z</time>
      </trkpt>
      <trkpt lat="44.18615" lon="5.69665">
        <ele>1056.63</ele>
        <time>2020-10-29T12:50:27Z</time>
      </trkpt>
      <trkpt lat="44.18609" lon="5.69647">
        <ele>1058.55</ele>
        <time>2020-10-29T12:50:42Z</time>
      </trkpt>
      <trkpt lat="44.18606" lon="5.69632">
        <ele>1061.43</ele>
        <time>2020-10-29T12:50:56Z</time>
      </trkpt>
      <trkpt lat="44.18606" lon="5.69628">
        <ele>1061.43</ele>
        <time>2020-10-29T12:51:11Z</time>
      </trkpt>
      <trkpt lat="44.18606" lon="5.6963">
        <ele>1060.95</ele>
        <time>2020-10-29T12:51:33Z</time>
      </trkpt>
      <trkpt lat="44.18602" lon="5.69635">
        <ele>1060.95</ele>
        <time>2020-10-29T12:51:46Z</time>
      </trkpt>
      <trkpt lat="44.186" lon="5.69635">
        <ele>1061.91</ele>
        <time>2020-10-29T12:52:07Z</time>
      </trkpt>
      <trkpt lat="44.186" lon="5.69636">
        <ele>1061.91</ele>
        <time>2020-10-29T12:52:31Z</time>
      </trkpt>
      <trkpt lat="44.186" lon="5.69634">
        <ele>1060.95</ele>
        <time>2020-10-29T12:53:00Z</time>
      </trkpt>
      <trkpt lat="44.18601" lon="5.69632">
        <ele>1060.95</ele>
        <time>2020-10-29T12:53:20Z</time>
      </trkpt>
      <trkpt lat="44.18601" lon="5.69636">
        <ele>1060.95</ele>
        <time>2020-10-29T12:53:37Z</time>
      </trkpt>
      <trkpt lat="44.18599" lon="5.6964">
        <ele>1060.47</ele>
        <time>2020-10-29T12:54:05Z</time>
      </trkpt>
      <trkpt lat="44.18599" lon="5.69639">
        <ele>1060.47</ele>
        <time>2020-10-29T12:54:19Z</time>
      </trkpt>
      <trkpt lat="44.18602" lon="5.69632">
        <ele>1059.99</ele>
        <time>2020-10-29T12:54:46Z</time>
      </trkpt>
      <trkpt lat="44.18603" lon="5.69632">
        <ele>1060.47</ele>
        <time>2020-10-29T12:55:06Z</time>
      </trkpt>
      <trkpt lat="44.18603" lon="5.69628">
        <ele>1060.47</ele>
        <time>2020-10-29T12:55:25Z</time>
      </trkpt>
      <trkpt lat="44.18607" lon="5.69629">
        <ele>1060.47</ele>
        <time>2020-10-29T12:55:42Z</time>
      </trkpt>
      <trkpt lat="44.18607" lon="5.69628">
        <ele>1059.51</ele>
        <time>2020-10-29T12:56:03Z</time>
      </trkpt>
      <trkpt lat="44.1861" lon="5.69625">
        <ele>1059.51</ele>
        <time>2020-10-29T12:56:15Z</time>
      </trkpt>
      <trkpt lat="44.18611" lon="5.69615">
        <ele>1059.03</ele>
        <time>2020-10-29T12:56:25Z</time>
      </trkpt>
      <trkpt lat="44.18615" lon="5.69602">
        <ele>1058.55</ele>
        <time>2020-10-29T12:56:38Z</time>
      </trkpt>
      <trkpt lat="44.18617" lon="5.69585">
        <ele>1058.07</ele>
        <time>2020-10-29T12:56:50Z</time>
      </trkpt>
      <trkpt lat="44.18616" lon="5.69583">
        <ele>1058.07</ele>
        <time>2020-10-29T12:56:51Z</time>
      </trkpt>
      <trkpt lat="44.18617" lon="5.69581">
        <ele>1058.07</ele>
        <time>2020-10-29T12:56:52Z</time>
      </trkpt>
      <trkpt lat="44.18617" lon="5.69579">
        <ele>1058.07</ele>
        <time>2020-10-29T12:56:53Z</time>
      </trkpt>
      <trkpt lat="44.18619" lon="5.6956">
        <ele>1056.63</ele>
        <time>2020-10-29T12:57:04Z</time>
      </trkpt>
      <trkpt lat="44.18621" lon="5.69548">
        <ele>1056.15</ele>
        <time>2020-10-29T12:57:12Z</time>
      </trkpt>
      <trkpt lat="44.18621" lon="5.69546">
        <ele>1055.67</ele>
        <time>2020-10-29T12:57:13Z</time>
      </trkpt>
      <trkpt lat="44.18623" lon="5.69526">
        <ele>1054.7</ele>
        <time>2020-10-29T12:57:26Z</time>
      </trkpt>
      <trkpt lat="44.18624" lon="5.69521">
        <ele>1055.18</ele>
        <time>2020-10-29T12:57:30Z</time>
      </trkpt>
      <trkpt lat="44.18625" lon="5.6952">
        <ele>1055.18</ele>
        <time>2020-10-29T12:57:31Z</time>
      </trkpt>
      <trkpt lat="44.18628" lon="5.69511">
        <ele>1055.18</ele>
        <time>2020-10-29T12:57:38Z</time>
      </trkpt>
      <trkpt lat="44.18628" lon="5.69508">
        <ele>1054.7</ele>
        <time>2020-10-29T12:57:39Z</time>
      </trkpt>
      <trkpt lat="44.18628" lon="5.69506">
        <ele>1054.7</ele>
        <time>2020-10-29T12:57:40Z</time>
      </trkpt>
      <trkpt lat="44.18628" lon="5.69505">
        <ele>1054.22</ele>
        <time>2020-10-29T12:57:41Z</time>
      </trkpt>
      <trkpt lat="44.18628" lon="5.69487">
        <ele>1050.86</ele>
        <time>2020-10-29T12:57:53Z</time>
      </trkpt>
      <trkpt lat="44.18629" lon="5.69484">
        <ele>1050.86</ele>
        <time>2020-10-29T12:57:55Z</time>
      </trkpt>
      <trkpt lat="44.1863" lon="5.69475">
        <ele>1051.82</ele>
        <time>2020-10-29T12:58:03Z</time>
      </trkpt>
      <trkpt lat="44.18631" lon="5.69473">
        <ele>1051.82</ele>
        <time>2020-10-29T12:58:04Z</time>
      </trkpt>
      <trkpt lat="44.18633" lon="5.69457">
        <ele>1051.82</ele>
        <time>2020-10-29T12:58:16Z</time>
      </trkpt>
      <trkpt lat="44.18631" lon="5.69453">
        <ele>1051.34</ele>
        <time>2020-10-29T12:58:26Z</time>
      </trkpt>
      <trkpt lat="44.18631" lon="5.69451">
        <ele>1051.34</ele>
        <time>2020-10-29T12:58:27Z</time>
      </trkpt>
      <trkpt lat="44.18631" lon="5.69449">
        <ele>1051.34</ele>
        <time>2020-10-29T12:58:28Z</time>
      </trkpt>
      <trkpt lat="44.18631" lon="5.69447">
        <ele>1051.34</ele>
        <time>2020-10-29T12:58:29Z</time>
      </trkpt>
      <trkpt lat="44.18631" lon="5.69445">
        <ele>1051.34</ele>
        <time>2020-10-29T12:58:30Z</time>
      </trkpt>
      <trkpt lat="44.18629" lon="5.6944">
        <ele>1050.38</ele>
        <time>2020-10-29T12:58:35Z</time>
      </trkpt>
      <trkpt lat="44.18623" lon="5.69426">
        <ele>1048.45</ele>
        <time>2020-10-29T12:58:46Z</time>
      </trkpt>
      <trkpt lat="44.18625" lon="5.69405">
        <ele>1047.49</ele>
        <time>2020-10-29T12:58:59Z</time>
      </trkpt>
      <trkpt lat="44.18625" lon="5.6939">
        <ele>1046.05</ele>
        <time>2020-10-29T12:59:10Z</time>
      </trkpt>
      <trkpt lat="44.18632" lon="5.69368">
        <ele>1042.69</ele>
        <time>2020-10-29T12:59:24Z</time>
      </trkpt>
      <trkpt lat="44.18636" lon="5.69349">
        <ele>1041.73</ele>
        <time>2020-10-29T12:59:35Z</time>
      </trkpt>
      <trkpt lat="44.18636" lon="5.69347">
        <ele>1041.73</ele>
        <time>2020-10-29T12:59:39Z</time>
      </trkpt>
      <trkpt lat="44.18636" lon="5.69345">
        <ele>1041.25</ele>
        <time>2020-10-29T12:59:41Z</time>
      </trkpt>
      <trkpt lat="44.18637" lon="5.69328">
        <ele>1039.32</ele>
        <time>2020-10-29T12:59:49Z</time>
      </trkpt>
      <trkpt lat="44.18637" lon="5.69324">
        <ele>1039.32</ele>
        <time>2020-10-29T12:59:53Z</time>
      </trkpt>
      <trkpt lat="44.18637" lon="5.69322">
        <ele>1038.84</ele>
        <time>2020-10-29T12:59:54Z</time>
      </trkpt>
      <trkpt lat="44.18636" lon="5.6932">
        <ele>1038.84</ele>
        <time>2020-10-29T12:59:55Z</time>
      </trkpt>
      <trkpt lat="44.18637" lon="5.69308">
        <ele>1039.32</ele>
        <time>2020-10-29T13:00:03Z</time>
      </trkpt>
      <trkpt lat="44.18637" lon="5.69306">
        <ele>1039.32</ele>
        <time>2020-10-29T13:00:04Z</time>
      </trkpt>
      <trkpt lat="44.18632" lon="5.69284">
        <ele>1037.88</ele>
        <time>2020-10-29T13:00:16Z</time>
      </trkpt>
      <trkpt lat="44.18628" lon="5.69267">
        <ele>1034.52</ele>
        <time>2020-10-29T13:00:28Z</time>
      </trkpt>
      <trkpt lat="44.18627" lon="5.69265">
        <ele>1035</ele>
        <time>2020-10-29T13:00:30Z</time>
      </trkpt>
      <trkpt lat="44.18618" lon="5.69262">
        <ele>1035.96</ele>
        <time>2020-10-29T13:00:40Z</time>
      </trkpt>
      <trkpt lat="44.18604" lon="5.69253">
        <ele>1039.32</ele>
        <time>2020-10-29T13:00:56Z</time>
      </trkpt>
      <trkpt lat="44.18596" lon="5.69251">
        <ele>1041.73</ele>
        <time>2020-10-29T13:01:06Z</time>
      </trkpt>
      <trkpt lat="44.18585" lon="5.69253">
        <ele>1043.17</ele>
        <time>2020-10-29T13:01:16Z</time>
      </trkpt>
      <trkpt lat="44.18577" lon="5.69259">
        <ele>1043.65</ele>
        <time>2020-10-29T13:01:23Z</time>
      </trkpt>
      <trkpt lat="44.18572" lon="5.69264">
        <ele>1044.13</ele>
        <time>2020-10-29T13:01:29Z</time>
      </trkpt>
      <trkpt lat="44.18555" lon="5.69271">
        <ele>1046.05</ele>
        <time>2020-10-29T13:01:46Z</time>
      </trkpt>
      <trkpt lat="44.18542" lon="5.69284">
        <ele>1046.05</ele>
        <time>2020-10-29T13:02:03Z</time>
      </trkpt>
      <trkpt lat="44.18524" lon="5.69297">
        <ele>1044.13</ele>
        <time>2020-10-29T13:02:20Z</time>
      </trkpt>
      <trkpt lat="44.18511" lon="5.69295">
        <ele>1044.13</ele>
        <time>2020-10-29T13:02:34Z</time>
      </trkpt>
      <trkpt lat="44.18508" lon="5.69297">
        <ele>1044.61</ele>
        <time>2020-10-29T13:02:38Z</time>
      </trkpt>
      <trkpt lat="44.18506" lon="5.69297">
        <ele>1044.61</ele>
        <time>2020-10-29T13:02:40Z</time>
      </trkpt>
      <trkpt lat="44.18496" lon="5.693">
        <ele>1046.05</ele>
        <time>2020-10-29T13:02:53Z</time>
      </trkpt>
      <trkpt lat="44.18494" lon="5.693">
        <ele>1045.57</ele>
        <time>2020-10-29T13:03:09Z</time>
      </trkpt>
      <trkpt lat="44.18491" lon="5.69301">
        <ele>1045.57</ele>
        <time>2020-10-29T13:03:13Z</time>
      </trkpt>
      <trkpt lat="44.18487" lon="5.69291">
        <ele>1047.49</ele>
        <time>2020-10-29T13:03:28Z</time>
      </trkpt>
      <trkpt lat="44.18478" lon="5.69297">
        <ele>1050.86</ele>
        <time>2020-10-29T13:03:44Z</time>
      </trkpt>
      <trkpt lat="44.18472" lon="5.69306">
        <ele>1052.3</ele>
        <time>2020-10-29T13:03:55Z</time>
      </trkpt>
      <trkpt lat="44.18463" lon="5.69319">
        <ele>1053.74</ele>
        <time>2020-10-29T13:04:09Z</time>
      </trkpt>
      <trkpt lat="44.18456" lon="5.69328">
        <ele>1056.63</ele>
        <time>2020-10-29T13:04:25Z</time>
      </trkpt>
      <trkpt lat="44.18451" lon="5.6934">
        <ele>1059.03</ele>
        <time>2020-10-29T13:04:40Z</time>
      </trkpt>
      <trkpt lat="44.18443" lon="5.6935">
        <ele>1060.95</ele>
        <time>2020-10-29T13:04:54Z</time>
      </trkpt>
      <trkpt lat="44.18441" lon="5.69352">
        <ele>1060.95</ele>
        <time>2020-10-29T13:04:56Z</time>
      </trkpt>
      <trkpt lat="44.18436" lon="5.69369">
        <ele>1061.91</ele>
        <time>2020-10-29T13:05:11Z</time>
      </trkpt>
      <trkpt lat="44.18435" lon="5.69371">
        <ele>1061.91</ele>
        <time>2020-10-29T13:05:13Z</time>
      </trkpt>
      <trkpt lat="44.18421" lon="5.69383">
        <ele>1063.84</ele>
        <time>2020-10-29T13:05:28Z</time>
      </trkpt>
      <trkpt lat="44.18408" lon="5.69392">
        <ele>1062.39</ele>
        <time>2020-10-29T13:05:43Z</time>
      </trkpt>
      <trkpt lat="44.18405" lon="5.69394">
        <ele>1061.43</ele>
        <time>2020-10-29T13:05:56Z</time>
      </trkpt>
      <trkpt lat="44.18406" lon="5.69395">
        <ele>1060.47</ele>
        <time>2020-10-29T13:06:10Z</time>
      </trkpt>
      <trkpt lat="44.18408" lon="5.69393">
        <ele>1061.91</ele>
        <time>2020-10-29T13:06:23Z</time>
      </trkpt>
      <trkpt lat="44.18398" lon="5.69397">
        <ele>1061.43</ele>
        <time>2020-10-29T13:06:38Z</time>
      </trkpt>
      <trkpt lat="44.18386" lon="5.69403">
        <ele>1061.91</ele>
        <time>2020-10-29T13:06:51Z</time>
      </trkpt>
      <trkpt lat="44.18379" lon="5.69404">
        <ele>1062.39</ele>
        <time>2020-10-29T13:06:59Z</time>
      </trkpt>
      <trkpt lat="44.18361" lon="5.69407">
        <ele>1062.39</ele>
        <time>2020-10-29T13:07:16Z</time>
      </trkpt>
      <trkpt lat="44.18352" lon="5.69409">
        <ele>1062.39</ele>
        <time>2020-10-29T13:07:27Z</time>
      </trkpt>
      <trkpt lat="44.18337" lon="5.69412">
        <ele>1062.87</ele>
        <time>2020-10-29T13:07:41Z</time>
      </trkpt>
      <trkpt lat="44.18331" lon="5.69412">
        <ele>1062.87</ele>
        <time>2020-10-29T13:07:47Z</time>
      </trkpt>
      <trkpt lat="44.18323" lon="5.69411">
        <ele>1062.39</ele>
        <time>2020-10-29T13:07:54Z</time>
      </trkpt>
      <trkpt lat="44.18315" lon="5.69407">
        <ele>1062.87</ele>
        <time>2020-10-29T13:08:06Z</time>
      </trkpt>
      <trkpt lat="44.18311" lon="5.69406">
        <ele>1063.36</ele>
        <time>2020-10-29T13:08:10Z</time>
      </trkpt>
      <trkpt lat="44.18297" lon="5.69405">
        <ele>1063.84</ele>
        <time>2020-10-29T13:08:24Z</time>
      </trkpt>
      <trkpt lat="44.18288" lon="5.69401">
        <ele>1064.32</ele>
        <time>2020-10-29T13:08:35Z</time>
      </trkpt>
      <trkpt lat="44.18276" lon="5.69386">
        <ele>1065.28</ele>
        <time>2020-10-29T13:08:51Z</time>
      </trkpt>
      <trkpt lat="44.18264" lon="5.69376">
        <ele>1066.24</ele>
        <time>2020-10-29T13:09:05Z</time>
      </trkpt>
      <trkpt lat="44.1825" lon="5.69368">
        <ele>1068.16</ele>
        <time>2020-10-29T13:09:21Z</time>
      </trkpt>
      <trkpt lat="44.18243" lon="5.69366">
        <ele>1070.57</ele>
        <time>2020-10-29T13:09:35Z</time>
      </trkpt>
      <trkpt lat="44.18234" lon="5.69372">
        <ele>1072.49</ele>
        <time>2020-10-29T13:09:50Z</time>
      </trkpt>
      <trkpt lat="44.18227" lon="5.69374">
        <ele>1072.01</ele>
        <time>2020-10-29T13:10:03Z</time>
      </trkpt>
      <trkpt lat="44.18218" lon="5.69378">
        <ele>1071.53</ele>
        <time>2020-10-29T13:10:19Z</time>
      </trkpt>
      <trkpt lat="44.18215" lon="5.69379">
        <ele>1071.05</ele>
        <time>2020-10-29T13:10:32Z</time>
      </trkpt>
      <trkpt lat="44.18215" lon="5.69377">
        <ele>1070.08</ele>
        <time>2020-10-29T13:10:49Z</time>
      </trkpt>
      <trkpt lat="44.18214" lon="5.69376">
        <ele>1070.57</ele>
        <time>2020-10-29T13:10:51Z</time>
      </trkpt>
      <trkpt lat="44.18215" lon="5.69371">
        <ele>1070.08</ele>
        <time>2020-10-29T13:10:55Z</time>
      </trkpt>
      <trkpt lat="44.18216" lon="5.6936">
        <ele>1069.12</ele>
        <time>2020-10-29T13:11:11Z</time>
      </trkpt>
      <trkpt lat="44.18213" lon="5.69361">
        <ele>1066.72</ele>
        <time>2020-10-29T13:11:25Z</time>
      </trkpt>
      <trkpt lat="44.18207" lon="5.69374">
        <ele>1064.8</ele>
        <time>2020-10-29T13:11:41Z</time>
      </trkpt>
      <trkpt lat="44.18204" lon="5.69371">
        <ele>1063.36</ele>
        <time>2020-10-29T13:11:55Z</time>
      </trkpt>
      <trkpt lat="44.18205" lon="5.69354">
        <ele>1060.47</ele>
        <time>2020-10-29T13:12:10Z</time>
      </trkpt>
      <trkpt lat="44.18204" lon="5.69334">
        <ele>1058.55</ele>
        <time>2020-10-29T13:12:26Z</time>
      </trkpt>
      <trkpt lat="44.18202" lon="5.69336">
        <ele>1056.63</ele>
        <time>2020-10-29T13:12:40Z</time>
      </trkpt>
      <trkpt lat="44.18197" lon="5.69347">
        <ele>1054.22</ele>
        <time>2020-10-29T13:12:58Z</time>
      </trkpt>
      <trkpt lat="44.18193" lon="5.69358">
        <ele>1052.78</ele>
        <time>2020-10-29T13:13:10Z</time>
      </trkpt>
      <trkpt lat="44.18187" lon="5.69376">
        <ele>1051.34</ele>
        <time>2020-10-29T13:13:26Z</time>
      </trkpt>
      <trkpt lat="44.18182" lon="5.69401">
        <ele>1049.42</ele>
        <time>2020-10-29T13:13:43Z</time>
      </trkpt>
      <trkpt lat="44.18178" lon="5.6941">
        <ele>1049.42</ele>
        <time>2020-10-29T13:13:50Z</time>
      </trkpt>
      <trkpt lat="44.18166" lon="5.69424">
        <ele>1047.49</ele>
        <time>2020-10-29T13:14:07Z</time>
      </trkpt>
      <trkpt lat="44.18158" lon="5.69431">
        <ele>1045.57</ele>
        <time>2020-10-29T13:14:22Z</time>
      </trkpt>
      <trkpt lat="44.18153" lon="5.69442">
        <ele>1043.65</ele>
        <time>2020-10-29T13:14:36Z</time>
      </trkpt>
      <trkpt lat="44.18148" lon="5.69457">
        <ele>1040.28</ele>
        <time>2020-10-29T13:14:51Z</time>
      </trkpt>
      <trkpt lat="44.1814" lon="5.69467">
        <ele>1037.4</ele>
        <time>2020-10-29T13:15:05Z</time>
      </trkpt>
      <trkpt lat="44.18137" lon="5.69479">
        <ele>1034.52</ele>
        <time>2020-10-29T13:15:18Z</time>
      </trkpt>
      <trkpt lat="44.18137" lon="5.69481">
        <ele>1034.04</ele>
        <time>2020-10-29T13:15:20Z</time>
      </trkpt>
      <trkpt lat="44.18134" lon="5.69497">
        <ele>1031.63</ele>
        <time>2020-10-29T13:15:32Z</time>
      </trkpt>
      <trkpt lat="44.18129" lon="5.69492">
        <ele>1030.19</ele>
        <time>2020-10-29T13:15:41Z</time>
      </trkpt>
      <trkpt lat="44.1813" lon="5.69471">
        <ele>1028.27</ele>
        <time>2020-10-29T13:15:57Z</time>
      </trkpt>
      <trkpt lat="44.1813" lon="5.69465">
        <ele>1028.27</ele>
        <time>2020-10-29T13:16:01Z</time>
      </trkpt>
      <trkpt lat="44.18132" lon="5.69445">
        <ele>1027.79</ele>
        <time>2020-10-29T13:16:15Z</time>
      </trkpt>
      <trkpt lat="44.18134" lon="5.69439">
        <ele>1027.79</ele>
        <time>2020-10-29T13:16:19Z</time>
      </trkpt>
      <trkpt lat="44.18135" lon="5.69418">
        <ele>1024.42</ele>
        <time>2020-10-29T13:16:33Z</time>
      </trkpt>
      <trkpt lat="44.18135" lon="5.69416">
        <ele>1023.94</ele>
        <time>2020-10-29T13:16:35Z</time>
      </trkpt>
      <trkpt lat="44.18135" lon="5.69414">
        <ele>1023.46</ele>
        <time>2020-10-29T13:16:37Z</time>
      </trkpt>
      <trkpt lat="44.18137" lon="5.694">
        <ele>1021.54</ele>
        <time>2020-10-29T13:16:46Z</time>
      </trkpt>
      <trkpt lat="44.18136" lon="5.69384">
        <ele>1018.17</ele>
        <time>2020-10-29T13:17:00Z</time>
      </trkpt>
      <trkpt lat="44.1814" lon="5.69364">
        <ele>1014.81</ele>
        <time>2020-10-29T13:17:16Z</time>
      </trkpt>
      <trkpt lat="44.18142" lon="5.69349">
        <ele>1012.89</ele>
        <time>2020-10-29T13:17:30Z</time>
      </trkpt>
      <trkpt lat="44.1814" lon="5.69335">
        <ele>1010.48</ele>
        <time>2020-10-29T13:17:44Z</time>
      </trkpt>
      <trkpt lat="44.18136" lon="5.69317">
        <ele>1007.6</ele>
        <time>2020-10-29T13:18:00Z</time>
      </trkpt>
      <trkpt lat="44.18131" lon="5.69309">
        <ele>1005.68</ele>
        <time>2020-10-29T13:18:09Z</time>
      </trkpt>
      <trkpt lat="44.18125" lon="5.69308">
        <ele>1003.27</ele>
        <time>2020-10-29T13:18:16Z</time>
      </trkpt>
      <trkpt lat="44.18119" lon="5.693">
        <ele>999.91</ele>
        <time>2020-10-29T13:18:26Z</time>
      </trkpt>
      <trkpt lat="44.18116" lon="5.69297">
        <ele>999.43</ele>
        <time>2020-10-29T13:18:30Z</time>
      </trkpt>
      <trkpt lat="44.18114" lon="5.69278">
        <ele>998.95</ele>
        <time>2020-10-29T13:18:45Z</time>
      </trkpt>
      <trkpt lat="44.18113" lon="5.69277">
        <ele>998.95</ele>
        <time>2020-10-29T13:18:58Z</time>
      </trkpt>
      <trkpt lat="44.18108" lon="5.6925">
        <ele>996.06</ele>
        <time>2020-10-29T13:19:16Z</time>
      </trkpt>
      <trkpt lat="44.18108" lon="5.69246">
        <ele>996.06</ele>
        <time>2020-10-29T13:19:18Z</time>
      </trkpt>
      <trkpt lat="44.18104" lon="5.69223">
        <ele>993.18</ele>
        <time>2020-10-29T13:19:32Z</time>
      </trkpt>
      <trkpt lat="44.18104" lon="5.69213">
        <ele>992.7</ele>
        <time>2020-10-29T13:19:39Z</time>
      </trkpt>
      <trkpt lat="44.18104" lon="5.69188">
        <ele>990.3</ele>
        <time>2020-10-29T13:19:56Z</time>
      </trkpt>
      <trkpt lat="44.18102" lon="5.69166">
        <ele>988.85</ele>
        <time>2020-10-29T13:20:10Z</time>
      </trkpt>
      <trkpt lat="44.18105" lon="5.6914">
        <ele>986.93</ele>
        <time>2020-10-29T13:20:26Z</time>
      </trkpt>
      <trkpt lat="44.18107" lon="5.69129">
        <ele>985.97</ele>
        <time>2020-10-29T13:20:41Z</time>
      </trkpt>
      <trkpt lat="44.18103" lon="5.69127">
        <ele>985.97</ele>
        <time>2020-10-29T13:21:04Z</time>
      </trkpt>
      <trkpt lat="44.18102" lon="5.69127">
        <ele>985.97</ele>
        <time>2020-10-29T13:21:23Z</time>
      </trkpt>
      <trkpt lat="44.18104" lon="5.69127">
        <ele>986.45</ele>
        <time>2020-10-29T13:21:44Z</time>
      </trkpt>
      <trkpt lat="44.18105" lon="5.69124">
        <ele>986.45</ele>
        <time>2020-10-29T13:22:08Z</time>
      </trkpt>
      <trkpt lat="44.18107" lon="5.69112">
        <ele>985.97</ele>
        <time>2020-10-29T13:22:24Z</time>
      </trkpt>
      <trkpt lat="44.1811" lon="5.69103">
        <ele>987.41</ele>
        <time>2020-10-29T13:22:37Z</time>
      </trkpt>
      <trkpt lat="44.18111" lon="5.69085">
        <ele>989.81</ele>
        <time>2020-10-29T13:22:53Z</time>
      </trkpt>
      <trkpt lat="44.18111" lon="5.69072">
        <ele>990.3</ele>
        <time>2020-10-29T13:23:06Z</time>
      </trkpt>
      <trkpt lat="44.18113" lon="5.69063">
        <ele>991.26</ele>
        <time>2020-10-29T13:23:18Z</time>
      </trkpt>
      <trkpt lat="44.18119" lon="5.69058">
        <ele>994.14</ele>
        <time>2020-10-29T13:23:33Z</time>
      </trkpt>
      <trkpt lat="44.1812" lon="5.69056">
        <ele>994.62</ele>
        <time>2020-10-29T13:23:35Z</time>
      </trkpt>
      <trkpt lat="44.18123" lon="5.69044">
        <ele>993.66</ele>
        <time>2020-10-29T13:23:44Z</time>
      </trkpt>
      <trkpt lat="44.18117" lon="5.69024">
        <ele>991.26</ele>
        <time>2020-10-29T13:24:02Z</time>
      </trkpt>
      <trkpt lat="44.18115" lon="5.69021">
        <ele>989.81</ele>
        <time>2020-10-29T13:24:05Z</time>
      </trkpt>
      <trkpt lat="44.18111" lon="5.6901">
        <ele>986.93</ele>
        <time>2020-10-29T13:24:16Z</time>
      </trkpt>
      <trkpt lat="44.18109" lon="5.69002">
        <ele>985.01</ele>
        <time>2020-10-29T13:24:24Z</time>
      </trkpt>
      <trkpt lat="44.18103" lon="5.68989">
        <ele>982.12</ele>
        <time>2020-10-29T13:24:37Z</time>
      </trkpt>
      <trkpt lat="44.18106" lon="5.68966">
        <ele>981.64</ele>
        <time>2020-10-29T13:24:54Z</time>
      </trkpt>
      <trkpt lat="44.1811" lon="5.68943">
        <ele>983.09</ele>
        <time>2020-10-29T13:25:11Z</time>
      </trkpt>
      <trkpt lat="44.18108" lon="5.68914">
        <ele>981.16</ele>
        <time>2020-10-29T13:25:29Z</time>
      </trkpt>
      <trkpt lat="44.18108" lon="5.68912">
        <ele>980.68</ele>
        <time>2020-10-29T13:25:31Z</time>
      </trkpt>
      <trkpt lat="44.18106" lon="5.68888">
        <ele>977.32</ele>
        <time>2020-10-29T13:25:46Z</time>
      </trkpt>
      <trkpt lat="44.18103" lon="5.68864">
        <ele>975.88</ele>
        <time>2020-10-29T13:26:02Z</time>
      </trkpt>
      <trkpt lat="44.18099" lon="5.68844">
        <ele>974.91</ele>
        <time>2020-10-29T13:26:16Z</time>
      </trkpt>
      <trkpt lat="44.18098" lon="5.68839">
        <ele>972.99</ele>
        <time>2020-10-29T13:26:19Z</time>
      </trkpt>
      <trkpt lat="44.18094" lon="5.68819">
        <ele>969.63</ele>
        <time>2020-10-29T13:26:34Z</time>
      </trkpt>
      <trkpt lat="44.18089" lon="5.688">
        <ele>966.74</ele>
        <time>2020-10-29T13:26:48Z</time>
      </trkpt>
      <trkpt lat="44.18084" lon="5.68776">
        <ele>963.86</ele>
        <time>2020-10-29T13:27:04Z</time>
      </trkpt>
      <trkpt lat="44.18081" lon="5.68761">
        <ele>960.49</ele>
        <time>2020-10-29T13:27:13Z</time>
      </trkpt>
      <trkpt lat="44.18075" lon="5.68739">
        <ele>957.61</ele>
        <time>2020-10-29T13:27:27Z</time>
      </trkpt>
      <trkpt lat="44.18072" lon="5.68716">
        <ele>954.25</ele>
        <time>2020-10-29T13:27:42Z</time>
      </trkpt>
      <trkpt lat="44.18069" lon="5.68694">
        <ele>951.36</ele>
        <time>2020-10-29T13:27:56Z</time>
      </trkpt>
      <trkpt lat="44.18067" lon="5.68674">
        <ele>948</ele>
        <time>2020-10-29T13:28:08Z</time>
      </trkpt>
      <trkpt lat="44.18065" lon="5.68655">
        <ele>945.11</ele>
        <time>2020-10-29T13:28:20Z</time>
      </trkpt>
      <trkpt lat="44.18065" lon="5.68647">
        <ele>942.71</ele>
        <time>2020-10-29T13:28:26Z</time>
      </trkpt>
      <trkpt lat="44.18065" lon="5.68631">
        <ele>942.23</ele>
        <time>2020-10-29T13:28:42Z</time>
      </trkpt>
      <trkpt lat="44.18065" lon="5.68631">
        <ele>942.23</ele>
        <time>2020-10-29T13:29:03Z</time>
      </trkpt>
      <trkpt lat="44.18066" lon="5.68632">
        <ele>942.71</ele>
        <time>2020-10-29T13:29:19Z</time>
      </trkpt>
      <trkpt lat="44.18066" lon="5.68632">
        <ele>942.71</ele>
        <time>2020-10-29T13:29:49Z</time>
      </trkpt>
      <trkpt lat="44.18067" lon="5.68629">
        <ele>942.71</ele>
        <time>2020-10-29T13:30:01Z</time>
      </trkpt>
      <trkpt lat="44.18066" lon="5.68625">
        <ele>942.23</ele>
        <time>2020-10-29T13:30:23Z</time>
      </trkpt>
      <trkpt lat="44.18067" lon="5.68603">
        <ele>940.79</ele>
        <time>2020-10-29T13:30:39Z</time>
      </trkpt>
      <trkpt lat="44.18065" lon="5.68581">
        <ele>937.9</ele>
        <time>2020-10-29T13:30:53Z</time>
      </trkpt>
      <trkpt lat="44.18064" lon="5.68561">
        <ele>934.54</ele>
        <time>2020-10-29T13:31:06Z</time>
      </trkpt>
      <trkpt lat="44.18066" lon="5.68544">
        <ele>932.14</ele>
        <time>2020-10-29T13:31:16Z</time>
      </trkpt>
      <trkpt lat="44.18068" lon="5.68535">
        <ele>930.21</ele>
        <time>2020-10-29T13:31:21Z</time>
      </trkpt>
      <trkpt lat="44.18069" lon="5.68531">
        <ele>932.14</ele>
        <time>2020-10-29T13:31:23Z</time>
      </trkpt>
      <trkpt lat="44.18071" lon="5.68506">
        <ele>930.69</ele>
        <time>2020-10-29T13:31:38Z</time>
      </trkpt>
      <trkpt lat="44.18068" lon="5.685">
        <ele>929.73</ele>
        <time>2020-10-29T13:31:42Z</time>
      </trkpt>
      <trkpt lat="44.18064" lon="5.68496">
        <ele>928.29</ele>
        <time>2020-10-29T13:31:48Z</time>
      </trkpt>
      <trkpt lat="44.1806" lon="5.68494">
        <ele>926.85</ele>
        <time>2020-10-29T13:31:52Z</time>
      </trkpt>
      <trkpt lat="44.18054" lon="5.6849">
        <ele>923.96</ele>
        <time>2020-10-29T13:31:59Z</time>
      </trkpt>
      <trkpt lat="44.18051" lon="5.6849">
        <ele>922.52</ele>
        <time>2020-10-29T13:32:03Z</time>
      </trkpt>
      <trkpt lat="44.18044" lon="5.68484">
        <ele>919.64</ele>
        <time>2020-10-29T13:32:11Z</time>
      </trkpt>
      <trkpt lat="44.1804" lon="5.68478">
        <ele>917.24</ele>
        <time>2020-10-29T13:32:17Z</time>
      </trkpt>
      <trkpt lat="44.18033" lon="5.68466">
        <ele>913.87</ele>
        <time>2020-10-29T13:32:28Z</time>
      </trkpt>
      <trkpt lat="44.18022" lon="5.68449">
        <ele>910.99</ele>
        <time>2020-10-29T13:32:41Z</time>
      </trkpt>
      <trkpt lat="44.18007" lon="5.68436">
        <ele>907.62</ele>
        <time>2020-10-29T13:32:54Z</time>
      </trkpt>
      <trkpt lat="44.18005" lon="5.6841">
        <ele>906.18</ele>
        <time>2020-10-29T13:33:10Z</time>
      </trkpt>
      <trkpt lat="44.18005" lon="5.68409">
        <ele>906.18</ele>
        <time>2020-10-29T13:33:11Z</time>
      </trkpt>
      <trkpt lat="44.17997" lon="5.68382">
        <ele>903.78</ele>
        <time>2020-10-29T13:33:29Z</time>
      </trkpt>
      <trkpt lat="44.17982" lon="5.68364">
        <ele>900.89</ele>
        <time>2020-10-29T13:33:44Z</time>
      </trkpt>
      <trkpt lat="44.1797" lon="5.68353">
        <ele>897.53</ele>
        <time>2020-10-29T13:33:54Z</time>
      </trkpt>
      <trkpt lat="44.17956" lon="5.68334">
        <ele>894.64</ele>
        <time>2020-10-29T13:34:10Z</time>
      </trkpt>
      <trkpt lat="44.17943" lon="5.68314">
        <ele>891.76</ele>
        <time>2020-10-29T13:34:26Z</time>
      </trkpt>
      <trkpt lat="44.17946" lon="5.68304">
        <ele>889.84</ele>
        <time>2020-10-29T13:34:32Z</time>
      </trkpt>
      <trkpt lat="44.17948" lon="5.68296">
        <ele>887.43</ele>
        <time>2020-10-29T13:34:37Z</time>
      </trkpt>
      <trkpt lat="44.17951" lon="5.68292">
        <ele>886.95</ele>
        <time>2020-10-29T13:34:52Z</time>
      </trkpt>
      <trkpt lat="44.17951" lon="5.68284">
        <ele>886.47</ele>
        <time>2020-10-29T13:35:11Z</time>
      </trkpt>
      <trkpt lat="44.17952" lon="5.68275">
        <ele>883.11</ele>
        <time>2020-10-29T13:35:20Z</time>
      </trkpt>
      <trkpt lat="44.17949" lon="5.6827">
        <ele>882.15</ele>
        <time>2020-10-29T13:35:28Z</time>
      </trkpt>
      <trkpt lat="44.17947" lon="5.68266">
        <ele>881.19</ele>
        <time>2020-10-29T13:35:32Z</time>
      </trkpt>
      <trkpt lat="44.17948" lon="5.68252">
        <ele>877.82</ele>
        <time>2020-10-29T13:35:41Z</time>
      </trkpt>
      <trkpt lat="44.17943" lon="5.68236">
        <ele>874.94</ele>
        <time>2020-10-29T13:35:51Z</time>
      </trkpt>
      <trkpt lat="44.17943" lon="5.68223">
        <ele>872.05</ele>
        <time>2020-10-29T13:36:06Z</time>
      </trkpt>
      <trkpt lat="44.17941" lon="5.68219">
        <ele>872.53</ele>
        <time>2020-10-29T13:36:22Z</time>
      </trkpt>
      <trkpt lat="44.17941" lon="5.68218">
        <ele>870.61</ele>
        <time>2020-10-29T13:36:25Z</time>
      </trkpt>
      <trkpt lat="44.17936" lon="5.68205">
        <ele>867.25</ele>
        <time>2020-10-29T13:36:36Z</time>
      </trkpt>
      <trkpt lat="44.17934" lon="5.68199">
        <ele>865.8</ele>
        <time>2020-10-29T13:36:40Z</time>
      </trkpt>
      <trkpt lat="44.17931" lon="5.68181">
        <ele>862.44</ele>
        <time>2020-10-29T13:36:50Z</time>
      </trkpt>
      <trkpt lat="44.17931" lon="5.68172">
        <ele>861</ele>
        <time>2020-10-29T13:36:55Z</time>
      </trkpt>
      <trkpt lat="44.17929" lon="5.68166">
        <ele>859.56</ele>
        <time>2020-10-29T13:36:59Z</time>
      </trkpt>
      <trkpt lat="44.17929" lon="5.68169">
        <ele>859.56</ele>
        <time>2020-10-29T13:37:09Z</time>
      </trkpt>
      <trkpt lat="44.1792" lon="5.68177">
        <ele>857.15</ele>
        <time>2020-10-29T13:37:22Z</time>
      </trkpt>
      <trkpt lat="44.17913" lon="5.68182">
        <ele>856.19</ele>
        <time>2020-10-29T13:37:29Z</time>
      </trkpt>
      <trkpt lat="44.17899" lon="5.68194">
        <ele>855.23</ele>
        <time>2020-10-29T13:37:42Z</time>
      </trkpt>
      <trkpt lat="44.17888" lon="5.68199">
        <ele>853.31</ele>
        <time>2020-10-29T13:37:56Z</time>
      </trkpt>
      <trkpt lat="44.17886" lon="5.68199">
        <ele>853.31</ele>
        <time>2020-10-29T13:37:57Z</time>
      </trkpt>
      <trkpt lat="44.17872" lon="5.6821">
        <ele>850.42</ele>
        <time>2020-10-29T13:38:11Z</time>
      </trkpt>
      <trkpt lat="44.17864" lon="5.68232">
        <ele>847.54</ele>
        <time>2020-10-29T13:38:26Z</time>
      </trkpt>
      <trkpt lat="44.17865" lon="5.68235">
        <ele>847.06</ele>
        <time>2020-10-29T13:38:28Z</time>
      </trkpt>
      <trkpt lat="44.1786" lon="5.68251">
        <ele>845.14</ele>
        <time>2020-10-29T13:38:46Z</time>
      </trkpt>
      <trkpt lat="44.17859" lon="5.68251">
        <ele>844.66</ele>
        <time>2020-10-29T13:38:58Z</time>
      </trkpt>
      <trkpt lat="44.17846" lon="5.68246">
        <ele>842.73</ele>
        <time>2020-10-29T13:39:14Z</time>
      </trkpt>
      <trkpt lat="44.17846" lon="5.68246">
        <ele>842.73</ele>
        <time>2020-10-29T13:39:16Z</time>
      </trkpt>
      <trkpt lat="44.17847" lon="5.68256">
        <ele>841.77</ele>
        <time>2020-10-29T13:39:24Z</time>
      </trkpt>
      <trkpt lat="44.17848" lon="5.68285">
        <ele>839.85</ele>
        <time>2020-10-29T13:39:41Z</time>
      </trkpt>
      <trkpt lat="44.1784" lon="5.68312">
        <ele>836.96</ele>
        <time>2020-10-29T13:40:01Z</time>
      </trkpt>
      <trkpt lat="44.17839" lon="5.68315">
        <ele>836.96</ele>
        <time>2020-10-29T13:40:03Z</time>
      </trkpt>
      <trkpt lat="44.17837" lon="5.68322">
        <ele>836.48</ele>
        <time>2020-10-29T13:40:19Z</time>
      </trkpt>
      <trkpt lat="44.17829" lon="5.68337">
        <ele>835.52</ele>
        <time>2020-10-29T13:40:32Z</time>
      </trkpt>
      <trkpt lat="44.17828" lon="5.68342">
        <ele>835.52</ele>
        <time>2020-10-29T13:40:35Z</time>
      </trkpt>
      <trkpt lat="44.1782" lon="5.68361">
        <ele>835.04</ele>
        <time>2020-10-29T13:40:52Z</time>
      </trkpt>
      <trkpt lat="44.17819" lon="5.68364">
        <ele>835.04</ele>
        <time>2020-10-29T13:40:56Z</time>
      </trkpt>
      <trkpt lat="44.17811" lon="5.68392">
        <ele>834.08</ele>
        <time>2020-10-29T13:41:15Z</time>
      </trkpt>
      <trkpt lat="44.17809" lon="5.68423">
        <ele>835.04</ele>
        <time>2020-10-29T13:41:35Z</time>
      </trkpt>
      <trkpt lat="44.17808" lon="5.68449">
        <ele>831.68</ele>
        <time>2020-10-29T13:41:53Z</time>
      </trkpt>
      <trkpt lat="44.17809" lon="5.68471">
        <ele>830.24</ele>
        <time>2020-10-29T13:42:07Z</time>
      </trkpt>
      <trkpt lat="44.17816" lon="5.68498">
        <ele>828.79</ele>
        <time>2020-10-29T13:42:25Z</time>
      </trkpt>
      <trkpt lat="44.17819" lon="5.68521">
        <ele>825.91</ele>
        <time>2020-10-29T13:42:41Z</time>
      </trkpt>
      <trkpt lat="44.17824" lon="5.68547">
        <ele>823.03</ele>
        <time>2020-10-29T13:42:58Z</time>
      </trkpt>
      <trkpt lat="44.17824" lon="5.6857">
        <ele>822.06</ele>
        <time>2020-10-29T13:43:13Z</time>
      </trkpt>
      <trkpt lat="44.17822" lon="5.68576">
        <ele>822.06</ele>
        <time>2020-10-29T13:43:17Z</time>
      </trkpt>
      <trkpt lat="44.1782" lon="5.6858">
        <ele>822.55</ele>
        <time>2020-10-29T13:43:21Z</time>
      </trkpt>
      <trkpt lat="44.17817" lon="5.6859">
        <ele>821.1</ele>
        <time>2020-10-29T13:43:27Z</time>
      </trkpt>
      <trkpt lat="44.17815" lon="5.68596">
        <ele>820.62</ele>
        <time>2020-10-29T13:43:31Z</time>
      </trkpt>
      <trkpt lat="44.17805" lon="5.68627">
        <ele>818.7</ele>
        <time>2020-10-29T13:43:50Z</time>
      </trkpt>
      <trkpt lat="44.17799" lon="5.68644">
        <ele>817.74</ele>
        <time>2020-10-29T13:44:05Z</time>
      </trkpt>
      <trkpt lat="44.17785" lon="5.68662">
        <ele>816.78</ele>
        <time>2020-10-29T13:44:22Z</time>
      </trkpt>
      <trkpt lat="44.17774" lon="5.68671">
        <ele>815.34</ele>
        <time>2020-10-29T13:44:38Z</time>
      </trkpt>
      <trkpt lat="44.17759" lon="5.68681">
        <ele>812.93</ele>
        <time>2020-10-29T13:44:54Z</time>
      </trkpt>
      <trkpt lat="44.17749" lon="5.687">
        <ele>810.53</ele>
        <time>2020-10-29T13:45:10Z</time>
      </trkpt>
      <trkpt lat="44.1775" lon="5.68708">
        <ele>809.09</ele>
        <time>2020-10-29T13:45:16Z</time>
      </trkpt>
      <trkpt lat="44.17748" lon="5.68723">
        <ele>809.09</ele>
        <time>2020-10-29T13:45:30Z</time>
      </trkpt>
      <trkpt lat="44.17756" lon="5.68748">
        <ele>805.72</ele>
        <time>2020-10-29T13:45:46Z</time>
      </trkpt>
      <trkpt lat="44.17756" lon="5.6877">
        <ele>804.28</ele>
        <time>2020-10-29T13:46:01Z</time>
      </trkpt>
      <trkpt lat="44.17753" lon="5.68775">
        <ele>803.32</ele>
        <time>2020-10-29T13:46:05Z</time>
      </trkpt>
      <trkpt lat="44.1774" lon="5.68796">
        <ele>801.4</ele>
        <time>2020-10-29T13:46:25Z</time>
      </trkpt>
      <trkpt lat="44.17739" lon="5.68798">
        <ele>803.32</ele>
        <time>2020-10-29T13:46:28Z</time>
      </trkpt>
      <trkpt lat="44.17736" lon="5.68822">
        <ele>800.44</ele>
        <time>2020-10-29T13:46:45Z</time>
      </trkpt>
      <trkpt lat="44.17725" lon="5.6884">
        <ele>798.99</ele>
        <time>2020-10-29T13:46:58Z</time>
      </trkpt>
      <trkpt lat="44.17713" lon="5.68855">
        <ele>798.51</ele>
        <time>2020-10-29T13:47:11Z</time>
      </trkpt>
      <trkpt lat="44.17704" lon="5.68868">
        <ele>798.51</ele>
        <time>2020-10-29T13:47:23Z</time>
      </trkpt>
      <trkpt lat="44.17694" lon="5.6888">
        <ele>798.03</ele>
        <time>2020-10-29T13:47:34Z</time>
      </trkpt>
      <trkpt lat="44.1768" lon="5.689">
        <ele>797.55</ele>
        <time>2020-10-29T13:47:49Z</time>
      </trkpt>
      <trkpt lat="44.17673" lon="5.68908">
        <ele>796.59</ele>
        <time>2020-10-29T13:48:02Z</time>
      </trkpt>
      <trkpt lat="44.17671" lon="5.68909">
        <ele>796.59</ele>
        <time>2020-10-29T13:48:05Z</time>
      </trkpt>
      <trkpt lat="44.17662" lon="5.6892">
        <ele>796.59</ele>
        <time>2020-10-29T13:48:15Z</time>
      </trkpt>
      <trkpt lat="44.17651" lon="5.68936">
        <ele>795.63</ele>
        <time>2020-10-29T13:48:27Z</time>
      </trkpt>
      <trkpt lat="44.17641" lon="5.68951">
        <ele>794.19</ele>
        <time>2020-10-29T13:48:40Z</time>
      </trkpt>
      <trkpt lat="44.1764" lon="5.68955">
        <ele>793.71</ele>
        <time>2020-10-29T13:48:44Z</time>
      </trkpt>
      <trkpt lat="44.17627" lon="5.68974">
        <ele>792.74</ele>
        <time>2020-10-29T13:48:58Z</time>
      </trkpt>
      <trkpt lat="44.17618" lon="5.68991">
        <ele>791.3</ele>
        <time>2020-10-29T13:49:10Z</time>
      </trkpt>
      <trkpt lat="44.17616" lon="5.69001">
        <ele>790.34</ele>
        <time>2020-10-29T13:49:20Z</time>
      </trkpt>
      <trkpt lat="44.17616" lon="5.6901">
        <ele>789.86</ele>
        <time>2020-10-29T13:49:26Z</time>
      </trkpt>
      <trkpt lat="44.17617" lon="5.69037">
        <ele>788.42</ele>
        <time>2020-10-29T13:49:40Z</time>
      </trkpt>
      <trkpt lat="44.17621" lon="5.69058">
        <ele>786.98</ele>
        <time>2020-10-29T13:49:56Z</time>
      </trkpt>
      <trkpt lat="44.17623" lon="5.69088">
        <ele>784.57</ele>
        <time>2020-10-29T13:50:15Z</time>
      </trkpt>
      <trkpt lat="44.17621" lon="5.69106">
        <ele>783.13</ele>
        <time>2020-10-29T13:50:28Z</time>
      </trkpt>
      <trkpt lat="44.17619" lon="5.69119">
        <ele>781.69</ele>
        <time>2020-10-29T13:50:37Z</time>
      </trkpt>
      <trkpt lat="44.17614" lon="5.69143">
        <ele>778.81</ele>
        <time>2020-10-29T13:50:55Z</time>
      </trkpt>
      <trkpt lat="44.17611" lon="5.69152">
        <ele>777.84</ele>
        <time>2020-10-29T13:51:02Z</time>
      </trkpt>
      <trkpt lat="44.17601" lon="5.69173">
        <ele>774.96</ele>
        <time>2020-10-29T13:51:20Z</time>
      </trkpt>
      <trkpt lat="44.17594" lon="5.69187">
        <ele>773.04</ele>
        <time>2020-10-29T13:51:32Z</time>
      </trkpt>
      <trkpt lat="44.17588" lon="5.69212">
        <ele>770.63</ele>
        <time>2020-10-29T13:51:50Z</time>
      </trkpt>
      <trkpt lat="44.17586" lon="5.69237">
        <ele>768.71</ele>
        <time>2020-10-29T13:52:06Z</time>
      </trkpt>
      <trkpt lat="44.1758" lon="5.69262">
        <ele>766.31</ele>
        <time>2020-10-29T13:52:23Z</time>
      </trkpt>
      <trkpt lat="44.17577" lon="5.69276">
        <ele>765.35</ele>
        <time>2020-10-29T13:52:32Z</time>
      </trkpt>
      <trkpt lat="44.17576" lon="5.69282">
        <ele>764.39</ele>
        <time>2020-10-29T13:52:36Z</time>
      </trkpt>
      <trkpt lat="44.17575" lon="5.69291">
        <ele>763.42</ele>
        <time>2020-10-29T13:52:42Z</time>
      </trkpt>
      <trkpt lat="44.17568" lon="5.69312">
        <ele>761.5</ele>
        <time>2020-10-29T13:52:57Z</time>
      </trkpt>
      <trkpt lat="44.17562" lon="5.69339">
        <ele>759.1</ele>
        <time>2020-10-29T13:53:13Z</time>
      </trkpt>
      <trkpt lat="44.17554" lon="5.69372">
        <ele>756.69</ele>
        <time>2020-10-29T13:53:34Z</time>
      </trkpt>
      <trkpt lat="44.17547" lon="5.69397">
        <ele>754.77</ele>
        <time>2020-10-29T13:53:51Z</time>
      </trkpt>
      <trkpt lat="44.17539" lon="5.69424">
        <ele>752.37</ele>
        <time>2020-10-29T13:54:10Z</time>
      </trkpt>
      <trkpt lat="44.17533" lon="5.69449">
        <ele>750.45</ele>
        <time>2020-10-29T13:54:27Z</time>
      </trkpt>
      <trkpt lat="44.17528" lon="5.69472">
        <ele>748.52</ele>
        <time>2020-10-29T13:54:43Z</time>
      </trkpt>
      <trkpt lat="44.17523" lon="5.695">
        <ele>745.64</ele>
        <time>2020-10-29T13:55:01Z</time>
      </trkpt>
      <trkpt lat="44.17517" lon="5.69526">
        <ele>742.76</ele>
        <time>2020-10-29T13:55:19Z</time>
      </trkpt>
      <trkpt lat="44.17509" lon="5.69557">
        <ele>739.87</ele>
        <time>2020-10-29T13:55:40Z</time>
      </trkpt>
      <trkpt lat="44.17502" lon="5.69584">
        <ele>737.47</ele>
        <time>2020-10-29T13:55:58Z</time>
      </trkpt>
      <trkpt lat="44.17495" lon="5.69606">
        <ele>735.55</ele>
        <time>2020-10-29T13:56:14Z</time>
      </trkpt>
      <trkpt lat="44.17487" lon="5.69632">
        <ele>733.14</ele>
        <time>2020-10-29T13:56:32Z</time>
      </trkpt>
      <trkpt lat="44.17484" lon="5.69647">
        <ele>732.18</ele>
        <time>2020-10-29T13:56:48Z</time>
      </trkpt>
      <trkpt lat="44.1748" lon="5.69663">
        <ele>731.22</ele>
        <time>2020-10-29T13:57:03Z</time>
      </trkpt>
      <trkpt lat="44.17473" lon="5.69683">
        <ele>728.82</ele>
        <time>2020-10-29T13:57:17Z</time>
      </trkpt>
      <trkpt lat="44.17469" lon="5.6969">
        <ele>728.34</ele>
        <time>2020-10-29T13:57:23Z</time>
      </trkpt>
      <trkpt lat="44.17467" lon="5.69695">
        <ele>727.86</ele>
        <time>2020-10-29T13:57:26Z</time>
      </trkpt>
      <trkpt lat="44.17464" lon="5.69705">
        <ele>726.41</ele>
        <time>2020-10-29T13:57:33Z</time>
      </trkpt>
      <trkpt lat="44.17462" lon="5.69713">
        <ele>725.93</ele>
        <time>2020-10-29T13:57:38Z</time>
      </trkpt>
      <trkpt lat="44.17457" lon="5.69728">
        <ele>724.01</ele>
        <time>2020-10-29T13:57:48Z</time>
      </trkpt>
      <trkpt lat="44.17452" lon="5.69731">
        <ele>723.53</ele>
        <time>2020-10-29T13:57:53Z</time>
      </trkpt>
      <trkpt lat="44.17446" lon="5.69719">
        <ele>722.57</ele>
        <time>2020-10-29T13:58:02Z</time>
      </trkpt>
      <trkpt lat="44.17439" lon="5.69687">
        <ele>720.16</ele>
        <time>2020-10-29T13:58:22Z</time>
      </trkpt>
      <trkpt lat="44.1743" lon="5.69648">
        <ele>717.28</ele>
        <time>2020-10-29T13:58:46Z</time>
      </trkpt>
      <trkpt lat="44.17423" lon="5.69636">
        <ele>716.32</ele>
        <time>2020-10-29T13:58:56Z</time>
      </trkpt>
      <trkpt lat="44.1742" lon="5.6964">
        <ele>715.84</ele>
        <time>2020-10-29T13:59:11Z</time>
      </trkpt>
      <trkpt lat="44.1742" lon="5.69641">
        <ele>715.84</ele>
        <time>2020-10-29T13:59:17Z</time>
      </trkpt>
      <trkpt lat="44.17423" lon="5.69654">
        <ele>713.92</ele>
        <time>2020-10-29T13:59:25Z</time>
      </trkpt>
      <trkpt lat="44.17424" lon="5.69678">
        <ele>710.55</ele>
        <time>2020-10-29T13:59:41Z</time>
      </trkpt>
      <trkpt lat="44.17424" lon="5.69692">
        <ele>710.07</ele>
        <time>2020-10-29T13:59:52Z</time>
      </trkpt>
      <trkpt lat="44.17423" lon="5.69715">
        <ele>707.67</ele>
        <time>2020-10-29T14:00:08Z</time>
      </trkpt>
      <trkpt lat="44.17422" lon="5.69716">
        <ele>707.67</ele>
        <time>2020-10-29T14:00:12Z</time>
      </trkpt>
      <trkpt lat="44.17416" lon="5.69746">
        <ele>704.3</ele>
        <time>2020-10-29T14:00:31Z</time>
      </trkpt>
      <trkpt lat="44.17414" lon="5.69754">
        <ele>703.82</ele>
        <time>2020-10-29T14:00:36Z</time>
      </trkpt>
      <trkpt lat="44.17413" lon="5.69757">
        <ele>703.34</ele>
        <time>2020-10-29T14:00:38Z</time>
      </trkpt>
      <trkpt lat="44.17405" lon="5.69775">
        <ele>700.46</ele>
        <time>2020-10-29T14:00:52Z</time>
      </trkpt>
      <trkpt lat="44.17404" lon="5.69778">
        <ele>699.98</ele>
        <time>2020-10-29T14:00:54Z</time>
      </trkpt>
      <trkpt lat="44.17402" lon="5.69792">
        <ele>699.02</ele>
        <time>2020-10-29T14:01:07Z</time>
      </trkpt>
      <trkpt lat="44.17398" lon="5.69794">
        <ele>698.53</ele>
        <time>2020-10-29T14:01:14Z</time>
      </trkpt>
      <trkpt lat="44.17397" lon="5.69808">
        <ele>697.09</ele>
        <time>2020-10-29T14:01:24Z</time>
      </trkpt>
      <trkpt lat="44.17398" lon="5.69817">
        <ele>696.61</ele>
        <time>2020-10-29T14:01:38Z</time>
      </trkpt>
      <trkpt lat="44.17395" lon="5.69821">
        <ele>696.13</ele>
        <time>2020-10-29T14:01:49Z</time>
      </trkpt>
      <trkpt lat="44.17395" lon="5.69824">
        <ele>696.13</ele>
        <time>2020-10-29T14:01:51Z</time>
      </trkpt>
      <trkpt lat="44.17392" lon="5.69841">
        <ele>694.69</ele>
        <time>2020-10-29T14:02:01Z</time>
      </trkpt>
      <trkpt lat="44.17393" lon="5.69865">
        <ele>692.77</ele>
        <time>2020-10-29T14:02:16Z</time>
      </trkpt>
      <trkpt lat="44.17392" lon="5.69882">
        <ele>690.36</ele>
        <time>2020-10-29T14:02:30Z</time>
      </trkpt>
      <trkpt lat="44.17391" lon="5.69882">
        <ele>690.36</ele>
        <time>2020-10-29T14:02:33Z</time>
      </trkpt>
      <trkpt lat="44.17388" lon="5.69881">
        <ele>690.84</ele>
        <time>2020-10-29T14:02:37Z</time>
      </trkpt>
      <trkpt lat="44.17385" lon="5.69866">
        <ele>691.33</ele>
        <time>2020-10-29T14:02:51Z</time>
      </trkpt>
      <trkpt lat="44.17386" lon="5.69862">
        <ele>691.33</ele>
        <time>2020-10-29T14:03:06Z</time>
      </trkpt>
      <trkpt lat="44.17387" lon="5.6986">
        <ele>691.33</ele>
        <time>2020-10-29T14:03:23Z</time>
      </trkpt>
      <trkpt lat="44.17386" lon="5.69861">
        <ele>691.33</ele>
        <time>2020-10-29T14:03:40Z</time>
      </trkpt>
      <trkpt lat="44.17387" lon="5.6986">
        <ele>691.33</ele>
        <time>2020-10-29T14:04:00Z</time>
      </trkpt>
      <trkpt lat="44.17386" lon="5.69861">
        <ele>691.33</ele>
        <time>2020-10-29T14:04:20Z</time>
      </trkpt>
      <trkpt lat="44.17386" lon="5.69859">
        <ele>691.33</ele>
        <time>2020-10-29T14:04:38Z</time>
      </trkpt>
      <trkpt lat="44.17383" lon="5.69858">
        <ele>691.33</ele>
        <time>2020-10-29T14:04:57Z</time>
      </trkpt>
      <trkpt lat="44.17384" lon="5.69862">
        <ele>691.81</ele>
        <time>2020-10-29T14:05:19Z</time>
      </trkpt>
      <trkpt lat="44.17385" lon="5.69866">
        <ele>691.81</ele>
        <time>2020-10-29T14:05:31Z</time>
      </trkpt>
      <trkpt lat="44.17387" lon="5.69869">
        <ele>691.33</ele>
        <time>2020-10-29T14:05:34Z</time>
      </trkpt>
      <trkpt lat="44.17387" lon="5.69872">
        <ele>691.33</ele>
        <time>2020-10-29T14:05:36Z</time>
      </trkpt>
      <trkpt lat="44.17389" lon="5.69878">
        <ele>690.84</ele>
        <time>2020-10-29T14:05:41Z</time>
      </trkpt>
      <trkpt lat="44.1739" lon="5.69895">
        <ele>689.4</ele>
        <time>2020-10-29T14:05:54Z</time>
      </trkpt>
      <trkpt lat="44.17395" lon="5.69918">
        <ele>688.92</ele>
        <time>2020-10-29T14:06:08Z</time>
      </trkpt>
      <trkpt lat="44.17404" lon="5.69933">
        <ele>687.96</ele>
        <time>2020-10-29T14:06:22Z</time>
      </trkpt>
      <trkpt lat="44.17417" lon="5.69951">
        <ele>687</ele>
        <time>2020-10-29T14:06:41Z</time>
      </trkpt>
      <trkpt lat="44.17424" lon="5.69958">
        <ele>686.52</ele>
        <time>2020-10-29T14:06:58Z</time>
      </trkpt>
      <trkpt lat="44.17422" lon="5.69961">
        <ele>686.04</ele>
        <time>2020-10-29T14:07:20Z</time>
      </trkpt>
      <trkpt lat="44.17418" lon="5.69955">
        <ele>685.56</ele>
        <time>2020-10-29T14:07:39Z</time>
      </trkpt>
      <trkpt lat="44.17425" lon="5.69966">
        <ele>685.08</ele>
        <time>2020-10-29T14:08:01Z</time>
      </trkpt>
      <trkpt lat="44.17438" lon="5.69979">
        <ele>684.6</ele>
        <time>2020-10-29T14:08:15Z</time>
      </trkpt>
      <trkpt lat="44.1745" lon="5.6999">
        <ele>684.6</ele>
        <time>2020-10-29T14:08:28Z</time>
      </trkpt>
      <trkpt lat="44.17463" lon="5.70001">
        <ele>685.08</ele>
        <time>2020-10-29T14:08:42Z</time>
      </trkpt>
      <trkpt lat="44.17476" lon="5.70014">
        <ele>685.08</ele>
        <time>2020-10-29T14:08:56Z</time>
      </trkpt>
      <trkpt lat="44.1748" lon="5.70021">
        <ele>685.08</ele>
        <time>2020-10-29T14:09:02Z</time>
      </trkpt>
      <trkpt lat="44.17488" lon="5.70036">
        <ele>686.04</ele>
        <time>2020-10-29T14:09:15Z</time>
      </trkpt>
      <trkpt lat="44.17496" lon="5.70054">
        <ele>686.04</ele>
        <time>2020-10-29T14:09:27Z</time>
      </trkpt>
      <trkpt lat="44.17502" lon="5.70075">
        <ele>686.52</ele>
        <time>2020-10-29T14:09:42Z</time>
      </trkpt>
      <trkpt lat="44.17505" lon="5.70097">
        <ele>687</ele>
        <time>2020-10-29T14:09:56Z</time>
      </trkpt>
      <trkpt lat="44.17506" lon="5.70117">
        <ele>687</ele>
        <time>2020-10-29T14:10:08Z</time>
      </trkpt>
      <trkpt lat="44.17506" lon="5.70134">
        <ele>687</ele>
        <time>2020-10-29T14:10:20Z</time>
      </trkpt>
      <trkpt lat="44.17506" lon="5.70161">
        <ele>686.52</ele>
        <time>2020-10-29T14:10:35Z</time>
      </trkpt>
      <trkpt lat="44.17505" lon="5.70189">
        <ele>685.56</ele>
        <time>2020-10-29T14:10:52Z</time>
      </trkpt>
      <trkpt lat="44.175" lon="5.70208">
        <ele>684.6</ele>
        <time>2020-10-29T14:11:06Z</time>
      </trkpt>
      <trkpt lat="44.17499" lon="5.70211">
        <ele>684.6</ele>
        <time>2020-10-29T14:11:08Z</time>
      </trkpt>
      <trkpt lat="44.17498" lon="5.70222">
        <ele>684.12</ele>
        <time>2020-10-29T14:11:13Z</time>
      </trkpt>
      <trkpt lat="44.17493" lon="5.70242">
        <ele>683.63</ele>
        <time>2020-10-29T14:11:27Z</time>
      </trkpt>
      <trkpt lat="44.17491" lon="5.7026">
        <ele>683.15</ele>
        <time>2020-10-29T14:11:42Z</time>
      </trkpt>
      <trkpt lat="44.17488" lon="5.70283">
        <ele>683.15</ele>
        <time>2020-10-29T14:11:55Z</time>
      </trkpt>
      <trkpt lat="44.17485" lon="5.70306">
        <ele>682.67</ele>
        <time>2020-10-29T14:12:10Z</time>
      </trkpt>
      <trkpt lat="44.17486" lon="5.70336">
        <ele>682.67</ele>
        <time>2020-10-29T14:12:27Z</time>
      </trkpt>
      <trkpt lat="44.17486" lon="5.70358">
        <ele>681.71</ele>
        <time>2020-10-29T14:12:41Z</time>
      </trkpt>
      <trkpt lat="44.17483" lon="5.70383">
        <ele>680.27</ele>
        <time>2020-10-29T14:12:56Z</time>
      </trkpt>
      <trkpt lat="44.17478" lon="5.70409">
        <ele>679.79</ele>
        <time>2020-10-29T14:13:11Z</time>
      </trkpt>
      <trkpt lat="44.17473" lon="5.7043">
        <ele>679.31</ele>
        <time>2020-10-29T14:13:25Z</time>
      </trkpt>
      <trkpt lat="44.17471" lon="5.70458">
        <ele>678.83</ele>
        <time>2020-10-29T14:13:40Z</time>
      </trkpt>
      <trkpt lat="44.17469" lon="5.70486">
        <ele>678.35</ele>
        <time>2020-10-29T14:13:55Z</time>
      </trkpt>
      <trkpt lat="44.17467" lon="5.70494">
        <ele>677.87</ele>
        <time>2020-10-29T14:14:01Z</time>
      </trkpt>
      <trkpt lat="44.17465" lon="5.70523">
        <ele>677.87</ele>
        <time>2020-10-29T14:14:17Z</time>
      </trkpt>
      <trkpt lat="44.17465" lon="5.70554">
        <ele>677.39</ele>
        <time>2020-10-29T14:14:34Z</time>
      </trkpt>
      <trkpt lat="44.17466" lon="5.70566">
        <ele>676.91</ele>
        <time>2020-10-29T14:14:45Z</time>
      </trkpt>
      <trkpt lat="44.17468" lon="5.70569">
        <ele>676.91</ele>
        <time>2020-10-29T14:15:03Z</time>
      </trkpt>
      <trkpt lat="44.17462" lon="5.70577">
        <ele>676.42</ele>
        <time>2020-10-29T14:15:10Z</time>
      </trkpt>
      <trkpt lat="44.1744" lon="5.70586">
        <ele>675.46</ele>
        <time>2020-10-29T14:15:27Z</time>
      </trkpt>
      <trkpt lat="44.17422" lon="5.70592">
        <ele>674.5</ele>
        <time>2020-10-29T14:15:43Z</time>
      </trkpt>
      <trkpt lat="44.17403" lon="5.70597">
        <ele>673.54</ele>
        <time>2020-10-29T14:16:01Z</time>
      </trkpt>
      <trkpt lat="44.17398" lon="5.70596">
        <ele>673.54</ele>
        <time>2020-10-29T14:16:07Z</time>
      </trkpt>
      <trkpt lat="44.17391" lon="5.70583">
        <ele>673.54</ele>
        <time>2020-10-29T14:16:26Z</time>
      </trkpt>
      <trkpt lat="44.17392" lon="5.70581">
        <ele>673.54</ele>
        <time>2020-10-29T14:16:59Z</time>
      </trkpt>
      <trkpt lat="44.17392" lon="5.7058">
        <ele>673.54</ele>
        <time>2020-10-29T14:17:22Z</time>
      </trkpt>
      <trkpt lat="44.17391" lon="5.70583">
        <ele>673.54</ele>
        <time>2020-10-29T14:17:49Z</time>
      </trkpt>
      <trkpt lat="44.17391" lon="5.70584">
        <ele>673.54</ele>
        <time>2020-10-29T14:18:06Z</time>
      </trkpt>
      <trkpt lat="44.1739" lon="5.70585">
        <ele>674.5</ele>
        <time>2020-10-29T14:18:43Z</time>
      </trkpt>
      <trkpt lat="44.17389" lon="5.70584">
        <ele>673.06</ele>
        <time>2020-10-29T14:19:05Z</time>
      </trkpt>
      <trkpt lat="44.17389" lon="5.70586">
        <ele>673.06</ele>
        <time>2020-10-29T14:19:14Z</time>
      </trkpt>
      <trkpt lat="44.17387" lon="5.70585">
        <ele>673.06</ele>
        <time>2020-10-29T14:19:16Z</time>
      </trkpt>
      <trkpt lat="44.17372" lon="5.70569">
        <ele>672.58</ele>
        <time>2020-10-29T14:19:34Z</time>
      </trkpt>
      <trkpt lat="44.17362" lon="5.70562">
        <ele>672.58</ele>
        <time>2020-10-29T14:19:50Z</time>
      </trkpt>
      <trkpt lat="44.17355" lon="5.70559">
        <ele>672.1</ele>
        <time>2020-10-29T14:20:06Z</time>
      </trkpt>
      <trkpt lat="44.17338" lon="5.70548">
        <ele>672.58</ele>
        <time>2020-10-29T14:20:24Z</time>
      </trkpt>
      <trkpt lat="44.1732" lon="5.70537">
        <ele>673.06</ele>
        <time>2020-10-29T14:20:41Z</time>
      </trkpt>
      <trkpt lat="44.17311" lon="5.70529">
        <ele>673.54</ele>
        <time>2020-10-29T14:20:50Z</time>
      </trkpt>
      <trkpt lat="44.17307" lon="5.70523">
        <ele>674.02</ele>
        <time>2020-10-29T14:21:03Z</time>
      </trkpt>
      <trkpt lat="44.17298" lon="5.70509">
        <ele>674.5</ele>
        <time>2020-10-29T14:21:16Z</time>
      </trkpt>
      <trkpt lat="44.17295" lon="5.70485">
        <ele>675.46</ele>
        <time>2020-10-29T14:21:31Z</time>
      </trkpt>
      <trkpt lat="44.17293" lon="5.70463">
        <ele>676.42</ele>
        <time>2020-10-29T14:21:45Z</time>
      </trkpt>
      <trkpt lat="44.17293" lon="5.70439">
        <ele>677.87</ele>
        <time>2020-10-29T14:22:01Z</time>
      </trkpt>
      <trkpt lat="44.17293" lon="5.70422">
        <ele>678.83</ele>
        <time>2020-10-29T14:22:14Z</time>
      </trkpt>
      <trkpt lat="44.17293" lon="5.7041">
        <ele>679.79</ele>
        <time>2020-10-29T14:22:25Z</time>
      </trkpt>
      <trkpt lat="44.1729" lon="5.7039">
        <ele>680.75</ele>
        <time>2020-10-29T14:22:39Z</time>
      </trkpt>
      <trkpt lat="44.17285" lon="5.70369">
        <ele>681.71</ele>
        <time>2020-10-29T14:22:54Z</time>
      </trkpt>
      <trkpt lat="44.17275" lon="5.70352">
        <ele>682.67</ele>
        <time>2020-10-29T14:23:09Z</time>
      </trkpt>
      <trkpt lat="44.17259" lon="5.70341">
        <ele>683.15</ele>
        <time>2020-10-29T14:23:25Z</time>
      </trkpt>
      <trkpt lat="44.17243" lon="5.70347">
        <ele>684.12</ele>
        <time>2020-10-29T14:23:39Z</time>
      </trkpt>
      <trkpt lat="44.17228" lon="5.70361">
        <ele>685.08</ele>
        <time>2020-10-29T14:23:56Z</time>
      </trkpt>
      <trkpt lat="44.17228" lon="5.70363">
        <ele>685.08</ele>
        <time>2020-10-29T14:23:57Z</time>
      </trkpt>
      <trkpt lat="44.17223" lon="5.7037">
        <ele>685.56</ele>
        <time>2020-10-29T14:24:03Z</time>
      </trkpt>
      <trkpt lat="44.17221" lon="5.70371">
        <ele>685.56</ele>
        <time>2020-10-29T14:24:05Z</time>
      </trkpt>
      <trkpt lat="44.17216" lon="5.70379">
        <ele>686.04</ele>
        <time>2020-10-29T14:24:13Z</time>
      </trkpt>
      <trkpt lat="44.17206" lon="5.70392">
        <ele>686.52</ele>
        <time>2020-10-29T14:24:26Z</time>
      </trkpt>
      <trkpt lat="44.17198" lon="5.70393">
        <ele>687</ele>
        <time>2020-10-29T14:24:33Z</time>
      </trkpt>
      <trkpt lat="44.17185" lon="5.70394">
        <ele>687</ele>
        <time>2020-10-29T14:24:47Z</time>
      </trkpt>
      <trkpt lat="44.17166" lon="5.70388">
        <ele>687</ele>
        <time>2020-10-29T14:25:04Z</time>
      </trkpt>
      <trkpt lat="44.17144" lon="5.70378">
        <ele>687.48</ele>
        <time>2020-10-29T14:25:24Z</time>
      </trkpt>
      <trkpt lat="44.17126" lon="5.7037">
        <ele>687.96</ele>
        <time>2020-10-29T14:25:41Z</time>
      </trkpt>
      <trkpt lat="44.17108" lon="5.70362">
        <ele>688.92</ele>
        <time>2020-10-29T14:25:57Z</time>
      </trkpt>
      <trkpt lat="44.1709" lon="5.70354">
        <ele>690.36</ele>
        <time>2020-10-29T14:26:14Z</time>
      </trkpt>
      <trkpt lat="44.17074" lon="5.70366">
        <ele>690.84</ele>
        <time>2020-10-29T14:26:30Z</time>
      </trkpt>
      <trkpt lat="44.17065" lon="5.70381">
        <ele>691.33</ele>
        <time>2020-10-29T14:26:44Z</time>
      </trkpt>
      <trkpt lat="44.17056" lon="5.70404">
        <ele>690.84</ele>
        <time>2020-10-29T14:27:00Z</time>
      </trkpt>
      <trkpt lat="44.17047" lon="5.70428">
        <ele>690.36</ele>
        <time>2020-10-29T14:27:14Z</time>
      </trkpt>
      <trkpt lat="44.17046" lon="5.70431">
        <ele>690.36</ele>
        <time>2020-10-29T14:27:18Z</time>
      </trkpt>
      <trkpt lat="44.17044" lon="5.70454">
        <ele>689.4</ele>
        <time>2020-10-29T14:27:32Z</time>
      </trkpt>
      <trkpt lat="44.17044" lon="5.70463">
        <ele>689.4</ele>
        <time>2020-10-29T14:27:37Z</time>
      </trkpt>
      <trkpt lat="44.17043" lon="5.70465">
        <ele>689.4</ele>
        <time>2020-10-29T14:27:38Z</time>
      </trkpt>
      <trkpt lat="44.17043" lon="5.70467">
        <ele>688.92</ele>
        <time>2020-10-29T14:27:39Z</time>
      </trkpt>
      <trkpt lat="44.17039" lon="5.70477">
        <ele>688.92</ele>
        <time>2020-10-29T14:27:48Z</time>
      </trkpt>
      <trkpt lat="44.17039" lon="5.70479">
        <ele>688.92</ele>
        <time>2020-10-29T14:27:49Z</time>
      </trkpt>
      <trkpt lat="44.17038" lon="5.70481">
        <ele>688.92</ele>
        <time>2020-10-29T14:27:50Z</time>
      </trkpt>
      <trkpt lat="44.17036" lon="5.70494">
        <ele>688.92</ele>
        <time>2020-10-29T14:27:56Z</time>
      </trkpt>
      <trkpt lat="44.17035" lon="5.70496">
        <ele>688.44</ele>
        <time>2020-10-29T14:27:57Z</time>
      </trkpt>
      <trkpt lat="44.17034" lon="5.70497">
        <ele>688.92</ele>
        <time>2020-10-29T14:27:58Z</time>
      </trkpt>
      <trkpt lat="44.17034" lon="5.70499">
        <ele>688.44</ele>
        <time>2020-10-29T14:27:59Z</time>
      </trkpt>
      <trkpt lat="44.17033" lon="5.705">
        <ele>688.44</ele>
        <time>2020-10-29T14:28:00Z</time>
      </trkpt>
      <trkpt lat="44.17033" lon="5.70502">
        <ele>688.44</ele>
        <time>2020-10-29T14:28:01Z</time>
      </trkpt>
      <trkpt lat="44.17032" lon="5.70507">
        <ele>688.44</ele>
        <time>2020-10-29T14:28:06Z</time>
      </trkpt>
      <trkpt lat="44.17032" lon="5.70509">
        <ele>688.44</ele>
        <time>2020-10-29T14:28:07Z</time>
      </trkpt>
      <trkpt lat="44.17031" lon="5.7051">
        <ele>688.44</ele>
        <time>2020-10-29T14:28:08Z</time>
      </trkpt>
      <trkpt lat="44.17028" lon="5.7052">
        <ele>688.44</ele>
        <time>2020-10-29T14:28:14Z</time>
      </trkpt>
      <trkpt lat="44.17028" lon="5.70521">
        <ele>687.96</ele>
        <time>2020-10-29T14:28:15Z</time>
      </trkpt>
      <trkpt lat="44.17027" lon="5.70523">
        <ele>687.96</ele>
        <time>2020-10-29T14:28:16Z</time>
      </trkpt>
      <trkpt lat="44.17024" lon="5.70544">
        <ele>687.96</ele>
        <time>2020-10-29T14:28:30Z</time>
      </trkpt>
      <trkpt lat="44.17023" lon="5.70554">
        <ele>687.96</ele>
        <time>2020-10-29T14:28:42Z</time>
      </trkpt>
      <trkpt lat="44.17023" lon="5.70556">
        <ele>687.96</ele>
        <time>2020-10-29T14:29:03Z</time>
      </trkpt>
      <trkpt lat="44.17023" lon="5.70568">
        <ele>687.96</ele>
        <time>2020-10-29T14:29:24Z</time>
      </trkpt>
      <trkpt lat="44.17022" lon="5.70575">
        <ele>688.44</ele>
        <time>2020-10-29T14:29:29Z</time>
      </trkpt>
      <trkpt lat="44.17023" lon="5.70581">
        <ele>688.44</ele>
        <time>2020-10-29T14:29:32Z</time>
      </trkpt>
      <trkpt lat="44.17022" lon="5.70586">
        <ele>687.96</ele>
        <time>2020-10-29T14:29:36Z</time>
      </trkpt>
      <trkpt lat="44.17021" lon="5.7059">
        <ele>688.44</ele>
        <time>2020-10-29T14:29:38Z</time>
      </trkpt>
      <trkpt lat="44.1702" lon="5.70591">
        <ele>688.44</ele>
        <time>2020-10-29T14:29:39Z</time>
      </trkpt>
      <trkpt lat="44.17019" lon="5.70598">
        <ele>688.44</ele>
        <time>2020-10-29T14:29:44Z</time>
      </trkpt>
      <trkpt lat="44.17019" lon="5.706">
        <ele>689.4</ele>
        <time>2020-10-29T14:29:46Z</time>
      </trkpt>
      <trkpt lat="44.17019" lon="5.70601">
        <ele>688.92</ele>
        <time>2020-10-29T14:29:59Z</time>
      </trkpt>
      <trkpt lat="44.17017" lon="5.70621">
        <ele>689.4</ele>
        <time>2020-10-29T14:30:12Z</time>
      </trkpt>
      <trkpt lat="44.17018" lon="5.70623">
        <ele>688.92</ele>
        <time>2020-10-29T14:30:28Z</time>
      </trkpt>
      <trkpt lat="44.17017" lon="5.70633">
        <ele>689.4</ele>
        <time>2020-10-29T14:30:55Z</time>
      </trkpt>
      <trkpt lat="44.17012" lon="5.70654">
        <ele>690.36</ele>
        <time>2020-10-29T14:31:11Z</time>
      </trkpt>
      <trkpt lat="44.17008" lon="5.70669">
        <ele>690.84</ele>
        <time>2020-10-29T14:31:25Z</time>
      </trkpt>
      <trkpt lat="44.17001" lon="5.70691">
        <ele>691.33</ele>
        <time>2020-10-29T14:31:41Z</time>
      </trkpt>
      <trkpt lat="44.16994" lon="5.70711">
        <ele>692.77</ele>
        <time>2020-10-29T14:31:56Z</time>
      </trkpt>
      <trkpt lat="44.16992" lon="5.7072">
        <ele>692.77</ele>
        <time>2020-10-29T14:32:08Z</time>
      </trkpt>
      <trkpt lat="44.16989" lon="5.70723">
        <ele>693.25</ele>
        <time>2020-10-29T14:32:20Z</time>
      </trkpt>
      <trkpt lat="44.16988" lon="5.70727">
        <ele>693.25</ele>
        <time>2020-10-29T14:32:24Z</time>
      </trkpt>
      <trkpt lat="44.16986" lon="5.70733">
        <ele>693.73</ele>
        <time>2020-10-29T14:32:29Z</time>
      </trkpt>
      <trkpt lat="44.16985" lon="5.70734">
        <ele>693.73</ele>
        <time>2020-10-29T14:32:30Z</time>
      </trkpt>
      <trkpt lat="44.16976" lon="5.70754">
        <ele>693.73</ele>
        <time>2020-10-29T14:32:46Z</time>
      </trkpt>
      <trkpt lat="44.16965" lon="5.70775">
        <ele>693.73</ele>
        <time>2020-10-29T14:33:03Z</time>
      </trkpt>
      <trkpt lat="44.16955" lon="5.70802">
        <ele>693.73</ele>
        <time>2020-10-29T14:33:22Z</time>
      </trkpt>
      <trkpt lat="44.16943" lon="5.70826">
        <ele>692.77</ele>
        <time>2020-10-29T14:33:40Z</time>
      </trkpt>
      <trkpt lat="44.16927" lon="5.7084">
        <ele>692.29</ele>
        <time>2020-10-29T14:33:57Z</time>
      </trkpt>
      <trkpt lat="44.16903" lon="5.7084">
        <ele>692.29</ele>
        <time>2020-10-29T14:34:18Z</time>
      </trkpt>
      <trkpt lat="44.16881" lon="5.70833">
        <ele>692.77</ele>
        <time>2020-10-29T14:34:37Z</time>
      </trkpt>
      <trkpt lat="44.16857" lon="5.70842">
        <ele>692.77</ele>
        <time>2020-10-29T14:34:58Z</time>
      </trkpt>
      <trkpt lat="44.16852" lon="5.7085">
        <ele>693.25</ele>
        <time>2020-10-29T14:35:04Z</time>
      </trkpt>
      <trkpt lat="44.16851" lon="5.70852">
        <ele>693.25</ele>
        <time>2020-10-29T14:35:05Z</time>
      </trkpt>
      <trkpt lat="44.1685" lon="5.70854">
        <ele>692.77</ele>
        <time>2020-10-29T14:35:06Z</time>
      </trkpt>
      <trkpt lat="44.16841" lon="5.70863">
        <ele>692.77</ele>
        <time>2020-10-29T14:35:16Z</time>
      </trkpt>
      <trkpt lat="44.1684" lon="5.70864">
        <ele>692.77</ele>
        <time>2020-10-29T14:35:17Z</time>
      </trkpt>
      <trkpt lat="44.16831" lon="5.70888">
        <ele>693.25</ele>
        <time>2020-10-29T14:35:35Z</time>
      </trkpt>
      <trkpt lat="44.16835" lon="5.70912">
        <ele>694.21</ele>
        <time>2020-10-29T14:35:50Z</time>
      </trkpt>
      <trkpt lat="44.16845" lon="5.70926">
        <ele>694.69</ele>
        <time>2020-10-29T14:36:04Z</time>
      </trkpt>
      <trkpt lat="44.16852" lon="5.70943">
        <ele>694.69</ele>
        <time>2020-10-29T14:36:19Z</time>
      </trkpt>
      <trkpt lat="44.16853" lon="5.70954">
        <ele>694.69</ele>
        <time>2020-10-29T14:36:31Z</time>
      </trkpt>
      <trkpt lat="44.16848" lon="5.70976">
        <ele>696.13</ele>
        <time>2020-10-29T14:36:46Z</time>
      </trkpt>
      <trkpt lat="44.16845" lon="5.70982">
        <ele>696.61</ele>
        <time>2020-10-29T14:36:50Z</time>
      </trkpt>
      <trkpt lat="44.16832" lon="5.70995">
        <ele>697.09</ele>
        <time>2020-10-29T14:37:04Z</time>
      </trkpt>
      <trkpt lat="44.16824" lon="5.71">
        <ele>697.57</ele>
        <time>2020-10-29T14:37:12Z</time>
      </trkpt>
      <trkpt lat="44.16822" lon="5.71001">
        <ele>697.09</ele>
        <time>2020-10-29T14:37:13Z</time>
      </trkpt>
      <trkpt lat="44.16811" lon="5.71013">
        <ele>697.57</ele>
        <time>2020-10-29T14:37:28Z</time>
      </trkpt>
      <trkpt lat="44.1681" lon="5.71015">
        <ele>697.57</ele>
        <time>2020-10-29T14:37:44Z</time>
      </trkpt>
      <trkpt lat="44.16812" lon="5.71008">
        <ele>697.09</ele>
        <time>2020-10-29T14:38:07Z</time>
      </trkpt>
      <trkpt lat="44.16811" lon="5.71009">
        <ele>697.09</ele>
        <time>2020-10-29T14:38:26Z</time>
      </trkpt>
      <trkpt lat="44.16812" lon="5.71007">
        <ele>697.09</ele>
        <time>2020-10-29T14:38:41Z</time>
      </trkpt>
      <trkpt lat="44.16811" lon="5.71013">
        <ele>696.13</ele>
        <time>2020-10-29T14:38:57Z</time>
      </trkpt>
      <trkpt lat="44.16806" lon="5.71015">
        <ele>695.17</ele>
        <time>2020-10-29T14:39:10Z</time>
      </trkpt>
      <trkpt lat="44.1679" lon="5.71027">
        <ele>695.17</ele>
        <time>2020-10-29T14:39:27Z</time>
      </trkpt>
      <trkpt lat="44.1678" lon="5.71035">
        <ele>695.65</ele>
        <time>2020-10-29T14:39:39Z</time>
      </trkpt>
      <trkpt lat="44.16771" lon="5.71047">
        <ele>697.57</ele>
        <time>2020-10-29T14:39:51Z</time>
      </trkpt>
      <trkpt lat="44.1677" lon="5.71048">
        <ele>697.57</ele>
        <time>2020-10-29T14:39:52Z</time>
      </trkpt>
      <trkpt lat="44.16769" lon="5.7105">
        <ele>697.57</ele>
        <time>2020-10-29T14:39:53Z</time>
      </trkpt>
      <trkpt lat="44.16764" lon="5.71061">
        <ele>698.53</ele>
        <time>2020-10-29T14:40:03Z</time>
      </trkpt>
      <trkpt lat="44.16758" lon="5.7108">
        <ele>699.5</ele>
        <time>2020-10-29T14:40:17Z</time>
      </trkpt>
      <trkpt lat="44.16754" lon="5.71094">
        <ele>699.5</ele>
        <time>2020-10-29T14:40:29Z</time>
      </trkpt>
      <trkpt lat="44.16747" lon="5.71113">
        <ele>700.46</ele>
        <time>2020-10-29T14:40:45Z</time>
      </trkpt>
      <trkpt lat="44.1674" lon="5.71126">
        <ele>700.94</ele>
        <time>2020-10-29T14:40:55Z</time>
      </trkpt>
      <trkpt lat="44.16739" lon="5.71127">
        <ele>701.42</ele>
        <time>2020-10-29T14:40:56Z</time>
      </trkpt>
      <trkpt lat="44.16731" lon="5.71139">
        <ele>701.9</ele>
        <time>2020-10-29T14:41:08Z</time>
      </trkpt>
      <trkpt lat="44.16722" lon="5.71153">
        <ele>703.82</ele>
        <time>2020-10-29T14:41:22Z</time>
      </trkpt>
      <trkpt lat="44.16714" lon="5.7117">
        <ele>705.75</ele>
        <time>2020-10-29T14:41:36Z</time>
      </trkpt>
      <trkpt lat="44.16707" lon="5.71183">
        <ele>706.71</ele>
        <time>2020-10-29T14:41:50Z</time>
      </trkpt>
      <trkpt lat="44.16699" lon="5.712">
        <ele>707.19</ele>
        <time>2020-10-29T14:42:03Z</time>
      </trkpt>
      <trkpt lat="44.16693" lon="5.71211">
        <ele>707.67</ele>
        <time>2020-10-29T14:42:14Z</time>
      </trkpt>
      <trkpt lat="44.16684" lon="5.71225">
        <ele>709.11</ele>
        <time>2020-10-29T14:42:27Z</time>
      </trkpt>
      <trkpt lat="44.16676" lon="5.71233">
        <ele>709.59</ele>
        <time>2020-10-29T14:42:37Z</time>
      </trkpt>
      <trkpt lat="44.16671" lon="5.7124">
        <ele>710.07</ele>
        <time>2020-10-29T14:42:49Z</time>
      </trkpt>
      <trkpt lat="44.1667" lon="5.71246">
        <ele>709.59</ele>
        <time>2020-10-29T14:42:58Z</time>
      </trkpt>
      <trkpt lat="44.16669" lon="5.71251">
        <ele>709.11</ele>
        <time>2020-10-29T14:43:02Z</time>
      </trkpt>
      <trkpt lat="44.16668" lon="5.71253">
        <ele>709.11</ele>
        <time>2020-10-29T14:43:03Z</time>
      </trkpt>
      <trkpt lat="44.16667" lon="5.71254">
        <ele>709.11</ele>
        <time>2020-10-29T14:43:04Z</time>
      </trkpt>
      <trkpt lat="44.16665" lon="5.71261">
        <ele>708.63</ele>
        <time>2020-10-29T14:43:10Z</time>
      </trkpt>
      <trkpt lat="44.16663" lon="5.71266">
        <ele>708.15</ele>
        <time>2020-10-29T14:43:15Z</time>
      </trkpt>
      <trkpt lat="44.16659" lon="5.71269">
        <ele>707.67</ele>
        <time>2020-10-29T14:43:20Z</time>
      </trkpt>
      <trkpt lat="44.16658" lon="5.71269">
        <ele>707.67</ele>
        <time>2020-10-29T14:43:21Z</time>
      </trkpt>
      <trkpt lat="44.16655" lon="5.71269">
        <ele>707.67</ele>
        <time>2020-10-29T14:43:23Z</time>
      </trkpt>
      <trkpt lat="44.16654" lon="5.71274">
        <ele>707.19</ele>
        <time>2020-10-29T14:43:31Z</time>
      </trkpt>
      <trkpt lat="44.16654" lon="5.71281">
        <ele>706.23</ele>
        <time>2020-10-29T14:43:39Z</time>
      </trkpt>
      <trkpt lat="44.16654" lon="5.71283">
        <ele>706.23</ele>
        <time>2020-10-29T14:43:40Z</time>
      </trkpt>
      <trkpt lat="44.16652" lon="5.71291">
        <ele>705.75</ele>
        <time>2020-10-29T14:43:46Z</time>
      </trkpt>
      <trkpt lat="44.16647" lon="5.71309">
        <ele>703.34</ele>
        <time>2020-10-29T14:43:59Z</time>
      </trkpt>
      <trkpt lat="44.1664" lon="5.71328">
        <ele>702.86</ele>
        <time>2020-10-29T14:44:13Z</time>
      </trkpt>
      <trkpt lat="44.16636" lon="5.71338">
        <ele>702.38</ele>
        <time>2020-10-29T14:44:20Z</time>
      </trkpt>
      <trkpt lat="44.16635" lon="5.71339">
        <ele>701.9</ele>
        <time>2020-10-29T14:44:21Z</time>
      </trkpt>
      <trkpt lat="44.16628" lon="5.71353">
        <ele>701.42</ele>
        <time>2020-10-29T14:44:32Z</time>
      </trkpt>
      <trkpt lat="44.16627" lon="5.71354">
        <ele>701.42</ele>
        <time>2020-10-29T14:44:33Z</time>
      </trkpt>
      <trkpt lat="44.16619" lon="5.71374">
        <ele>701.9</ele>
        <time>2020-10-29T14:44:47Z</time>
      </trkpt>
      <trkpt lat="44.16616" lon="5.71378">
        <ele>702.38</ele>
        <time>2020-10-29T14:44:49Z</time>
      </trkpt>
      <trkpt lat="44.16615" lon="5.7138">
        <ele>702.38</ele>
        <time>2020-10-29T14:44:50Z</time>
      </trkpt>
      <trkpt lat="44.16614" lon="5.7139">
        <ele>702.86</ele>
        <time>2020-10-29T14:44:57Z</time>
      </trkpt>
      <trkpt lat="44.16614" lon="5.71392">
        <ele>702.86</ele>
        <time>2020-10-29T14:44:58Z</time>
      </trkpt>
      <trkpt lat="44.16618" lon="5.71415">
        <ele>703.34</ele>
        <time>2020-10-29T14:45:12Z</time>
      </trkpt>
      <trkpt lat="44.16616" lon="5.71422">
        <ele>703.82</ele>
        <time>2020-10-29T14:45:17Z</time>
      </trkpt>
      <trkpt lat="44.16616" lon="5.71424">
        <ele>704.3</ele>
        <time>2020-10-29T14:45:19Z</time>
      </trkpt>
      <trkpt lat="44.16615" lon="5.71432">
        <ele>705.26</ele>
        <time>2020-10-29T14:45:24Z</time>
      </trkpt>
      <trkpt lat="44.16615" lon="5.71433">
        <ele>705.26</ele>
        <time>2020-10-29T14:45:25Z</time>
      </trkpt>
      <trkpt lat="44.16611" lon="5.71454">
        <ele>707.19</ele>
        <time>2020-10-29T14:45:39Z</time>
      </trkpt>
      <trkpt lat="44.16608" lon="5.71473">
        <ele>708.15</ele>
        <time>2020-10-29T14:45:52Z</time>
      </trkpt>
      <trkpt lat="44.16607" lon="5.71478">
        <ele>708.15</ele>
        <time>2020-10-29T14:45:55Z</time>
      </trkpt>
      <trkpt lat="44.16605" lon="5.71491">
        <ele>709.11</ele>
        <time>2020-10-29T14:46:04Z</time>
      </trkpt>
      <trkpt lat="44.16605" lon="5.71494">
        <ele>709.59</ele>
        <time>2020-10-29T14:46:06Z</time>
      </trkpt>
      <trkpt lat="44.16604" lon="5.71499">
        <ele>710.55</ele>
        <time>2020-10-29T14:46:09Z</time>
      </trkpt>
      <trkpt lat="44.16601" lon="5.71522">
        <ele>712.47</ele>
        <time>2020-10-29T14:46:25Z</time>
      </trkpt>
      <trkpt lat="44.16601" lon="5.71538">
        <ele>712.95</ele>
        <time>2020-10-29T14:46:38Z</time>
      </trkpt>
      <trkpt lat="44.16599" lon="5.71542">
        <ele>713.44</ele>
        <time>2020-10-29T14:46:53Z</time>
      </trkpt>
      <trkpt lat="44.16603" lon="5.71539">
        <ele>713.44</ele>
        <time>2020-10-29T14:47:10Z</time>
      </trkpt>
      <trkpt lat="44.16604" lon="5.71537">
        <ele>712.95</ele>
        <time>2020-10-29T14:47:36Z</time>
      </trkpt>
      <trkpt lat="44.16605" lon="5.7154">
        <ele>714.4</ele>
        <time>2020-10-29T14:48:04Z</time>
      </trkpt>
      <trkpt lat="44.16601" lon="5.71539">
        <ele>715.36</ele>
        <time>2020-10-29T14:48:16Z</time>
      </trkpt>
      <trkpt lat="44.16598" lon="5.71538">
        <ele>715.84</ele>
        <time>2020-10-29T14:48:30Z</time>
      </trkpt>
      <trkpt lat="44.166" lon="5.71545">
        <ele>715.36</ele>
        <time>2020-10-29T14:48:48Z</time>
      </trkpt>
      <trkpt lat="44.16602" lon="5.71557">
        <ele>715.84</ele>
        <time>2020-10-29T14:49:02Z</time>
      </trkpt>
      <trkpt lat="44.16603" lon="5.71573">
        <ele>716.8</ele>
        <time>2020-10-29T14:49:15Z</time>
      </trkpt>
      <trkpt lat="44.16604" lon="5.71577">
        <ele>717.28</ele>
        <time>2020-10-29T14:49:18Z</time>
      </trkpt>
      <trkpt lat="44.16608" lon="5.71595">
        <ele>718.72</ele>
        <time>2020-10-29T14:49:33Z</time>
      </trkpt>
      <trkpt lat="44.16608" lon="5.71616">
        <ele>720.16</ele>
        <time>2020-10-29T14:49:47Z</time>
      </trkpt>
      <trkpt lat="44.16608" lon="5.71628">
        <ele>721.13</ele>
        <time>2020-10-29T14:49:56Z</time>
      </trkpt>
      <trkpt lat="44.16608" lon="5.71631">
        <ele>721.13</ele>
        <time>2020-10-29T14:49:58Z</time>
      </trkpt>
      <trkpt lat="44.16609" lon="5.71638">
        <ele>722.09</ele>
        <time>2020-10-29T14:50:03Z</time>
      </trkpt>
      <trkpt lat="44.1661" lon="5.7164">
        <ele>722.57</ele>
        <time>2020-10-29T14:50:05Z</time>
      </trkpt>
      <trkpt lat="44.16609" lon="5.71646">
        <ele>722.09</ele>
        <time>2020-10-29T14:50:09Z</time>
      </trkpt>
      <trkpt lat="44.16606" lon="5.71669">
        <ele>723.53</ele>
        <time>2020-10-29T14:50:25Z</time>
      </trkpt>
      <trkpt lat="44.16598" lon="5.7169">
        <ele>724.97</ele>
        <time>2020-10-29T14:50:41Z</time>
      </trkpt>
      <trkpt lat="44.16593" lon="5.71702">
        <ele>726.41</ele>
        <time>2020-10-29T14:50:50Z</time>
      </trkpt>
      <trkpt lat="44.16589" lon="5.71724">
        <ele>727.86</ele>
        <time>2020-10-29T14:51:06Z</time>
      </trkpt>
      <trkpt lat="44.16587" lon="5.71742">
        <ele>728.82</ele>
        <time>2020-10-29T14:51:18Z</time>
      </trkpt>
      <trkpt lat="44.16586" lon="5.71756">
        <ele>729.3</ele>
        <time>2020-10-29T14:51:28Z</time>
      </trkpt>
      <trkpt lat="44.16588" lon="5.7178">
        <ele>730.26</ele>
        <time>2020-10-29T14:51:44Z</time>
      </trkpt>
      <trkpt lat="44.16588" lon="5.71786">
        <ele>730.74</ele>
        <time>2020-10-29T14:51:48Z</time>
      </trkpt>
      <trkpt lat="44.16588" lon="5.71791">
        <ele>730.74</ele>
        <time>2020-10-29T14:51:51Z</time>
      </trkpt>
      <trkpt lat="44.1659" lon="5.71809">
        <ele>732.18</ele>
        <time>2020-10-29T14:52:03Z</time>
      </trkpt>
      <trkpt lat="44.16594" lon="5.71831">
        <ele>732.18</ele>
        <time>2020-10-29T14:52:17Z</time>
      </trkpt>
      <trkpt lat="44.16604" lon="5.71853">
        <ele>731.7</ele>
        <time>2020-10-29T14:52:34Z</time>
      </trkpt>
      <trkpt lat="44.16605" lon="5.71855">
        <ele>731.7</ele>
        <time>2020-10-29T14:52:36Z</time>
      </trkpt>
      <trkpt lat="44.16609" lon="5.71866">
        <ele>730.26</ele>
        <time>2020-10-29T14:52:43Z</time>
      </trkpt>
      <trkpt lat="44.16612" lon="5.71876">
        <ele>729.78</ele>
        <time>2020-10-29T14:52:50Z</time>
      </trkpt>
      <trkpt lat="44.16619" lon="5.71889">
        <ele>729.3</ele>
        <time>2020-10-29T14:53:00Z</time>
      </trkpt>
      <trkpt lat="44.16616" lon="5.71904">
        <ele>730.26</ele>
        <time>2020-10-29T14:53:11Z</time>
      </trkpt>
      <trkpt lat="44.16605" lon="5.71924">
        <ele>732.66</ele>
        <time>2020-10-29T14:53:28Z</time>
      </trkpt>
      <trkpt lat="44.166" lon="5.71934">
        <ele>733.62</ele>
        <time>2020-10-29T14:53:36Z</time>
      </trkpt>
      <trkpt lat="44.16598" lon="5.71943">
        <ele>733.14</ele>
        <time>2020-10-29T14:53:43Z</time>
      </trkpt>
      <trkpt lat="44.16597" lon="5.71966">
        <ele>734.58</ele>
        <time>2020-10-29T14:53:58Z</time>
      </trkpt>
      <trkpt lat="44.16596" lon="5.71973">
        <ele>735.55</ele>
        <time>2020-10-29T14:54:03Z</time>
      </trkpt>
      <trkpt lat="44.16595" lon="5.71985">
        <ele>736.03</ele>
        <time>2020-10-29T14:54:10Z</time>
      </trkpt>
      <trkpt lat="44.16596" lon="5.72008">
        <ele>737.95</ele>
        <time>2020-10-29T14:54:26Z</time>
      </trkpt>
      <trkpt lat="44.16596" lon="5.72011">
        <ele>737.95</ele>
        <time>2020-10-29T14:54:28Z</time>
      </trkpt>
      <trkpt lat="44.16589" lon="5.72035">
        <ele>737.95</ele>
        <time>2020-10-29T14:54:44Z</time>
      </trkpt>
      <trkpt lat="44.16589" lon="5.72036">
        <ele>737.95</ele>
        <time>2020-10-29T14:54:45Z</time>
      </trkpt>
      <trkpt lat="44.16583" lon="5.72061">
        <ele>737.47</ele>
        <time>2020-10-29T14:55:02Z</time>
      </trkpt>
      <trkpt lat="44.16579" lon="5.72085">
        <ele>738.43</ele>
        <time>2020-10-29T14:55:17Z</time>
      </trkpt>
      <trkpt lat="44.16578" lon="5.72109">
        <ele>740.35</ele>
        <time>2020-10-29T14:55:32Z</time>
      </trkpt>
      <trkpt lat="44.16578" lon="5.72124">
        <ele>742.28</ele>
        <time>2020-10-29T14:55:42Z</time>
      </trkpt>
      <trkpt lat="44.16575" lon="5.72139">
        <ele>742.28</ele>
        <time>2020-10-29T14:55:52Z</time>
      </trkpt>
      <trkpt lat="44.16571" lon="5.72163">
        <ele>743.24</ele>
        <time>2020-10-29T14:56:08Z</time>
      </trkpt>
      <trkpt lat="44.16562" lon="5.72187">
        <ele>743.72</ele>
        <time>2020-10-29T14:56:24Z</time>
      </trkpt>
      <trkpt lat="44.16559" lon="5.7221">
        <ele>740.83</ele>
        <time>2020-10-29T14:56:38Z</time>
      </trkpt>
      <trkpt lat="44.16557" lon="5.72233">
        <ele>740.83</ele>
        <time>2020-10-29T14:56:52Z</time>
      </trkpt>
      <trkpt lat="44.16555" lon="5.72242">
        <ele>741.31</ele>
        <time>2020-10-29T14:56:57Z</time>
      </trkpt>
      <trkpt lat="44.1655" lon="5.72261">
        <ele>739.87</ele>
        <time>2020-10-29T14:57:09Z</time>
      </trkpt>
      <trkpt lat="44.16544" lon="5.72278">
        <ele>741.31</ele>
        <time>2020-10-29T14:57:21Z</time>
      </trkpt>
      <trkpt lat="44.16542" lon="5.72294">
        <ele>742.76</ele>
        <time>2020-10-29T14:57:32Z</time>
      </trkpt>
      <trkpt lat="44.16541" lon="5.72304">
        <ele>742.28</ele>
        <time>2020-10-29T14:57:38Z</time>
      </trkpt>
      <trkpt lat="44.16535" lon="5.72307">
        <ele>742.28</ele>
        <time>2020-10-29T14:57:52Z</time>
      </trkpt>
      <trkpt lat="44.16534" lon="5.72305">
        <ele>741.31</ele>
        <time>2020-10-29T14:58:10Z</time>
      </trkpt>
      <trkpt lat="44.16532" lon="5.72321">
        <ele>742.28</ele>
        <time>2020-10-29T14:58:25Z</time>
      </trkpt>
      <trkpt lat="44.16532" lon="5.72324">
        <ele>742.28</ele>
        <time>2020-10-29T14:58:27Z</time>
      </trkpt>
      <trkpt lat="44.16537" lon="5.72347">
        <ele>742.76</ele>
        <time>2020-10-29T14:58:43Z</time>
      </trkpt>
      <trkpt lat="44.16545" lon="5.72358">
        <ele>743.24</ele>
        <time>2020-10-29T14:58:56Z</time>
      </trkpt>
      <trkpt lat="44.16544" lon="5.72359">
        <ele>742.76</ele>
        <time>2020-10-29T14:59:12Z</time>
      </trkpt>
      <trkpt lat="44.1654" lon="5.72357">
        <ele>743.24</ele>
        <time>2020-10-29T14:59:37Z</time>
      </trkpt>
      <trkpt lat="44.16544" lon="5.72356">
        <ele>743.72</ele>
        <time>2020-10-29T14:59:53Z</time>
      </trkpt>
      <trkpt lat="44.16541" lon="5.7236">
        <ele>744.2</ele>
        <time>2020-10-29T15:00:17Z</time>
      </trkpt>
      <trkpt lat="44.1654" lon="5.72362">
        <ele>744.2</ele>
        <time>2020-10-29T15:00:47Z</time>
      </trkpt>
      <trkpt lat="44.16542" lon="5.72375">
        <ele>745.16</ele>
        <time>2020-10-29T15:01:04Z</time>
      </trkpt>
      <trkpt lat="44.16541" lon="5.72379">
        <ele>745.16</ele>
        <time>2020-10-29T15:01:07Z</time>
      </trkpt>
      <trkpt lat="44.1654" lon="5.72394">
        <ele>745.16</ele>
        <time>2020-10-29T15:01:18Z</time>
      </trkpt>
      <trkpt lat="44.16537" lon="5.72421">
        <ele>746.12</ele>
        <time>2020-10-29T15:01:37Z</time>
      </trkpt>
      <trkpt lat="44.16532" lon="5.72432">
        <ele>746.12</ele>
        <time>2020-10-29T15:01:46Z</time>
      </trkpt>
      <trkpt lat="44.16525" lon="5.72446">
        <ele>747.08</ele>
        <time>2020-10-29T15:01:59Z</time>
      </trkpt>
      <trkpt lat="44.16523" lon="5.72448">
        <ele>747.08</ele>
        <time>2020-10-29T15:02:01Z</time>
      </trkpt>
      <trkpt lat="44.16512" lon="5.72465">
        <ele>748.52</ele>
        <time>2020-10-29T15:02:17Z</time>
      </trkpt>
      <trkpt lat="44.16506" lon="5.72478">
        <ele>749.97</ele>
        <time>2020-10-29T15:02:30Z</time>
      </trkpt>
      <trkpt lat="44.16505" lon="5.72485">
        <ele>750.45</ele>
        <time>2020-10-29T15:02:36Z</time>
      </trkpt>
      <trkpt lat="44.16503" lon="5.72501">
        <ele>752.37</ele>
        <time>2020-10-29T15:02:49Z</time>
      </trkpt>
      <trkpt lat="44.16505" lon="5.72517">
        <ele>754.29</ele>
        <time>2020-10-29T15:03:02Z</time>
      </trkpt>
      <trkpt lat="44.16514" lon="5.72531">
        <ele>755.73</ele>
        <time>2020-10-29T15:03:16Z</time>
      </trkpt>
      <trkpt lat="44.1652" lon="5.72549">
        <ele>757.18</ele>
        <time>2020-10-29T15:03:31Z</time>
      </trkpt>
      <trkpt lat="44.16521" lon="5.72551">
        <ele>757.18</ele>
        <time>2020-10-29T15:03:32Z</time>
      </trkpt>
      <trkpt lat="44.1652" lon="5.72561">
        <ele>758.14</ele>
        <time>2020-10-29T15:03:39Z</time>
      </trkpt>
      <trkpt lat="44.16513" lon="5.72579">
        <ele>759.1</ele>
        <time>2020-10-29T15:03:53Z</time>
      </trkpt>
      <trkpt lat="44.165" lon="5.72589">
        <ele>759.1</ele>
        <time>2020-10-29T15:04:09Z</time>
      </trkpt>
      <trkpt lat="44.16491" lon="5.72591">
        <ele>759.1</ele>
        <time>2020-10-29T15:04:22Z</time>
      </trkpt>
      <trkpt lat="44.16474" lon="5.72605">
        <ele>755.73</ele>
        <time>2020-10-29T15:04:40Z</time>
      </trkpt>
      <trkpt lat="44.16456" lon="5.72615">
        <ele>754.29</ele>
        <time>2020-10-29T15:04:57Z</time>
      </trkpt>
      <trkpt lat="44.16445" lon="5.72621">
        <ele>754.29</ele>
        <time>2020-10-29T15:05:07Z</time>
      </trkpt>
      <trkpt lat="44.16438" lon="5.72625">
        <ele>755.25</ele>
        <time>2020-10-29T15:05:16Z</time>
      </trkpt>
      <trkpt lat="44.16431" lon="5.72628">
        <ele>755.25</ele>
        <time>2020-10-29T15:05:29Z</time>
      </trkpt>
      <trkpt lat="44.16431" lon="5.72629">
        <ele>755.25</ele>
        <time>2020-10-29T15:05:30Z</time>
      </trkpt>
      <trkpt lat="44.16423" lon="5.72652">
        <ele>752.85</ele>
        <time>2020-10-29T15:05:48Z</time>
      </trkpt>
      <trkpt lat="44.16418" lon="5.72673">
        <ele>750.45</ele>
        <time>2020-10-29T15:06:02Z</time>
      </trkpt>
      <trkpt lat="44.16412" lon="5.72699">
        <ele>747.56</ele>
        <time>2020-10-29T15:06:20Z</time>
      </trkpt>
      <trkpt lat="44.1641" lon="5.72717">
        <ele>744.2</ele>
        <time>2020-10-29T15:06:32Z</time>
      </trkpt>
      <trkpt lat="44.16409" lon="5.72737">
        <ele>741.31</ele>
        <time>2020-10-29T15:06:44Z</time>
      </trkpt>
      <trkpt lat="44.16409" lon="5.7275">
        <ele>738.91</ele>
        <time>2020-10-29T15:06:52Z</time>
      </trkpt>
      <trkpt lat="44.16412" lon="5.72759">
        <ele>738.43</ele>
        <time>2020-10-29T15:06:57Z</time>
      </trkpt>
      <trkpt lat="44.16418" lon="5.72775">
        <ele>736.99</ele>
        <time>2020-10-29T15:07:08Z</time>
      </trkpt>
      <trkpt lat="44.16418" lon="5.72779">
        <ele>736.51</ele>
        <time>2020-10-29T15:07:11Z</time>
      </trkpt>
      <trkpt lat="44.16421" lon="5.728">
        <ele>734.58</ele>
        <time>2020-10-29T15:07:25Z</time>
      </trkpt>
      <trkpt lat="44.1642" lon="5.72826">
        <ele>732.66</ele>
        <time>2020-10-29T15:07:40Z</time>
      </trkpt>
      <trkpt lat="44.16421" lon="5.72833">
        <ele>732.66</ele>
        <time>2020-10-29T15:07:45Z</time>
      </trkpt>
      <trkpt lat="44.16426" lon="5.72845">
        <ele>732.66</ele>
        <time>2020-10-29T15:07:54Z</time>
      </trkpt>
      <trkpt lat="44.16435" lon="5.72864">
        <ele>732.18</ele>
        <time>2020-10-29T15:08:09Z</time>
      </trkpt>
      <trkpt lat="44.16436" lon="5.72886">
        <ele>730.26</ele>
        <time>2020-10-29T15:08:22Z</time>
      </trkpt>
      <trkpt lat="44.16424" lon="5.72903">
        <ele>729.3</ele>
        <time>2020-10-29T15:08:37Z</time>
      </trkpt>
      <trkpt lat="44.16411" lon="5.72926">
        <ele>728.82</ele>
        <time>2020-10-29T15:08:54Z</time>
      </trkpt>
      <trkpt lat="44.16407" lon="5.72937">
        <ele>727.37</ele>
        <time>2020-10-29T15:09:03Z</time>
      </trkpt>
      <trkpt lat="44.16394" lon="5.72947">
        <ele>725.45</ele>
        <time>2020-10-29T15:09:19Z</time>
      </trkpt>
      <trkpt lat="44.16393" lon="5.7295">
        <ele>724.97</ele>
        <time>2020-10-29T15:09:21Z</time>
      </trkpt>
      <trkpt lat="44.16391" lon="5.72956">
        <ele>724.49</ele>
        <time>2020-10-29T15:09:29Z</time>
      </trkpt>
      <trkpt lat="44.16388" lon="5.72967">
        <ele>723.53</ele>
        <time>2020-10-29T15:09:38Z</time>
      </trkpt>
      <trkpt lat="44.16382" lon="5.72992">
        <ele>722.09</ele>
        <time>2020-10-29T15:09:55Z</time>
      </trkpt>
      <trkpt lat="44.16382" lon="5.72998">
        <ele>722.09</ele>
        <time>2020-10-29T15:09:59Z</time>
      </trkpt>
      <trkpt lat="44.16381" lon="5.7302">
        <ele>721.61</ele>
        <time>2020-10-29T15:10:14Z</time>
      </trkpt>
      <trkpt lat="44.1638" lon="5.73027">
        <ele>721.13</ele>
        <time>2020-10-29T15:10:19Z</time>
      </trkpt>
      <trkpt lat="44.16376" lon="5.73045">
        <ele>719.2</ele>
        <time>2020-10-29T15:10:31Z</time>
      </trkpt>
      <trkpt lat="44.16375" lon="5.73048">
        <ele>718.72</ele>
        <time>2020-10-29T15:10:33Z</time>
      </trkpt>
      <trkpt lat="44.16383" lon="5.73067">
        <ele>715.84</ele>
        <time>2020-10-29T15:10:47Z</time>
      </trkpt>
      <trkpt lat="44.16389" lon="5.73083">
        <ele>712.47</ele>
        <time>2020-10-29T15:11:01Z</time>
      </trkpt>
      <trkpt lat="44.1639" lon="5.73086">
        <ele>712.47</ele>
        <time>2020-10-29T15:11:03Z</time>
      </trkpt>
      <trkpt lat="44.16397" lon="5.73085">
        <ele>710.55</ele>
        <time>2020-10-29T15:11:11Z</time>
      </trkpt>
      <trkpt lat="44.16399" lon="5.73085">
        <ele>710.55</ele>
        <time>2020-10-29T15:11:12Z</time>
      </trkpt>
      <trkpt lat="44.16402" lon="5.73099">
        <ele>711.99</ele>
        <time>2020-10-29T15:11:26Z</time>
      </trkpt>
      <trkpt lat="44.16401" lon="5.73108">
        <ele>711.99</ele>
        <time>2020-10-29T15:11:32Z</time>
      </trkpt>
      <trkpt lat="44.16402" lon="5.73132">
        <ele>711.51</ele>
        <time>2020-10-29T15:11:48Z</time>
      </trkpt>
      <trkpt lat="44.16386" lon="5.73138">
        <ele>713.44</ele>
        <time>2020-10-29T15:12:04Z</time>
      </trkpt>
      <trkpt lat="44.16377" lon="5.73134">
        <ele>715.36</ele>
        <time>2020-10-29T15:12:18Z</time>
      </trkpt>
      <trkpt lat="44.16374" lon="5.73148">
        <ele>716.8</ele>
        <time>2020-10-29T15:12:33Z</time>
      </trkpt>
      <trkpt lat="44.16376" lon="5.73168">
        <ele>717.28</ele>
        <time>2020-10-29T15:12:48Z</time>
      </trkpt>
      <trkpt lat="44.16382" lon="5.73186">
        <ele>717.28</ele>
        <time>2020-10-29T15:13:04Z</time>
      </trkpt>
      <trkpt lat="44.16383" lon="5.73189">
        <ele>717.28</ele>
        <time>2020-10-29T15:13:06Z</time>
      </trkpt>
      <trkpt lat="44.16393" lon="5.7321">
        <ele>717.76</ele>
        <time>2020-10-29T15:13:22Z</time>
      </trkpt>
      <trkpt lat="44.16398" lon="5.73218">
        <ele>717.76</ele>
        <time>2020-10-29T15:13:35Z</time>
      </trkpt>
      <trkpt lat="44.16397" lon="5.73219">
        <ele>718.24</ele>
        <time>2020-10-29T15:13:50Z</time>
      </trkpt>
      <trkpt lat="44.16396" lon="5.73222">
        <ele>717.76</ele>
        <time>2020-10-29T15:13:53Z</time>
      </trkpt>
      <trkpt lat="44.16394" lon="5.73235">
        <ele>717.28</ele>
        <time>2020-10-29T15:14:02Z</time>
      </trkpt>
      <trkpt lat="44.16395" lon="5.73245">
        <ele>716.8</ele>
        <time>2020-10-29T15:14:09Z</time>
      </trkpt>
      <trkpt lat="44.16402" lon="5.73266">
        <ele>715.84</ele>
        <time>2020-10-29T15:14:24Z</time>
      </trkpt>
      <trkpt lat="44.16405" lon="5.7327">
        <ele>715.84</ele>
        <time>2020-10-29T15:14:35Z</time>
      </trkpt>
      <trkpt lat="44.16406" lon="5.7327">
        <ele>715.36</ele>
        <time>2020-10-29T15:14:46Z</time>
      </trkpt>
      <trkpt lat="44.1641" lon="5.73271">
        <ele>715.36</ele>
        <time>2020-10-29T15:14:56Z</time>
      </trkpt>
      <trkpt lat="44.16415" lon="5.73271">
        <ele>715.84</ele>
        <time>2020-10-29T15:15:03Z</time>
      </trkpt>
      <trkpt lat="44.16418" lon="5.73273">
        <ele>716.32</ele>
        <time>2020-10-29T15:15:07Z</time>
      </trkpt>
      <trkpt lat="44.16425" lon="5.73286">
        <ele>717.28</ele>
        <time>2020-10-29T15:15:21Z</time>
      </trkpt>
      <trkpt lat="44.16435" lon="5.73299">
        <ele>717.76</ele>
        <time>2020-10-29T15:15:34Z</time>
      </trkpt>
      <trkpt lat="44.16442" lon="5.73299">
        <ele>718.24</ele>
        <time>2020-10-29T15:15:46Z</time>
      </trkpt>
      <trkpt lat="44.16447" lon="5.73304">
        <ele>718.72</ele>
        <time>2020-10-29T15:15:56Z</time>
      </trkpt>
      <trkpt lat="44.16449" lon="5.73313">
        <ele>718.24</ele>
        <time>2020-10-29T15:16:02Z</time>
      </trkpt>
      <trkpt lat="44.16452" lon="5.73321">
        <ele>718.24</ele>
        <time>2020-10-29T15:16:08Z</time>
      </trkpt>
      <trkpt lat="44.16458" lon="5.73336">
        <ele>718.24</ele>
        <time>2020-10-29T15:16:19Z</time>
      </trkpt>
      <trkpt lat="44.16465" lon="5.73353">
        <ele>718.24</ele>
        <time>2020-10-29T15:16:32Z</time>
      </trkpt>
      <trkpt lat="44.16474" lon="5.73371">
        <ele>715.84</ele>
        <time>2020-10-29T15:16:47Z</time>
      </trkpt>
      <trkpt lat="44.16487" lon="5.73385">
        <ele>713.92</ele>
        <time>2020-10-29T15:17:02Z</time>
      </trkpt>
      <trkpt lat="44.16487" lon="5.73405">
        <ele>714.88</ele>
        <time>2020-10-29T15:17:15Z</time>
      </trkpt>
      <trkpt lat="44.16488" lon="5.7343">
        <ele>716.32</ele>
        <time>2020-10-29T15:17:32Z</time>
      </trkpt>
      <trkpt lat="44.16495" lon="5.73453">
        <ele>716.8</ele>
        <time>2020-10-29T15:17:49Z</time>
      </trkpt>
      <trkpt lat="44.16501" lon="5.73464">
        <ele>716.32</ele>
        <time>2020-10-29T15:17:57Z</time>
      </trkpt>
      <trkpt lat="44.16503" lon="5.73474">
        <ele>715.84</ele>
        <time>2020-10-29T15:18:04Z</time>
      </trkpt>
      <trkpt lat="44.16509" lon="5.73491">
        <ele>715.36</ele>
        <time>2020-10-29T15:18:17Z</time>
      </trkpt>
      <trkpt lat="44.16517" lon="5.73499">
        <ele>713.92</ele>
        <time>2020-10-29T15:18:30Z</time>
      </trkpt>
      <trkpt lat="44.16516" lon="5.73512">
        <ele>713.44</ele>
        <time>2020-10-29T15:18:43Z</time>
      </trkpt>
      <trkpt lat="44.16515" lon="5.73526">
        <ele>712.47</ele>
        <time>2020-10-29T15:18:56Z</time>
      </trkpt>
      <trkpt lat="44.16516" lon="5.73535">
        <ele>711.51</ele>
        <time>2020-10-29T15:19:05Z</time>
      </trkpt>
      <trkpt lat="44.16514" lon="5.73541">
        <ele>711.99</ele>
        <time>2020-10-29T15:19:11Z</time>
      </trkpt>
      <trkpt lat="44.16511" lon="5.73545">
        <ele>710.55</ele>
        <time>2020-10-29T15:19:17Z</time>
      </trkpt>
      <trkpt lat="44.1651" lon="5.73555">
        <ele>707.67</ele>
        <time>2020-10-29T15:19:32Z</time>
      </trkpt>
      <trkpt lat="44.16506" lon="5.73571">
        <ele>708.63</ele>
        <time>2020-10-29T15:19:46Z</time>
      </trkpt>
      <trkpt lat="44.16505" lon="5.73574">
        <ele>708.15</ele>
        <time>2020-10-29T15:19:48Z</time>
      </trkpt>
      <trkpt lat="44.1651" lon="5.73588">
        <ele>705.75</ele>
        <time>2020-10-29T15:20:03Z</time>
      </trkpt>
      <trkpt lat="44.16503" lon="5.73596">
        <ele>704.78</ele>
        <time>2020-10-29T15:20:13Z</time>
      </trkpt>
      <trkpt lat="44.16496" lon="5.73595">
        <ele>705.26</ele>
        <time>2020-10-29T15:20:19Z</time>
      </trkpt>
      <trkpt lat="44.16494" lon="5.73597">
        <ele>705.75</ele>
        <time>2020-10-29T15:20:22Z</time>
      </trkpt>
      <trkpt lat="44.16489" lon="5.73612">
        <ele>706.71</ele>
        <time>2020-10-29T15:20:32Z</time>
      </trkpt>
      <trkpt lat="44.16488" lon="5.73615">
        <ele>707.19</ele>
        <time>2020-10-29T15:20:34Z</time>
      </trkpt>
      <trkpt lat="44.16485" lon="5.73621">
        <ele>707.67</ele>
        <time>2020-10-29T15:20:39Z</time>
      </trkpt>
      <trkpt lat="44.16484" lon="5.73625">
        <ele>708.15</ele>
        <time>2020-10-29T15:20:42Z</time>
      </trkpt>
      <trkpt lat="44.16484" lon="5.73632">
        <ele>709.11</ele>
        <time>2020-10-29T15:20:47Z</time>
      </trkpt>
      <trkpt lat="44.16487" lon="5.73641">
        <ele>710.07</ele>
        <time>2020-10-29T15:20:54Z</time>
      </trkpt>
      <trkpt lat="44.16487" lon="5.73647">
        <ele>709.59</ele>
        <time>2020-10-29T15:20:58Z</time>
      </trkpt>
      <trkpt lat="44.16487" lon="5.73663">
        <ele>708.15</ele>
        <time>2020-10-29T15:21:10Z</time>
      </trkpt>
      <trkpt lat="44.16492" lon="5.73672">
        <ele>707.67</ele>
        <time>2020-10-29T15:21:17Z</time>
      </trkpt>
      <trkpt lat="44.16502" lon="5.737">
        <ele>706.23</ele>
        <time>2020-10-29T15:21:36Z</time>
      </trkpt>
      <trkpt lat="44.16508" lon="5.73714">
        <ele>705.75</ele>
        <time>2020-10-29T15:21:49Z</time>
      </trkpt>
      <trkpt lat="44.16523" lon="5.73734">
        <ele>703.82</ele>
        <time>2020-10-29T15:22:06Z</time>
      </trkpt>
      <trkpt lat="44.16535" lon="5.73755">
        <ele>701.42</ele>
        <time>2020-10-29T15:22:24Z</time>
      </trkpt>
      <trkpt lat="44.16537" lon="5.73773">
        <ele>698.53</ele>
        <time>2020-10-29T15:22:38Z</time>
      </trkpt>
      <trkpt lat="44.16534" lon="5.73792">
        <ele>695.17</ele>
        <time>2020-10-29T15:22:52Z</time>
      </trkpt>
      <trkpt lat="44.16533" lon="5.73803">
        <ele>691.81</ele>
        <time>2020-10-29T15:23:03Z</time>
      </trkpt>
      <trkpt lat="44.16534" lon="5.7381">
        <ele>690.36</ele>
        <time>2020-10-29T15:23:15Z</time>
      </trkpt>
      <trkpt lat="44.16534" lon="5.73816">
        <ele>690.84</ele>
        <time>2020-10-29T15:23:20Z</time>
      </trkpt>
      <trkpt lat="44.16532" lon="5.73819">
        <ele>690.84</ele>
        <time>2020-10-29T15:23:23Z</time>
      </trkpt>
      <trkpt lat="44.1653" lon="5.73822">
        <ele>690.84</ele>
        <time>2020-10-29T15:23:26Z</time>
      </trkpt>
      <trkpt lat="44.16527" lon="5.73829">
        <ele>690.36</ele>
        <time>2020-10-29T15:23:32Z</time>
      </trkpt>
      <trkpt lat="44.16527" lon="5.73831">
        <ele>689.88</ele>
        <time>2020-10-29T15:23:34Z</time>
      </trkpt>
      <trkpt lat="44.16525" lon="5.7384">
        <ele>688.44</ele>
        <time>2020-10-29T15:23:43Z</time>
      </trkpt>
      <trkpt lat="44.16523" lon="5.73852">
        <ele>687.48</ele>
        <time>2020-10-29T15:23:58Z</time>
      </trkpt>
      <trkpt lat="44.16528" lon="5.73872">
        <ele>685.56</ele>
        <time>2020-10-29T15:24:15Z</time>
      </trkpt>
      <trkpt lat="44.16527" lon="5.73884">
        <ele>684.12</ele>
        <time>2020-10-29T15:24:25Z</time>
      </trkpt>
      <trkpt lat="44.1653" lon="5.73911">
        <ele>683.15</ele>
        <time>2020-10-29T15:24:43Z</time>
      </trkpt>
      <trkpt lat="44.16539" lon="5.73933">
        <ele>680.75</ele>
        <time>2020-10-29T15:25:00Z</time>
      </trkpt>
      <trkpt lat="44.16553" lon="5.73941">
        <ele>680.75</ele>
        <time>2020-10-29T15:25:14Z</time>
      </trkpt>
      <trkpt lat="44.16555" lon="5.73941">
        <ele>680.75</ele>
        <time>2020-10-29T15:25:16Z</time>
      </trkpt>
      <trkpt lat="44.16569" lon="5.73952">
        <ele>678.83</ele>
        <time>2020-10-29T15:25:34Z</time>
      </trkpt>
      <trkpt lat="44.16572" lon="5.73967">
        <ele>677.87</ele>
        <time>2020-10-29T15:25:46Z</time>
      </trkpt>
      <trkpt lat="44.16573" lon="5.7397">
        <ele>677.39</ele>
        <time>2020-10-29T15:25:49Z</time>
      </trkpt>
      <trkpt lat="44.16572" lon="5.73973">
        <ele>676.91</ele>
        <time>2020-10-29T15:25:52Z</time>
      </trkpt>
      <trkpt lat="44.16574" lon="5.73998">
        <ele>676.42</ele>
        <time>2020-10-29T15:26:09Z</time>
      </trkpt>
      <trkpt lat="44.16574" lon="5.74013">
        <ele>675.46</ele>
        <time>2020-10-29T15:26:19Z</time>
      </trkpt>
      <trkpt lat="44.16579" lon="5.7402">
        <ele>674.98</ele>
        <time>2020-10-29T15:26:34Z</time>
      </trkpt>
      <trkpt lat="44.16589" lon="5.74043">
        <ele>675.94</ele>
        <time>2020-10-29T15:26:50Z</time>
      </trkpt>
      <trkpt lat="44.1659" lon="5.74045">
        <ele>676.42</ele>
        <time>2020-10-29T15:26:52Z</time>
      </trkpt>
      <trkpt lat="44.16601" lon="5.74057">
        <ele>677.39</ele>
        <time>2020-10-29T15:27:07Z</time>
      </trkpt>
      <trkpt lat="44.16604" lon="5.74059">
        <ele>677.87</ele>
        <time>2020-10-29T15:27:23Z</time>
      </trkpt>
      <trkpt lat="44.16612" lon="5.74066">
        <ele>679.79</ele>
        <time>2020-10-29T15:27:39Z</time>
      </trkpt>
      <trkpt lat="44.16625" lon="5.74071">
        <ele>681.71</ele>
        <time>2020-10-29T15:27:53Z</time>
      </trkpt>
      <trkpt lat="44.16637" lon="5.74085">
        <ele>683.15</ele>
        <time>2020-10-29T15:28:09Z</time>
      </trkpt>
      <trkpt lat="44.16642" lon="5.74094">
        <ele>683.63</ele>
        <time>2020-10-29T15:28:23Z</time>
      </trkpt>
      <trkpt lat="44.16648" lon="5.74108">
        <ele>684.6</ele>
        <time>2020-10-29T15:28:36Z</time>
      </trkpt>
      <trkpt lat="44.16649" lon="5.74111">
        <ele>685.08</ele>
        <time>2020-10-29T15:28:50Z</time>
      </trkpt>
      <trkpt lat="44.16651" lon="5.74111">
        <ele>684.6</ele>
        <time>2020-10-29T15:29:06Z</time>
      </trkpt>
      <trkpt lat="44.16651" lon="5.74119">
        <ele>684.6</ele>
        <time>2020-10-29T15:29:28Z</time>
      </trkpt>
      <trkpt lat="44.16656" lon="5.74122">
        <ele>684.12</ele>
        <time>2020-10-29T15:29:41Z</time>
      </trkpt>
      <trkpt lat="44.16657" lon="5.74119">
        <ele>684.12</ele>
        <time>2020-10-29T15:29:56Z</time>
      </trkpt>
      <trkpt lat="44.16661" lon="5.74117">
        <ele>684.6</ele>
        <time>2020-10-29T15:30:13Z</time>
      </trkpt>
      <trkpt lat="44.16662" lon="5.74116">
        <ele>684.6</ele>
        <time>2020-10-29T15:30:26Z</time>
      </trkpt>
      <trkpt lat="44.16663" lon="5.74113">
        <ele>684.6</ele>
        <time>2020-10-29T15:30:36Z</time>
      </trkpt>
      <trkpt lat="44.16673" lon="5.74113">
        <ele>683.63</ele>
        <time>2020-10-29T15:30:49Z</time>
      </trkpt>
      <trkpt lat="44.16676" lon="5.74106">
        <ele>682.19</ele>
        <time>2020-10-29T15:30:58Z</time>
      </trkpt>
      <trkpt lat="44.16679" lon="5.74097">
        <ele>680.75</ele>
        <time>2020-10-29T15:31:05Z</time>
      </trkpt>
      <trkpt lat="44.16686" lon="5.74077">
        <ele>677.39</ele>
        <time>2020-10-29T15:31:22Z</time>
      </trkpt>
      <trkpt lat="44.16696" lon="5.74066">
        <ele>674.5</ele>
        <time>2020-10-29T15:31:37Z</time>
      </trkpt>
      <trkpt lat="44.16699" lon="5.74061">
        <ele>673.54</ele>
        <time>2020-10-29T15:31:41Z</time>
      </trkpt>
      <trkpt lat="44.1671" lon="5.74047">
        <ele>670.18</ele>
        <time>2020-10-29T15:31:57Z</time>
      </trkpt>
      <trkpt lat="44.16717" lon="5.74036">
        <ele>668.73</ele>
        <time>2020-10-29T15:32:13Z</time>
      </trkpt>
      <trkpt lat="44.16721" lon="5.74026">
        <ele>667.29</ele>
        <time>2020-10-29T15:32:21Z</time>
      </trkpt>
      <trkpt lat="44.16732" lon="5.74005">
        <ele>664.41</ele>
        <time>2020-10-29T15:32:38Z</time>
      </trkpt>
      <trkpt lat="44.16732" lon="5.74002">
        <ele>662.97</ele>
        <time>2020-10-29T15:32:49Z</time>
      </trkpt>
      <trkpt lat="44.16737" lon="5.74005">
        <ele>662.97</ele>
        <time>2020-10-29T15:33:11Z</time>
      </trkpt>
      <trkpt lat="44.16739" lon="5.74005">
        <ele>662.97</ele>
        <time>2020-10-29T15:33:47Z</time>
      </trkpt>
      <trkpt lat="44.16735" lon="5.74006">
        <ele>662.49</ele>
        <time>2020-10-29T15:34:26Z</time>
      </trkpt>
      <trkpt lat="44.16737" lon="5.74006">
        <ele>662.97</ele>
        <time>2020-10-29T15:35:04Z</time>
      </trkpt>
      <trkpt lat="44.16735" lon="5.74005">
        <ele>663.93</ele>
        <time>2020-10-29T15:35:17Z</time>
      </trkpt>
      <trkpt lat="44.16734" lon="5.74008">
        <ele>663.93</ele>
        <time>2020-10-29T15:35:36Z</time>
      </trkpt>
      <trkpt lat="44.16734" lon="5.74009">
        <ele>663.93</ele>
        <time>2020-10-29T15:36:04Z</time>
      </trkpt>
      <trkpt lat="44.16732" lon="5.74008">
        <ele>663.45</ele>
        <time>2020-10-29T15:36:36Z</time>
      </trkpt>
      <trkpt lat="44.16736" lon="5.73994">
        <ele>662.97</ele>
        <time>2020-10-29T15:36:51Z</time>
      </trkpt>
      <trkpt lat="44.16742" lon="5.73978">
        <ele>660.56</ele>
        <time>2020-10-29T15:37:05Z</time>
      </trkpt>
      <trkpt lat="44.16751" lon="5.73959">
        <ele>658.16</ele>
        <time>2020-10-29T15:37:20Z</time>
      </trkpt>
      <trkpt lat="44.16758" lon="5.73939">
        <ele>655.76</ele>
        <time>2020-10-29T15:37:36Z</time>
      </trkpt>
      <trkpt lat="44.16766" lon="5.73924">
        <ele>654.31</ele>
        <time>2020-10-29T15:37:47Z</time>
      </trkpt>
      <trkpt lat="44.16775" lon="5.73905">
        <ele>652.39</ele>
        <time>2020-10-29T15:38:03Z</time>
      </trkpt>
      <trkpt lat="44.16786" lon="5.73881">
        <ele>650.47</ele>
        <time>2020-10-29T15:38:20Z</time>
      </trkpt>
      <trkpt lat="44.16797" lon="5.73868">
        <ele>647.1</ele>
        <time>2020-10-29T15:38:34Z</time>
      </trkpt>
      <trkpt lat="44.16813" lon="5.7386">
        <ele>644.22</ele>
        <time>2020-10-29T15:38:48Z</time>
      </trkpt>
      <trkpt lat="44.16831" lon="5.73857">
        <ele>640.86</ele>
        <time>2020-10-29T15:39:03Z</time>
      </trkpt>
      <trkpt lat="44.16845" lon="5.73857">
        <ele>638.45</ele>
        <time>2020-10-29T15:39:17Z</time>
      </trkpt>
      <trkpt lat="44.16859" lon="5.73857">
        <ele>637.01</ele>
        <time>2020-10-29T15:39:31Z</time>
      </trkpt>
      <trkpt lat="44.16878" lon="5.73873">
        <ele>634.61</ele>
        <time>2020-10-29T15:39:45Z</time>
      </trkpt>
      <trkpt lat="44.16877" lon="5.73869">
        <ele>635.09</ele>
        <time>2020-10-29T15:39:58Z</time>
      </trkpt>
      <trkpt lat="44.16879" lon="5.73868">
        <ele>634.61</ele>
        <time>2020-10-29T15:40:15Z</time>
      </trkpt>
      <trkpt lat="44.16877" lon="5.73875">
        <ele>634.61</ele>
        <time>2020-10-29T15:40:31Z</time>
      </trkpt>
      <trkpt lat="44.16879" lon="5.73876">
        <ele>634.61</ele>
        <time>2020-10-29T15:40:36Z</time>
      </trkpt>
      <trkpt lat="44.1688" lon="5.73882">
        <ele>634.61</ele>
        <time>2020-10-29T15:40:40Z</time>
      </trkpt>
      <trkpt lat="44.16883" lon="5.73894">
        <ele>634.61</ele>
        <time>2020-10-29T15:40:48Z</time>
      </trkpt>
      <trkpt lat="44.16884" lon="5.73902">
        <ele>634.61</ele>
        <time>2020-10-29T15:40:54Z</time>
      </trkpt>
      <trkpt lat="44.16891" lon="5.73915">
        <ele>634.13</ele>
        <time>2020-10-29T15:41:07Z</time>
      </trkpt>
      <trkpt lat="44.16892" lon="5.73919">
        <ele>634.61</ele>
        <time>2020-10-29T15:41:11Z</time>
      </trkpt>
      <trkpt lat="44.169" lon="5.73933">
        <ele>634.13</ele>
        <time>2020-10-29T15:41:22Z</time>
      </trkpt>
      <trkpt lat="44.16907" lon="5.73946">
        <ele>633.17</ele>
        <time>2020-10-29T15:41:32Z</time>
      </trkpt>
      <trkpt lat="44.16913" lon="5.7396">
        <ele>632.68</ele>
        <time>2020-10-29T15:41:44Z</time>
      </trkpt>
      <trkpt lat="44.16918" lon="5.73968">
        <ele>632.68</ele>
        <time>2020-10-29T15:41:54Z</time>
      </trkpt>
      <trkpt lat="44.16917" lon="5.73971">
        <ele>632.68</ele>
        <time>2020-10-29T15:42:07Z</time>
      </trkpt>
      <trkpt lat="44.16921" lon="5.73978">
        <ele>632.2</ele>
        <time>2020-10-29T15:42:16Z</time>
      </trkpt>
      <trkpt lat="44.16929" lon="5.73992">
        <ele>632.68</ele>
        <time>2020-10-29T15:42:28Z</time>
      </trkpt>
      <trkpt lat="44.16935" lon="5.74003">
        <ele>632.2</ele>
        <time>2020-10-29T15:42:38Z</time>
      </trkpt>
      <trkpt lat="44.16941" lon="5.74014">
        <ele>631.72</ele>
        <time>2020-10-29T15:42:51Z</time>
      </trkpt>
      <trkpt lat="44.16946" lon="5.74026">
        <ele>632.2</ele>
        <time>2020-10-29T15:43:01Z</time>
      </trkpt>
      <trkpt lat="44.16953" lon="5.74044">
        <ele>632.68</ele>
        <time>2020-10-29T15:43:14Z</time>
      </trkpt>
      <trkpt lat="44.16962" lon="5.74056">
        <ele>631.72</ele>
        <time>2020-10-29T15:43:26Z</time>
      </trkpt>
      <trkpt lat="44.16967" lon="5.74068">
        <ele>631.72</ele>
        <time>2020-10-29T15:43:37Z</time>
      </trkpt>
      <trkpt lat="44.16972" lon="5.74083">
        <ele>631.72</ele>
        <time>2020-10-29T15:43:48Z</time>
      </trkpt>
      <trkpt lat="44.16973" lon="5.74084">
        <ele>631.24</ele>
        <time>2020-10-29T15:43:49Z</time>
      </trkpt>
      <trkpt lat="44.16981" lon="5.74098">
        <ele>631.72</ele>
        <time>2020-10-29T15:44:01Z</time>
      </trkpt>
      <trkpt lat="44.16981" lon="5.74102">
        <ele>631.24</ele>
        <time>2020-10-29T15:44:04Z</time>
      </trkpt>
      <trkpt lat="44.16986" lon="5.74112">
        <ele>630.76</ele>
        <time>2020-10-29T15:44:17Z</time>
      </trkpt>
      <trkpt lat="44.16992" lon="5.74125">
        <ele>630.76</ele>
        <time>2020-10-29T15:44:28Z</time>
      </trkpt>
      <trkpt lat="44.16993" lon="5.7413">
        <ele>630.76</ele>
        <time>2020-10-29T15:44:33Z</time>
      </trkpt>
      <trkpt lat="44.16995" lon="5.74137">
        <ele>630.76</ele>
        <time>2020-10-29T15:44:37Z</time>
      </trkpt>
      <trkpt lat="44.16996" lon="5.74141">
        <ele>630.76</ele>
        <time>2020-10-29T15:44:40Z</time>
      </trkpt>
      <trkpt lat="44.16996" lon="5.74147">
        <ele>631.24</ele>
        <time>2020-10-29T15:44:45Z</time>
      </trkpt>
      <trkpt lat="44.1699" lon="5.74165">
        <ele>630.76</ele>
        <time>2020-10-29T15:44:58Z</time>
      </trkpt>
      <trkpt lat="44.16988" lon="5.74171">
        <ele>631.24</ele>
        <time>2020-10-29T15:45:03Z</time>
      </trkpt>
      <trkpt lat="44.16986" lon="5.74176">
        <ele>631.24</ele>
        <time>2020-10-29T15:45:10Z</time>
      </trkpt>
      <trkpt lat="44.16988" lon="5.74181">
        <ele>631.72</ele>
        <time>2020-10-29T15:45:14Z</time>
      </trkpt>
      <trkpt lat="44.16995" lon="5.74193">
        <ele>631.72</ele>
        <time>2020-10-29T15:45:27Z</time>
      </trkpt>
      <trkpt lat="44.16999" lon="5.74201">
        <ele>631.24</ele>
        <time>2020-10-29T15:45:42Z</time>
      </trkpt>
      <trkpt lat="44.16999" lon="5.74214">
        <ele>630.76</ele>
        <time>2020-10-29T15:45:58Z</time>
      </trkpt>
      <trkpt lat="44.17" lon="5.74216">
        <ele>630.76</ele>
        <time>2020-10-29T15:46:24Z</time>
      </trkpt>
      <trkpt lat="44.17" lon="5.74215">
        <ele>630.76</ele>
        <time>2020-10-29T15:46:44Z</time>
      </trkpt>
      <trkpt lat="44.17" lon="5.74213">
        <ele>631.24</ele>
        <time>2020-10-29T15:47:01Z</time>
      </trkpt>
      <trkpt lat="44.17002" lon="5.74219">
        <ele>630.76</ele>
        <time>2020-10-29T15:47:16Z</time>
      </trkpt>
      <trkpt lat="44.17002" lon="5.74223">
        <ele>630.76</ele>
        <time>2020-10-29T15:47:33Z</time>
      </trkpt>
      <trkpt lat="44.17" lon="5.74218">
        <ele>630.76</ele>
        <time>2020-10-29T15:47:46Z</time>
      </trkpt>
      <trkpt lat="44.17004" lon="5.74233">
        <ele>631.72</ele>
        <time>2020-10-29T15:48:00Z</time>
      </trkpt>
      <trkpt lat="44.17004" lon="5.74246">
        <ele>632.68</ele>
        <time>2020-10-29T15:48:13Z</time>
      </trkpt>
      <trkpt lat="44.17002" lon="5.74258">
        <ele>634.13</ele>
        <time>2020-10-29T15:48:25Z</time>
      </trkpt>
      <trkpt lat="44.17002" lon="5.74259">
        <ele>634.13</ele>
        <time>2020-10-29T15:48:26Z</time>
      </trkpt>
      <trkpt lat="44.17006" lon="5.74266">
        <ele>636.05</ele>
        <time>2020-10-29T15:48:38Z</time>
      </trkpt>
      <trkpt lat="44.17013" lon="5.74266">
        <ele>635.57</ele>
        <time>2020-10-29T15:48:46Z</time>
      </trkpt>
      <trkpt lat="44.17017" lon="5.74263">
        <ele>635.09</ele>
        <time>2020-10-29T15:48:51Z</time>
      </trkpt>
      <trkpt lat="44.17022" lon="5.74259">
        <ele>635.09</ele>
        <time>2020-10-29T15:48:56Z</time>
      </trkpt>
      <trkpt lat="44.1703" lon="5.74244">
        <ele>635.09</ele>
        <time>2020-10-29T15:49:11Z</time>
      </trkpt>
      <trkpt lat="44.17037" lon="5.74237">
        <ele>634.61</ele>
        <time>2020-10-29T15:49:20Z</time>
      </trkpt>
      <trkpt lat="44.17044" lon="5.74231">
        <ele>635.09</ele>
        <time>2020-10-29T15:49:30Z</time>
      </trkpt>
      <trkpt lat="44.17057" lon="5.74223">
        <ele>634.61</ele>
        <time>2020-10-29T15:49:46Z</time>
      </trkpt>
      <trkpt lat="44.1707" lon="5.74214">
        <ele>634.13</ele>
        <time>2020-10-29T15:50:01Z</time>
      </trkpt>
      <trkpt lat="44.17081" lon="5.74219">
        <ele>634.61</ele>
        <time>2020-10-29T15:50:13Z</time>
      </trkpt>
      <trkpt lat="44.17091" lon="5.74229">
        <ele>635.57</ele>
        <time>2020-10-29T15:50:27Z</time>
      </trkpt>
      <trkpt lat="44.17099" lon="5.74234">
        <ele>636.05</ele>
        <time>2020-10-29T15:50:41Z</time>
      </trkpt>
      <trkpt lat="44.17099" lon="5.74233">
        <ele>635.57</ele>
        <time>2020-10-29T15:50:58Z</time>
      </trkpt>
      <trkpt lat="44.17109" lon="5.74235">
        <ele>636.05</ele>
        <time>2020-10-29T15:51:14Z</time>
      </trkpt>
      <trkpt lat="44.17109" lon="5.74231">
        <ele>637.01</ele>
        <time>2020-10-29T15:51:30Z</time>
      </trkpt>
      <trkpt lat="44.17111" lon="5.74226">
        <ele>636.53</ele>
        <time>2020-10-29T15:51:44Z</time>
      </trkpt>
      <trkpt lat="44.17118" lon="5.74225">
        <ele>636.53</ele>
        <time>2020-10-29T15:51:57Z</time>
      </trkpt>
      <trkpt lat="44.1712" lon="5.7422">
        <ele>636.53</ele>
        <time>2020-10-29T15:52:10Z</time>
      </trkpt>
      <trkpt lat="44.1712" lon="5.74219">
        <ele>636.53</ele>
        <time>2020-10-29T15:52:23Z</time>
      </trkpt>
      <trkpt lat="44.17118" lon="5.74219">
        <ele>637.01</ele>
        <time>2020-10-29T15:52:43Z</time>
      </trkpt>
      <trkpt lat="44.17119" lon="5.74216">
        <ele>636.53</ele>
        <time>2020-10-29T15:53:02Z</time>
      </trkpt>
      <trkpt lat="44.1712" lon="5.74221">
        <ele>636.05</ele>
        <time>2020-10-29T15:53:19Z</time>
      </trkpt>
      <trkpt lat="44.17121" lon="5.74224">
        <ele>636.05</ele>
        <time>2020-10-29T15:53:44Z</time>
      </trkpt>
      <trkpt lat="44.17121" lon="5.74229">
        <ele>636.05</ele>
        <time>2020-10-29T15:54:14Z</time>
      </trkpt>
      <trkpt lat="44.17122" lon="5.74226">
        <ele>635.57</ele>
        <time>2020-10-29T15:54:45Z</time>
      </trkpt>
      <trkpt lat="44.1712" lon="5.74225">
        <ele>635.57</ele>
        <time>2020-10-29T15:55:16Z</time>
      </trkpt>
      <trkpt lat="44.17118" lon="5.74221">
        <ele>635.57</ele>
        <time>2020-10-29T15:55:46Z</time>
      </trkpt>
      <trkpt lat="44.17115" lon="5.74221">
        <ele>635.57</ele>
        <time>2020-10-29T15:56:13Z</time>
      </trkpt>
      <trkpt lat="44.17116" lon="5.74224">
        <ele>636.05</ele>
        <time>2020-10-29T15:56:47Z</time>
      </trkpt>
      <trkpt lat="44.17122" lon="5.74222">
        <ele>636.05</ele>
        <time>2020-10-29T15:57:18Z</time>
      </trkpt>
      <trkpt lat="44.1712" lon="5.74219">
        <ele>635.57</ele>
        <time>2020-10-29T15:57:48Z</time>
      </trkpt>
      <trkpt lat="44.17124" lon="5.74221">
        <ele>635.09</ele>
        <time>2020-10-29T15:58:15Z</time>
      </trkpt>
      <trkpt lat="44.17124" lon="5.74222">
        <ele>635.57</ele>
        <time>2020-10-29T15:58:17Z</time>
      </trkpt>
      <trkpt lat="44.17099" lon="5.74232">
        <ele>634.61</ele>
        <time>2020-10-29T15:58:34Z</time>
      </trkpt>
      <trkpt lat="44.17076" lon="5.74213">
        <ele>633.17</ele>
        <time>2020-10-29T15:58:47Z</time>
      </trkpt>
      <trkpt lat="44.17082" lon="5.7422">
        <ele>634.61</ele>
        <time>2020-10-29T15:59:07Z</time>
      </trkpt>
      <trkpt lat="44.17077" lon="5.74219">
        <ele>634.61</ele>
        <time>2020-10-29T15:59:35Z</time>
      </trkpt>
      <trkpt lat="44.17078" lon="5.74218">
        <ele>634.13</ele>
        <time>2020-10-29T15:59:46Z</time>
      </trkpt>
    </trkseg>
  </trk>
</gpx>